[[{"header":{"parameterUnit":"m.s-1","parameterCategory":1,"la1":30.6,"la2":28.766,"lo1":-90.7593,"lo2":-88.6598,"dy":0.0162,"dx":0.0183,"nx":116,"ny":114,"refTime":"2023-11-14T06:00:00:Z","depth":0,"parameterNumber":2,"parameterNumberName":"U-component_of_WINDS"},"data":[0.0,0.0,0.0,0.0,0.0,0.0,0.0,0.0,0.0,0.0,0.0,0.0,0.0,0.0,0.0,0.0,0.0,0.0,0.0,0.0,0.0,0.0,0.0,0.0,0.0,0.0,0.0,0.0,0.0,0.0,0.0,0.0,0.0,0.0,0.0,0.0,0.0,0.0,0.0,0.0,0.0,0.0,0.0,0.0,0.0,0.0,0.0,0.0,0.0,0.0,0.0,0.0,0.0,0.0,0.0,0.0,0.0,0.0,0.0,0.0,0.0,0.0,0.0,0.0,0.0,0.0,0.0,0.0,0.0,0.0,0.0,0.0,0.0,0.0,0.0,0.0,0.0,0.0,0.0,0.0,0.0,0.0,0.0,0.0,0.0,0.0,0.0,0.0,0.0,0.0,0.0,0.0,0.0,0.0,0.0,0.0,0.0,0.0,0.0,0.0,0.0,0.0,0.0,0.0,0.0,0.0,0.0,0.0,0.0,0.0,0.0,0.0,0.0,0.0,0.0,0.0,0.0,0.0,0.0,0.0,0.0,0.0,0.0,0.0,0.0,0.0,0.0,0.0,0.0,0.0,0.0,0.0,0.0,0.0,0.0,0.0,0.0,0.0,0.0,0.0,0.0,0.0,0.0,0.0,0.0,0.0,0.0,0.0,0.0,0.0,0.0,0.0,0.0,0.0,0.0,0.0,0.0,0.0,0.0,0.0,0.0,0.0,0.0,0.0,0.0,0.0,0.0,0.0,0.0,0.0,0.0,0.0,0.0,0.0,0.0,0.0,0.0,0.0,0.0,0.0,0.0,0.0,0.0,0.0,0.0,0.0,0.0,0.0,0.0,0.0,0.0,0.0,0.0,0.0,0.0,0.0,0.0,0.0,0.0,0.0,0.0,0.0,0.0,0.0,0.0,0.0,0.0,0.0,0.0,0.0,0.0,0.0,0.0,0.0,0.0,0.0,0.0,0.0,0.0,0.0,0.0,0.0,0.0,0.0,0.0,0.0,0.0,0.0,0.0,0.0,0.0,0.0,0.0,0.0,0.0,0.0,0.0,0.0,0.0,0.0,0.0,0.0,0.0,0.0,0.0,0.0,0.0,0.0,0.0,0.0,0.0,0.0,0.0,0.0,0.0,0.0,0.0,0.0,0.0,0.0,0.0,0.0,0.0,0.0,0.0,0.0,0.0,0.0,0.0,0.0,0.0,0.0,0.0,0.0,0.0,0.0,0.0,0.0,0.0,0.0,0.0,0.0,0.0,0.0,0.0,0.0,0.0,0.0,0.0,0.0,0.0,0.0,0.0,0.0,0.0,0.0,0.0,0.0,0.0,0.0,0.0,0.0,0.0,0.0,0.0,0.0,0.0,0.0,0.0,0.0,0.0,0.0,0.0,0.0,0.0,0.0,0.0,0.0,0.0,0.0,0.0,0.0,0.0,0.0,0.0,0.0,0.0,0.0,0.0,0.0,0.0,0.0,0.0,0.0,0.0,0.0,0.0,0.0,0.0,0.0,0.0,0.0,0.0,0.0,0.0,0.0,0.0,0.0,0.0,0.0,0.0,0.0,0.0,0.0,0.0,0.0,0.0,0.0,0.0,0.0,0.0,0.0,0.0,0.0,0.0,0.0,0.0,0.0,0.0,0.0,0.0,0.0,0.0,0.0,0.0,0.0,0.0,0.0,0.0,0.0,0.0,0.0,0.0,0.0,0.0,0.0,0.0,0.0,0.0,0.0,0.0,0.0,0.0,0.0,0.0,0.0,0.0,0.0,0.0,0.0,0.0,0.0,0.0,0.0,0.0,0.0,0.0,0.0,0.0,0.0,0.0,0.0,0.0,0.0,0.0,0.0,0.0,0.0,0.0,0.0,0.0,0.0,0.0,0.0,0.0,0.0,0.0,0.0,0.0,0.0,0.0,0.0,0.0,0.0,0.0,0.0,0.0,0.0,0.0,0.0,0.0,0.0,0.0,0.0,0.0,0.0,0.0,0.0,0.0,0.0,0.0,0.0,0.0,0.0,0.0,0.0,0.0,0.0,0.0,0.0,0.0,0.0,0.0,0.0,0.0,0.0,0.0,0.0,0.0,0.0,0.0,0.0,0.0,0.0,0.0,0.0,0.0,0.0,0.0,0.0,0.0,0.0,0.0,0.0,0.0,0.0,0.0,0.0,0.0,0.0,0.0,0.0,0.0,0.0,0.0,0.0,0.0,0.0,0.0,0.0,0.0,0.0,0.0,0.0,0.0,0.0,0.0,0.0,0.0,0.0,0.0,0.0,0.0,0.0,0.0,0.0,0.0,0.0,0.0,0.0,0.0,0.0,0.0,0.0,0.0,0.0,0.0,0.0,0.0,0.0,0.0,0.0,0.0,0.0,0.0,0.0,0.0,0.0,0.0,0.0,0.0,0.0,0.0,0.0,0.0,0.0,0.0,0.0,0.0,0.0,0.0,0.0,0.0,0.0,0.0,0.0,0.0,0.0,0.0,0.0,0.0,0.0,0.0,0.0,0.0,0.0,0.0,0.0,0.0,0.0,0.0,0.0,0.0,0.0,0.0,0.0,0.0,0.0,0.0,0.0,0.0,0.0,0.0,0.0,0.0,0.0,0.0,0.0,0.0,0.0,0.0,0.0,0.0,0.0,0.0,0.0,0.0,0.0,0.0,0.0,0.0,0.0,0.0,0.0,0.0,0.0,0.0,0.0,0.0,0.0,0.0,0.0,0.0,0.0,0.0,0.0,0.0,0.0,0.0,0.0,0.0,0.0,0.0,0.0,0.0,0.0,0.0,0.0,0.0,0.0,0.0,0.0,0.0,0.0,0.0,0.0,0.0,0.0,0.0,0.0,0.0,0.0,0.0,0.0,0.0,0.0,0.0,0.0,0.0,0.0,0.0,0.0,0.0,0.0,0.0,0.0,0.0,0.0,0.0,0.0,0.0,0.0,0.0,0.0,0.0,0.0,0.0,0.0,0.0,0.0,0.0,0.0,0.0,0.0,0.0,0.0,0.0,0.0,0.0,0.0,0.0,0.0,0.0,0.0,0.0,0.0,0.0,0.0,0.0,0.0,0.0,0.0,0.0,0.0,0.0,0.0,0.0,0.0,0.0,0.0,0.0,0.0,0.0,0.0,0.0,0.0,0.0,0.0,0.0,0.0,0.0,0.0,0.0,0.0,0.0,0.0,0.0,0.0,0.0,0.0,0.0,0.0,0.0,0.0,0.0,0.0,0.0,0.0,0.0,0.0,0.0,0.0,0.0,0.0,0.0,0.0,0.0,0.0,0.0,0.0,0.0,0.0,0.0,0.0,0.0,0.0,0.0,0.0,0.0,0.0,0.0,0.0,0.0,0.0,0.0,0.0,0.0,0.0,0.0,0.0,0.0,0.0,0.0,0.0,0.0,0.0,0.0,0.0,0.0,0.0,0.0,0.0,0.0,0.0,0.0,0.0,0.0,0.0,0.0,0.0,0.0,0.0,0.0,0.0,0.0,0.0,0.0,0.0,0.0,0.0,0.0,0.0,0.0,0.0,0.0,0.0,0.0,0.0,0.0,0.0,0.0,0.0,0.0,0.0,0.0,0.0,0.0,0.0,0.0,0.0,0.0,0.0,0.0,0.0,0.0,0.0,0.0,0.0,0.0,0.0,0.0,0.0,0.0,0.0,0.0,0.0,0.0,0.0,0.0,0.0,0.0,0.0,0.0,0.0,0.0,0.0,0.0,0.0,0.0,0.0,0.0,0.0,0.0,0.0,0.0,0.0,0.0,0.0,0.0,0.0,0.0,0.0,0.0,0.0,0.0,0.0,0.0,0.0,0.0,0.0,0.0,0.0,0.0,0.0,0.0,0.0,0.0,0.0,0.0,0.0,0.0,0.0,0.0,0.0,0.0,0.0,0.0,0.0,0.0,0.0,0.0,0.0,0.0,0.0,0.0,0.0,0.0,0.0,0.0,0.0,0.0,0.0,0.0,0.0,0.0,0.0,0.0,0.0,0.0,0.0,0.0,0.0,0.0,0.0,0.0,0.0,0.0,0.0,0.0,0.0,0.0,0.0,0.0,0.0,0.0,0.0,0.0,0.0,0.0,0.0,0.0,0.0,0.0,0.0,0.0,0.0,0.0,0.0,0.0,0.0,0.0,0.0,0.0,0.0,0.0,0.0,0.0,0.0,0.0,0.0,0.0,0.0,0.0,0.0,0.0,0.0,0.0,0.0,0.0,0.0,0.0,0.0,0.0,0.0,0.0,0.0,0.0,0.0,0.0,0.0,0.0,0.0,0.0,0.0,0.0,0.0,0.0,0.0,0.0,0.0,0.0,0.0,0.0,0.0,0.0,0.0,0.0,0.0,0.0,0.0,0.0,0.0,0.0,0.0,0.0,0.0,0.0,0.0,0.0,0.0,0.0,0.0,0.0,0.0,0.0,0.0,0.0,0.0,0.0,0.0,0.0,0.0,0.0,0.0,0.0,0.0,0.0,0.0,0.0,0.0,0.0,0.0,0.0,0.0,0.0,0.0,0.0,0.0,0.0,0.0,0.0,0.0,0.0,0.0,0.0,0.0,0.0,0.0,0.0,0.0,0.0,0.0,0.0,0.0,0.0,0.0,0.0,0.0,0.0,0.0,0.0,0.0,0.0,0.0,0.0,0.0,0.0,0.0,0.0,0.0,0.0,0.0,0.0,0.0,0.0,0.0,0.0,0.0,0.0,0.0,0.0,0.0,0.0,0.0,0.0,0.0,0.0,0.0,0.0,0.0,0.0,0.0,0.0,0.0,0.0,0.0,0.0,0.0,0.0,0.0,0.0,0.0,0.0,0.0,0.0,0.0,0.0,0.0,0.0,0.0,0.0,0.0,0.0,0.0,0.0,0.0,0.0,0.0,0.0,0.0,0.0,0.0,0.0,0.0,0.0,0.0,0.0,0.0,0.0,0.0,0.0,0.0,0.0,0.0,0.0,0.0,0.0,0.0,0.0,0.0,0.0,0.0,0.0,0.0,0.0,0.0,0.0,0.0,0.0,0.0,0.0,0.0,0.0,0.0,0.0,0.0,0.0,0.0,0.0,0.0,0.0,0.0,0.0,0.0,0.0,0.0,0.0,0.0,0.0,0.0,0.0,0.0,0.0,0.0,0.0,0.0,0.0,0.0,0.0,0.0,0.0,0.0,0.0,0.0,0.0,0.0,0.0,0.0,0.0,0.0,0.0,0.0,0.0,0.0,0.0,0.0,0.0,0.0,0.0,0.0,0.0,0.0,0.0,0.0,0.0,0.0,0.0,0.0,0.0,0.0,0.0,0.0,0.0,0.0,0.0,0.0,0.0,0.0,0.0,0.0,0.0,0.0,0.0,0.0,0.0,0.0,0.0,0.0,0.0,0.0,0.0,0.0,0.0,0.0,0.0,0.0,0.0,0.0,0.0,0.0,0.0,0.0,0.0,0.0,0.0,0.0,0.0,0.0,0.0,0.0,0.0,0.0,0.0,0.0,0.0,0.0,0.0,0.0,0.0,0.0,0.0,0.0,0.0,0.0,0.0,0.0,0.0,0.0,0.0,0.0,0.0,0.0,0.0,0.0,0.0,0.0,0.0,0.0,0.0,0.0,0.0,0.0,0.0,0.0,0.0,0.0,0.0,0.0,0.0,0.0,0.0,0.0,0.0,0.0,0.0,0.0,0.0,0.0,0.0,0.0,0.0,0.0,0.0,0.0,0.0,0.0,0.0,0.0,0.0,0.0,0.0,0.0,0.0,0.0,0.0,0.0,0.0,0.0,0.0,0.0,0.0,0.0,0.0,0.0,0.0,0.0,0.0,0.0,0.0,0.0,0.0,0.0,0.0,0.0,0.0,0.0,0.0,0.0,0.0,0.0,0.0,0.0,0.0,0.0,0.0,0.0,0.0,0.0,0.0,0.0,0.0,0.0,0.0,0.0,0.0,0.0,0.0,0.0,0.0,0.0,0.0,0.0,0.0,0.0,0.0,0.0,0.0,0.0,0.0,0.0,0.0,0.0,0.0,0.0,0.0,0.0,0.0,0.0,0.0,0.0,0.0,0.0,0.0,0.0,0.0,0.0,0.0,0.0,0.0,0.0,0.0,0.0,0.0,0.0,0.0,0.0,0.0,0.0,0.0,0.0,4.2571,4.1973,0.0,0.0,0.0,0.0,0.0,0.0,0.0,0.0,0.0,0.0,0.0,0.0,0.0,0.0,0.0,0.0,0.0,0.0,0.0,0.0,0.0,0.0,0.0,0.0,0.0,0.0,0.0,0.0,0.0,0.0,0.0,0.0,0.0,0.0,0.0,0.0,0.0,3.2788,3.3144,3.3664,3.4352,3.4307,3.3527,3.2146,0.0,0.0,0.0,0.0,0.0,0.0,0.0,0.0,0.0,0.0,0.0,0.0,0.0,0.0,0.0,0.0,0.0,0.0,0.0,0.0,0.0,0.0,0.0,0.0,0.0,0.0,0.0,0.0,0.0,0.0,0.0,0.0,0.0,0.0,0.0,0.0,0.0,0.0,0.0,0.0,0.0,0.0,0.0,0.0,0.0,0.0,0.0,0.0,0.0,0.0,0.0,0.0,0.0,0.0,0.0,0.0,0.0,0.0,0.0,0.0,0.0,0.0,0.0,0.0,0.0,0.0,0.0,0.0,0.0,0.0,4.5361,4.4061,0.0,0.0,0.0,0.0,0.0,0.0,0.0,0.0,0.0,0.0,0.0,0.0,0.0,0.0,0.0,0.0,0.0,0.0,0.0,0.0,0.0,0.0,0.0,3.2046,3.2601,3.2918,3.3357,3.3484,0.0,0.0,0.0,0.0,0.0,0.0,3.3339,3.3558,3.367,3.3678,3.4207,3.5645,3.7939,3.9031,3.8298,3.5977,3.569,0.0,0.0,0.0,0.0,0.0,0.0,0.0,0.0,0.0,0.0,0.0,0.0,0.0,0.0,0.0,0.0,0.0,0.0,0.0,0.0,0.0,0.0,0.0,0.0,0.0,0.0,0.0,0.0,0.0,0.0,0.0,0.0,0.0,0.0,0.0,0.0,0.0,0.0,0.0,0.0,0.0,0.0,0.0,0.0,0.0,0.0,0.0,0.0,0.0,0.0,0.0,0.0,0.0,0.0,0.0,0.0,0.0,0.0,0.0,0.0,0.0,0.0,0.0,5.1043,5.2113,5.2522,5.2215,5.257,5.3254,4.8926,4.7039,4.6939,4.6104,0.0,0.0,0.0,0.0,0.0,0.0,0.0,0.0,0.0,0.0,0.0,0.0,0.0,0.0,0.0,0.0,0.0,0.0,0.0,0.0,0.0,3.2824,3.3527,3.4182,3.4304,3.441,3.4523,0.0,0.0,0.0,0.0,0.0,3.3923,3.4999,3.5288,3.478,3.7389,4.0355,4.3544,4.3698,4.382,4.3681,3.9072,3.7457,3.801,0.0,0.0,0.0,0.0,0.0,0.0,0.0,0.0,0.0,0.0,0.0,0.0,0.0,0.0,0.0,0.0,0.0,0.0,0.0,0.0,0.0,0.0,0.0,0.0,0.0,0.0,0.0,0.0,0.0,0.0,0.0,0.0,0.0,0.0,0.0,0.0,0.0,0.0,0.0,0.0,0.0,4.269,4.2201,0.0,0.0,0.0,0.0,0.0,0.0,0.0,0.0,0.0,0.0,0.0,0.0,0.0,4.9812,5.2072,5.2747,5.2839,5.2488,5.3922,5.4635,5.4682,5.463,5.4759,5.4972,5.4263,0.0,4.9062,4.9425,0.0,0.0,0.0,0.0,0.0,0.0,0.0,0.0,0.0,0.0,0.0,0.0,0.0,0.0,0.0,0.0,0.0,0.0,0.0,0.0,0.0,3.4472,3.5779,3.5392,3.8688,3.9332,3.5858,3.7978,0.0,0.0,0.0,3.5108,3.4036,3.4906,3.6469,3.8717,4.2297,4.5218,4.7485,4.7855,4.7937,4.7722,4.5337,4.2444,3.9312,3.7802,0.0,0.0,0.0,0.0,0.0,0.0,0.0,0.0,0.0,0.0,0.0,0.0,0.0,0.0,0.0,0.0,0.0,0.0,0.0,0.0,0.0,0.0,0.0,0.0,0.0,0.0,0.0,0.0,0.0,0.0,0.0,0.0,0.0,0.0,0.0,0.0,0.0,0.0,0.0,4.2631,4.3948,4.256,4.3928,4.4147,0.0,0.0,0.0,0.0,0.0,0.0,0.0,0.0,0.0,5.2477,5.2773,5.3778,5.5585,5.5927,5.6272,5.6669,5.7869,5.8653,5.8993,5.962,5.9627,5.9112,5.9148,5.7384,5.427,5.189,4.9801,4.8022,0.0,0.0,0.0,0.0,4.8027,4.8535,0.0,0.0,0.0,0.0,0.0,0.0,0.0,0.0,0.0,0.0,0.0,0.0,3.3637,3.7077,3.916,3.8805,4.2688,4.3189,3.8466,3.9748,3.8951,3.5107,3.5238,3.4887,3.3834,3.5639,3.8934,4.3679,4.7188,4.9897,5.1797,5.2105,5.2105,5.1766,5.1396,4.7977,4.2372,4.0598,3.859,3.6397,0.0,0.0,0.0,0.0,0.0,0.0,0.0,0.0,0.0,0.0,0.0,0.0,0.0,0.0,0.0,0.0,0.0,0.0,0.0,0.0,0.0,0.0,0.0,0.0,0.0,0.0,0.0,0.0,0.0,0.0,0.0,0.0,0.0,0.0,0.0,0.0,0.0,4.4466,4.5753,4.3648,4.6471,4.716,0.0,0.0,0.0,0.0,0.0,0.0,5.1618,5.3396,5.5119,5.6589,5.6951,5.777,5.9212,5.9369,5.9892,6.0692,6.1894,6.2576,6.2944,6.3935,6.3753,6.2649,6.2882,6.1492,5.8794,5.4692,5.2082,5.0544,4.9608,4.89,4.8472,4.9533,5.0222,5.0746,0.0,0.0,0.0,0.0,0.0,0.0,0.0,0.0,0.0,0.0,0.0,3.4427,3.7313,4.092,4.3964,4.608,4.4737,4.3651,4.3249,3.8831,3.5947,3.5316,3.4989,3.4325,3.3261,3.8321,4.3693,4.9302,5.1405,5.4145,5.7371,5.6755,5.6816,5.734,5.5992,5.33,4.9442,4.4297,4.218,4.1844,3.6652,0.0,0.0,0.0,0.0,0.0,0.0,0.0,0.0,0.0,0.0,0.0,0.0,0.0,0.0,0.0,0.0,0.0,0.0,0.0,0.0,0.0,0.0,0.0,0.0,0.0,0.0,0.0,0.0,0.0,0.0,0.0,0.0,0.0,0.0,0.0,0.0,0.0,0.0,4.642,5.1229,0.0,0.0,0.0,0.0,5.2749,5.5234,5.6447,5.5833,5.7535,5.8716,5.9207,6.0268,6.1644,6.3397,6.3907,6.4182,6.4234,6.5449,6.5824,6.5434,6.6003,6.5503,6.4199,6.4732,6.3473,6.0867,5.8351,5.5685,5.319,5.2824,5.2178,5.1502,5.1833,5.1984,5.216,0.0,0.0,0.0,0.0,0.0,0.0,0.0,0.0,3.0369,3.1089,3.4167,3.7449,4.0392,4.5317,4.9138,5.0947,5.2168,5.1395,4.8001,4.4726,4.1974,3.9912,3.7427,3.7224,3.9661,4.3835,4.8468,5.3568,5.6484,5.8762,6.0363,6.0116,5.9686,5.9039,5.8372,5.6654,5.3889,4.8785,4.5364,4.2971,3.876,3.6406,0.0,0.0,0.0,0.0,0.0,0.0,0.0,0.0,0.0,0.0,0.0,0.0,0.0,0.0,0.0,0.0,0.0,0.0,0.0,0.0,0.0,0.0,0.0,0.0,0.0,0.0,0.0,0.0,0.0,0.0,0.0,0.0,0.0,0.0,0.0,0.0,0.0,5.2157,5.6915,0.0,5.4371,5.6192,5.7027,5.5567,5.9042,6.0631,5.9308,6.1745,6.3567,6.4325,6.5475,6.6547,6.754,6.7749,6.7689,6.7401,6.7816,6.7815,6.7337,6.7534,6.6991,6.5892,6.5756,6.4973,6.3743,6.218,5.9248,5.566,5.5225,5.4658,5.4124,5.4572,5.4963,5.5304,0.0,0.0,0.0,0.0,0.0,0.0,0.0,0.0,3.0176,3.1403,3.5487,3.9884,4.4079,4.9645,5.4057,5.6496,5.7263,5.5554,5.0752,4.6828,4.337,4.0423,3.8593,3.9776,4.4316,4.8298,5.2638,5.7414,6.0147,6.184,6.246,6.224,6.1634,6.0638,6.01,5.8971,5.7197,5.3347,4.9252,4.5031,4.1295,3.9547,3.8693,0.0,0.0,0.0,0.0,0.0,0.0,0.0,0.0,0.0,0.0,0.0,0.0,0.0,0.0,0.0,0.0,0.0,0.0,0.0,0.0,0.0,0.0,0.0,0.0,0.0,0.0,0.0,0.0,0.0,0.0,0.0,0.0,0.0,0.0,5.3084,5.6944,5.7154,6.209,6.3946,6.0146,6.1665,6.2231,6.0714,6.369,6.5053,6.3838,6.6121,6.7704,6.8261,6.9213,6.9997,7.0572,7.0401,7.0161,6.986,6.9506,6.9084,6.8609,6.8448,6.7908,6.7122,6.6919,6.6387,6.5534,6.5007,6.2722,5.9458,5.8529,5.7826,5.7399,5.775,5.8001,5.8089,0.0,0.0,0.0,0.0,0.0,0.0,0.0,2.845,2.9788,3.2022,3.6344,4.1745,4.8409,5.3856,5.8656,6.2754,5.9398,5.538,5.1479,4.4621,3.9439,3.6593,3.8463,4.1872,4.6797,5.152,5.6207,6.0948,6.2302,6.326,6.3875,6.3229,6.276,6.2429,6.1375,6.039,5.9469,5.7793,5.3892,4.8506,4.4449,4.3037,4.2951,0.0,0.0,0.0,0.0,0.0,0.0,0.0,0.0,0.0,0.0,0.0,0.0,0.0,0.0,0.0,0.0,0.0,0.0,0.0,0.0,0.0,0.0,0.0,0.0,0.0,0.0,0.0,0.0,0.0,0.0,0.0,0.0,0.0,5.1295,5.6585,6.0595,6.1433,6.664,6.8944,6.5652,6.726,6.8513,6.8376,6.9209,6.9612,6.9301,7.0462,7.102,7.0667,7.12,7.1731,7.235,7.1796,7.1506,7.1506,7.0523,6.9808,6.9315,6.8782,6.8284,6.7844,6.8396,6.7693,6.6212,6.6764,6.6079,6.4421,6.2722,6.1743,6.1291,6.1266,6.0889,6.0311,0.0,0.0,0.0,0.0,0.0,0.0,2.6962,2.8121,2.9788,3.2022,3.9051,4.6007,5.1657,5.7863,6.2769,6.5522,6.1256,5.7088,5.3856,4.6719,4.1958,4.0513,4.4055,4.8479,5.3721,5.7121,6.0713,6.4518,6.5352,6.5845,6.6029,6.5845,6.5338,6.4509,6.3571,6.2323,6.0828,5.9215,5.7066,5.4351,4.9434,4.647,4.4609,0.0,0.0,0.0,0.0,0.0,0.0,0.0,0.0,0.0,0.0,0.0,0.0,0.0,0.0,0.0,0.0,0.0,0.0,0.0,0.0,0.0,0.0,0.0,0.0,0.0,0.0,0.0,0.0,0.0,0.0,0.0,5.3114,5.6705,5.7543,6.1942,6.64,6.9961,7.3073,7.4268,7.2485,7.3291,7.2909,7.0446,7.1763,7.2081,7.0858,7.1923,7.2498,7.2402,7.2667,7.2879,7.3035,7.2496,7.2019,7.1701,7.1438,7.0886,7.0029,6.9878,6.9284,6.8396,6.8547,6.8145,6.7342,6.7518,6.7066,6.6155,6.4496,6.3743,6.3567,6.3149,6.2647,6.2079,0.0,0.0,0.0,0.0,0.0,0.0,2.6666,2.7444,2.9281,3.2767,4.0235,4.7564,5.3754,5.9284,6.3283,6.5042,6.0326,5.5536,5.147,4.6082,4.3307,4.3881,4.8877,5.3755,5.8239,6.1099,6.3902,6.6765,6.6829,6.7014,6.7291,6.6899,6.6333,6.5589,6.4748,6.3708,6.2467,6.1389,6.0436,5.9306,5.5688,5.2552,4.9614,4.5756,4.4317,4.4087,4.2013,4.2122,4.287,4.0618,0.0,0.0,0.0,0.0,0.0,0.0,0.0,0.0,0.0,0.0,0.0,0.0,0.0,0.0,0.0,0.0,0.0,0.0,0.0,0.0,0.0,0.0,0.0,0.0,5.8444,6.2989,6.5862,6.8375,7.1487,7.5856,7.7622,7.8129,7.7237,7.7105,7.5903,7.3155,7.3769,7.3829,7.2916,7.3511,7.3994,7.4229,7.4111,7.4119,7.4377,7.3867,7.3321,7.286,7.2399,7.1763,7.0932,7.0752,7.0255,6.9627,6.9401,6.8999,6.8472,6.8246,6.7819,6.7191,0.0,0.0,0.0,0.0,6.4856,6.453,0.0,0.0,0.0,0.0,0.0,0.0,2.659,2.6767,2.8653,3.3704,4.0405,4.7376,5.4312,5.8727,6.1553,6.2562,5.7662,5.2272,4.695,4.4439,4.4464,4.7481,5.3471,5.8249,6.1405,6.406,6.6339,6.8186,6.7542,6.7514,6.8097,6.7193,6.6656,6.6333,6.5636,6.4983,6.4425,6.3969,6.364,6.3317,6.1972,5.9398,5.5893,5.0953,5.0002,5.0817,4.716,4.5633,4.5155,4.4207,0.0,0.0,0.0,0.0,0.0,0.0,0.0,0.0,0.0,0.0,0.0,0.0,0.0,0.0,0.0,0.0,0.0,0.0,0.0,0.0,0.0,0.0,0.0,0.0,6.3947,6.903,7.4479,7.5011,7.602,7.9424,8.0467,8.0635,7.9855,7.906,7.7813,7.5958,7.5531,7.531,7.5212,7.5267,0.0,0.0,0.0,7.5279,7.5791,7.5287,7.4794,7.4312,7.3282,7.2565,7.2087,7.1585,7.1309,7.1158,7.0778,7.0204,6.9531,6.8979,6.8472,6.7919,6.7367,6.7191,6.7241,6.7191,6.7166,6.7091,0.0,0.0,0.0,0.0,0.0,0.0,2.6666,2.719,2.9041,3.3085,4.0527,4.6955,5.0777,5.6664,6.041,6.0622,5.5808,5.1212,4.7536,4.7107,4.9043,5.3555,5.9089,6.3192,6.5685,6.7553,6.8996,6.9945,6.9519,6.9397,6.9519,6.9306,6.9062,6.8724,6.8091,6.7576,6.7149,6.6012,6.5503,6.5323,6.3977,6.1164,5.7453,5.485,5.3084,5.1768,4.992,5.0189,5.1073,4.8267,4.8207,4.8716,4.5394,4.3898,0.0,0.0,0.0,0.0,0.0,0.0,0.0,0.0,0.0,0.0,0.0,0.0,0.0,0.0,0.0,0.0,0.0,0.0,0.0,6.3827,6.9931,7.4773,7.7095,7.9123,8.0259,7.9978,8.0998,8.0873,7.8852,7.9322,7.9065,7.7277,7.7917,7.7963,7.7068,7.7004,7.6869,7.6542,7.5603,7.5112,7.5239,7.4784,7.4492,7.4392,7.3742,0.0,7.3268,7.3167,7.2615,7.1761,7.2113,7.1686,7.0732,7.0179,6.9627,6.9029,6.8522,6.8528,6.8854,6.8472,6.8296,6.8221,0.0,0.0,0.0,0.0,0.0,0.0,2.6632,2.6683,2.8297,3.2804,3.8633,4.3775,4.7496,5.1555,5.3721,5.2976,4.9094,4.6645,4.6439,4.9829,5.4205,5.9415,6.4533,6.8022,6.9635,7.0465,7.1167,7.1651,7.1128,7.0913,7.0882,7.0725,7.0386,6.9865,6.9769,6.9463,6.8975,6.8286,6.7807,6.7448,6.6759,6.5114,6.269,5.9398,5.7543,5.6496,5.5124,5.467,5.4396,5.242,5.1738,5.1259,4.8574,4.6839,4.5364,0.0,0.0,0.0,0.0,0.0,0.0,0.0,0.0,0.0,0.0,0.0,0.0,0.0,0.0,5.1558,5.5867,0.0,6.4904,7.0468,7.4263,7.7334,7.9606,8.0845,8.1283,8.0627,8.164,8.1643,7.9858,8.0481,8.0173,7.8119,7.8735,7.8831,7.8014,7.7979,7.7888,7.7593,7.6822,7.6298,7.602,7.5775,7.5377,7.4776,7.4548,7.4272,7.3996,7.3996,7.3544,7.274,7.274,7.2263,7.146,7.0907,7.0681,7.061,7.038,7.0104,6.9828,6.9551,6.9451,6.9376,0.0,0.0,0.0,0.0,0.0,0.0,0.0,2.6319,2.7697,3.2364,3.6231,3.9999,4.3761,4.5756,4.623,4.4742,4.316,4.3614,4.6907,5.3408,5.9545,6.489,6.9726,7.2542,7.3198,7.341,7.3588,7.3786,7.3173,7.277,7.2448,7.2068,7.1578,7.1096,7.1226,7.1009,7.056,7.056,7.0171,6.9542,6.9423,6.8974,6.7958,6.3827,6.2002,6.1463,5.9877,5.7899,5.5953,5.5508,5.4132,5.2396,5.1325,4.989,4.8177,4.5783,4.3988,0.0,0.0,0.0,0.0,0.0,0.0,0.0,0.0,4.692,4.8386,5.2486,5.4581,5.7479,6.3377,6.6879,7.0859,7.6814,7.8301,7.954,8.1775,8.1944,8.1604,8.0957,8.1926,8.2166,8.0998,8.1466,8.102,7.8857,7.9359,7.94,7.863,7.8616,7.8619,7.8518,7.8014,7.7486,7.7034,7.6933,7.6431,7.5503,7.5303,7.5027,7.4724,7.4623,7.4322,7.387,7.3192,7.2514,7.1887,7.1435,7.156,7.2062,7.1937,7.151,7.0928,7.0702,7.0627,7.0526,0.0,0.0,0.0,0.0,0.0,0.0,0.0,0.0,2.85,3.1089,3.472,3.7494,3.8654,4.1271,4.232,4.0853,4.4115,4.8233,5.2908,5.9159,6.4843,6.9631,7.4285,7.6537,7.6054,7.6994,7.7331,7.6976,7.6622,7.5772,7.4556,7.3919,7.3589,7.35,7.2924,7.2654,7.2595,7.2595,7.2206,7.1517,7.0919,7.032,6.9544,6.7208,6.5233,6.3348,6.0864,5.7962,5.5414,5.5923,5.5174,5.3952,5.3778,5.3623,5.2695,4.8955,4.6052,4.3908,4.319,4.304,4.3668,4.6052,4.6381,4.7616,0.0,5.4486,5.5388,5.9937,6.2839,6.5533,6.8676,7.2774,7.6933,8.0614,8.3214,8.4283,8.2978,8.3707,8.3324,8.0486,8.1225,8.1506,8.0228,8.116,8.1286,8.0027,8.0912,8.0848,7.9252,7.9202,7.8974,7.8542,7.8014,7.7662,7.7611,7.7134,7.6808,7.6682,7.5703,7.5452,7.5903,7.5377,7.5077,7.4951,7.3946,7.2891,7.1912,7.1836,7.2138,7.2542,7.2087,7.2439,7.3092,7.2087,7.1736,7.1585,0.0,0.0,0.0,0.0,0.0,0.0,0.0,0.0,0.0,3.0277,3.2307,3.4009,3.5137,3.6005,3.6242,3.5622,4.0847,4.652,5.2075,6.0261,6.7003,7.1818,7.617,7.8062,7.71,7.7865,7.7985,7.7419,7.7081,7.6387,7.5467,7.5557,7.5407,7.5078,7.5168,7.4954,7.4629,7.424,7.3672,7.3013,7.2325,7.1667,7.0861,6.8496,6.5622,6.254,5.9907,5.7094,0.0,5.3593,5.3713,5.4072,5.3294,5.2785,5.1917,4.9105,4.6411,4.4326,4.4416,4.5334,4.6681,4.8514,5.0541,5.3174,5.7509,5.9156,6.1102,6.5712,6.8465,7.1188,7.5018,7.822,8.1242,8.4183,8.4303,8.4046,8.3992,8.2274,8.0529,7.9288,7.9297,7.9798,8.0946,8.1488,8.1452,8.0668,8.0776,8.0447,7.9402,7.9376,7.9274,7.9018,7.8792,7.8515,7.8189,7.7938,7.7511,7.6858,7.6406,7.6155,7.6104,7.5829,7.5527,7.5127,7.4071,7.3318,7.2891,7.2891,7.3016,7.3242,7.3318,7.3468,7.3468,7.2313,7.1912,7.1761,0.0,0.0,0.0,0.0,0.0,0.0,0.0,0.0,0.0,0.0,3.0615,3.1664,3.2949,3.2621,3.2395,3.2598,3.815,4.432,5.0653,6.0131,6.7852,7.321,7.7401,7.9317,7.8715,7.9162,7.9068,7.8374,7.806,7.75,7.6724,7.6963,7.6844,7.6455,7.6689,7.6539,7.6125,7.5617,7.4839,7.3851,7.3373,7.2235,7.0532,6.7718,6.3976,5.9877,5.7573,5.473,5.1774,5.0129,5.0541,5.1678,5.1259,5.093,5.0361,4.8768,4.68,4.5134,4.5274,4.7429,5.0092,5.1923,5.5269,5.8887,6.1852,6.4126,6.667,7.0739,7.3313,7.5946,7.9686,8.211,8.42,8.6099,8.5183,8.4297,8.4486,8.143,7.8829,7.8101,7.7241,7.7573,7.9776,8.0703,8.1028,8.0779,8.0396,7.9935,7.9446,7.9545,7.962,7.962,7.962,7.9419,7.8992,7.8666,7.8114,7.7335,7.7185,7.6858,7.633,7.6179,7.5753,7.5152,7.4397,7.3971,7.382,7.382,7.392,7.4071,7.4322,7.4171,7.3694,7.274,7.1934,7.1117,0.0,0.0,0.0,0.0,0.0,0.0,0.0,0.0,0.0,0.0,0.0,0.0,0.0,3.2327,3.2598,3.3311,3.7538,4.3188,5.0336,5.9485,6.7601,7.4274,7.8423,8.0935,8.1726,8.1897,8.161,8.0798,8.0764,8.0064,7.8699,7.8071,7.7771,7.7711,7.7078,7.6779,7.6749,7.6749,7.5647,7.3881,7.3881,7.1547,6.7748,6.4485,5.9994,5.5209,5.3857,5.0421,4.642,4.5723,4.5514,4.5903,4.784,4.8858,4.9217,4.8528,4.7788,4.695,4.5633,4.9075,5.3827,5.7038,6.0386,6.3916,6.7837,7.0231,7.2415,7.5168,7.7801,8.0045,8.1452,8.3846,8.5615,8.5729,8.6713,8.6601,8.4168,8.234,8.0108,7.7205,7.548,7.4716,7.5332,7.7825,7.9603,8.0166,8.0191,7.9935,7.9446,7.9896,8.0198,8.0198,8.0198,8.0173,8.0173,7.9068,7.8515,7.8465,7.7938,7.7385,7.6833,7.6355,7.5753,7.5202,7.5152,7.4826,7.4397,7.4397,7.465,7.5102,7.4623,7.4397,7.4322,7.3745,7.1899,6.96,0.0,0.0,0.0,0.0,0.0,0.0,0.0,0.0,0.0,0.0,0.0,0.0,0.0,0.0,0.0,0.0,3.6513,4.1318,4.5914,5.5776,6.325,6.7203,7.4707,7.825,7.7018,7.9328,8.0338,7.9908,7.9203,7.9062,7.9446,7.8804,7.846,7.846,7.822,7.813,7.8041,7.6754,7.6305,7.6185,7.2714,7.0532,6.8796,6.3707,5.7663,5.1415,0.0,4.4805,4.2162,4.0576,4.1235,4.284,4.3499,4.4487,4.5265,4.4577,4.6403,4.8917,5.0205,5.4401,5.9428,6.3617,6.6819,6.9842,7.3339,7.5377,7.6993,7.8789,7.9148,7.9537,8.0883,8.1586,8.2159,8.3028,8.3895,8.4309,8.388,8.1903,7.9284,7.6125,7.4895,7.386,7.2619,7.4629,7.7062,7.943,7.9251,7.95,8.0424,8.065,8.075,8.075,8.075,8.075,8.075,8.0022,7.9469,7.9093,7.8139,7.7611,7.7411,7.7235,7.7235,7.7335,7.6657,7.623,7.603,7.5653,7.5402,7.5202,7.5427,7.5276,7.468,7.274,7.0339,6.8091,0.0,0.0,0.0,0.0,0.0,0.0,0.0,0.0,0.0,0.0,0.0,0.0,0.0,0.0,0.0,0.0,0.0,3.8458,4.19,5.0574,5.7291,6.105,6.7862,7.132,7.0754,7.1965,7.289,7.357,7.3109,7.378,7.5582,7.5643,7.5886,7.6335,7.6335,7.6455,7.6574,7.4839,7.3791,7.2864,6.8555,6.5533,6.3019,5.7543,5.1804,0.0,4.1724,3.92,3.7764,3.6716,3.7841,3.9787,4.0457,4.2073,4.3688,4.3499,4.7061,5.1791,5.5119,5.9907,6.5024,6.9662,7.2774,7.5347,7.7711,7.9267,8.0105,7.9806,7.8849,7.8071,7.7981,7.7306,7.7279,7.8877,7.9704,8.0534,8.1725,7.9656,7.719,7.487,7.3363,7.2108,7.0928,7.2264,7.4675,7.8165,7.8493,7.9168,8.0597,8.1102,8.1302,8.1302,8.1302,8.1302,8.1302,8.0775,8.0223,7.967,7.854,7.8114,7.8289,7.8088,7.8189,7.8465,7.7561,7.7059,7.6833,7.633,7.5854,7.5578,7.5978,7.5259,7.3774,7.1901,6.9362,6.6824,0.0,0.0,0.0,0.0,0.0,0.0,0.0,0.0,0.0,0.0,0.0,0.0,0.0,0.0,0.0,0.0,0.0,0.0,3.8427,4.426,5.0126,5.5794,5.8573,6.1088,6.3432,6.0917,6.0664,6.2917,6.3388,6.4993,6.7633,6.8827,7.0021,7.1218,7.1188,7.1577,7.2116,7.0739,6.8046,6.4396,6.1674,5.7184,5.1588,4.701,4.318,3.9738,3.5985,3.4128,3.3544,3.4218,3.5446,3.7032,3.8973,4.1844,4.4616,4.5454,4.9942,5.5602,6.0266,6.5413,7.059,7.5078,7.813,8.0165,8.0764,8.1781,8.1699,7.834,7.6963,7.5552,7.2984,7.1584,7.1502,7.3695,7.4719,7.6018,7.8219,7.6241,7.4384,7.374,7.136,6.9978,7.0426,7.1029,7.2891,7.6632,7.7888,7.9018,8.0223,8.1277,8.1855,8.1855,8.1855,8.1855,8.1855,8.1328,8.08,8.0248,7.9143,7.8892,7.9419,7.8842,7.8591,7.8616,7.8013,7.7461,7.6959,7.6406,7.608,7.5956,7.5956,7.4217,7.1706,7.1129,6.8884,6.5751,0.0,0.0,0.0,0.0,0.0,0.0,0.0,0.0,0.0,0.0,0.0,0.0,0.0,0.0,0.0,0.0,0.0,0.0,3.5355,4.0417,4.45,4.7036,5.3476,5.6811,5.6359,5.8346,5.9604,6.0123,5.926,6.0001,6.21,6.1458,6.1583,6.2331,6.1852,6.2002,6.251,6.0713,5.9907,5.9491,5.5363,5.2522,5.0278,4.6121,4.1893,3.8015,3.7015,3.4981,3.2841,3.3514,3.6267,3.9738,4.1743,4.4287,4.716,5.0272,5.5388,6.1104,6.5742,7.1547,7.6933,7.9627,8.1512,8.2611,8.2357,8.1392,7.9627,7.6305,7.2744,6.9572,6.7387,6.7438,6.8694,7.1366,7.4343,7.7191,7.9848,7.9368,7.8007,7.6232,7.5416,7.4397,7.2891,7.4044,7.5576,7.736,7.7762,7.8917,8.1277,8.2081,8.2457,8.2457,8.2457,8.2457,8.2457,8.1905,8.1353,8.0825,8.0122,7.9871,7.9972,7.9419,7.962,8.0271,7.8917,7.8465,7.8641,7.7285,7.5484,7.3559,7.3559,7.2121,6.9755,6.7646,6.6023,6.4486,0.0,0.0,0.0,0.0,0.0,0.0,0.0,0.0,0.0,0.0,0.0,0.0,0.0,0.0,0.0,0.0,0.0,0.0,0.0,3.6725,3.9418,4.1318,4.5594,4.7979,4.8121,4.9434,5.0836,5.2248,5.146,5.2524,5.5319,5.3986,5.416,5.5576,5.4645,5.476,5.5538,5.3887,5.2899,0.0,0.0,4.5813,4.3848,4.0756,3.7943,3.5639,3.5353,3.5174,3.5459,3.7853,4.0606,4.3449,4.6022,4.9434,5.3204,5.6855,6.1942,6.7418,7.2026,7.7053,8.1302,8.2709,8.3846,8.3816,8.0823,7.9297,7.6844,7.0951,6.7419,6.4605,6.2032,6.2428,6.4527,6.8697,7.1781,7.5078,7.9222,7.917,7.8341,7.7357,7.7259,7.6657,7.5176,7.6306,7.7511,7.8365,7.8666,7.9695,8.1704,8.2357,8.2737,8.2737,8.2737,8.2737,8.2737,8.2357,8.2031,8.1729,8.07,8.0449,8.0876,8.0097,8.0097,8.0599,7.9419,7.8817,7.8514,7.63,7.4445,7.2884,7.1725,6.9993,6.7955,6.5786,6.3879,6.2012,0.0,0.0,0.0,0.0,0.0,0.0,0.0,0.0,0.0,0.0,0.0,0.0,0.0,0.0,0.0,0.0,0.0,0.0,0.0,0.0,3.5396,3.7719,3.7684,3.8483,4.0363,3.9028,3.9758,4.2696,4.2485,4.4173,4.7574,4.6417,4.7105,4.923,4.8123,4.8259,4.9291,4.8109,4.6253,4.3928,4.1673,3.8948,3.6044,0.0,3.359,3.3425,3.2946,3.513,3.9038,4.4127,4.6501,4.7975,5.1535,5.6166,6.0954,6.4425,6.8944,7.3762,7.822,8.1811,8.4346,8.4863,8.5132,8.3816,7.8095,7.6121,7.3043,6.4365,6.1647,5.9894,5.6795,5.7311,6.0185,6.6083,6.8663,7.1942,7.7809,7.7776,7.7382,7.7963,7.8088,7.7963,7.7486,7.8365,7.9193,7.9771,8.0323,8.1026,8.188,8.2407,8.2737,8.2737,8.2734,8.2734,8.2737,8.2737,8.2737,8.2658,8.1152,8.0876,8.1679,8.0675,8.0223,8.0173,7.962,7.8663,7.7279,7.465,7.3203,7.2356,6.9946,6.7855,6.5964,6.4714,6.2262,5.9495,0.0,0.0,0.0,0.0,0.0,0.0,0.0,0.0,0.0,0.0,0.0,0.0,0.0,0.0,0.0,0.0,0.0,0.0,0.0,0.0,0.0,3.5898,3.66,3.7062,3.729,3.7626,3.8007,3.8368,3.7921,3.804,3.8728,3.8489,3.8679,3.9211,3.8875,3.911,3.9768,3.9038,3.8439,3.799,3.7541,3.6344,3.4803,3.4458,3.3979,0.0,3.4009,3.5625,3.8691,4.6103,5.0504,5.3688,5.865,6.3079,6.7329,7.173,7.5168,7.837,8.1863,8.4893,8.6898,8.6449,8.4842,8.2178,7.7766,7.2624,6.6999,6.1014,5.6847,5.3717,5.1979,5.4199,5.8319,6.4626,6.8378,7.2752,7.9023,7.9327,7.9145,7.9695,8.0173,8.0371,8.0323,8.0876,8.1478,8.2056,8.2608,8.2809,8.2533,8.2608,8.2737,8.2737,8.311,8.3135,8.2683,8.2737,8.2737,8.2712,8.1905,8.1403,8.1099,8.0499,8.0223,8.0173,7.962,7.8184,7.6117,7.4761,7.1927,6.8384,6.7498,6.5573,6.3196,6.2921,6.1613,5.9881,0.0,0.0,0.0,0.0,0.0,0.0,0.0,0.0,0.0,0.0,0.0,0.0,0.0,0.0,0.0,0.0,0.0,0.0,0.0,0.0,0.0,3.4936,3.5757,3.6129,3.6037,3.7148,3.7837,3.8091,0.0,3.8014,3.8692,3.7309,3.7061,3.7707,3.6662,3.647,3.6921,3.6353,3.602,3.5968,3.5968,3.5386,3.4503,3.4503,3.4308,0.0,3.4787,3.6926,4.0277,4.5475,5.1678,5.8321,6.4276,6.9363,7.3732,7.6993,8.0075,8.2888,8.5162,8.7736,8.9412,8.8065,8.5261,8.104,7.43,6.8435,6.245,5.5418,5.2657,5.1178,5.0175,5.2963,5.6983,6.1871,6.4756,6.8849,7.6013,7.6347,7.6984,7.9871,8.0926,8.1553,8.1855,8.2382,8.2909,8.3487,8.3763,8.3813,8.3537,8.3537,8.3537,8.3537,8.4064,8.4089,8.3537,8.3537,8.3537,8.3512,8.2357,8.1679,8.1403,8.0574,8.0047,7.9719,7.8226,7.6756,7.526,7.2385,6.9997,6.7876,6.5475,6.4131,6.3342,6.1771,6.0692,5.9897,0.0,0.0,0.0,0.0,0.0,0.0,0.0,0.0,0.0,0.0,0.0,0.0,0.0,0.0,0.0,0.0,0.0,0.0,0.0,0.0,0.0,0.0,0.0,0.0,3.56,0.0,0.0,3.8088,3.822,0.0,0.0,0.0,0.0,0.0,3.659,3.6089,3.6384,3.5897,3.5621,0.0,0.0,3.531,3.4697,0.0,0.0,0.0,0.0,3.7793,4.1074,4.4556,5.1289,5.9338,6.5951,7.2535,7.816,7.9866,8.3217,8.6629,8.7975,9.004,9.1357,8.9382,8.5162,7.9267,7.0739,6.4545,5.8447,5.0732,4.9453,4.958,4.9077,5.1786,5.5302,5.8941,6.1029,6.4919,7.266,7.3439,7.5027,7.9972,8.1503,8.2407,8.296,8.3412,8.3889,8.4411,8.4592,8.4567,8.4315,8.4512,8.4567,8.4315,8.4813,8.4838,8.4315,8.416,8.416,8.4261,8.2734,8.198,8.1955,8.0876,7.9812,7.8742,7.6983,7.5368,7.3645,7.0044,6.8352,6.7672,6.417,6.3265,6.3695,6.1302,6.0218,5.9833,0.0,0.0,0.0,0.0,0.0,0.0,0.0,0.0,0.0,0.0,0.0,0.0,0.0,0.0,0.0,0.0,0.0,0.0,0.0,0.0,0.0,0.0,0.0,0.0,0.0,0.0,0.0,3.5811,3.6588,0.0,0.0,0.0,0.0,0.0,0.0,3.5898,3.5784,3.572,0.0,0.0,0.0,0.0,0.0,0.0,0.0,0.0,0.0,3.6985,3.8721,4.5005,4.9314,5.318,5.982,6.9243,7.7981,7.8759,8.3457,8.8693,8.9969,9.1416,9.2045,9.0111,8.3427,7.5736,6.9481,6.1732,5.4479,4.9658,4.7881,4.7242,4.7314,4.9447,5.2485,5.647,5.9579,6.4062,7.1505,7.3984,7.6607,8.1127,8.2658,8.3562,8.4085,8.4215,8.4411,8.4988,8.5515,8.5395,8.4336,8.5264,8.534,8.4341,8.4813,8.4838,8.4315,8.3813,8.3813,8.4315,8.3135,8.2583,8.2611,8.1453,7.9494,7.6941,7.7156,7.454,7.0089,6.973,6.7988,6.5373,6.4181,6.3099,6.2189,6.1916,6.098,5.9724,0.0,0.0,0.0,0.0,0.0,0.0,0.0,0.0,0.0,0.0,0.0,0.0,0.0,0.0,0.0,0.0,0.0,0.0,0.0,0.0,0.0,0.0,0.0,0.0,0.0,0.0,3.6321,3.6275,3.7505,0.0,0.0,0.0,0.0,0.0,0.0,3.7575,3.695,3.66,0.0,0.0,0.0,0.0,0.0,0.0,0.0,0.0,0.0,0.0,3.7764,4.0038,4.4137,4.8514,4.9972,5.7842,6.7867,7.448,8.0591,8.589,8.9142,9.2194,9.3631,9.05,8.3487,7.5557,6.8435,6.027,5.2901,4.8381,4.7197,4.704,4.7081,4.826,5.0098,5.2744,5.3855,5.6908,6.4261,6.6127,6.9652,7.7411,7.9319,8.1277,8.4491,8.4762,8.5013,8.5591,8.5847,8.5822,8.5345,8.5747,8.5766,8.5345,8.5515,8.5515,8.5345,8.4742,8.4567,8.4762,8.401,8.3311,8.2633,8.0414,7.8597,7.6964,7.3691,7.1417,6.9904,6.8202,6.6905,6.5845,6.4276,6.3462,6.3007,6.1593,6.0854,6.0508,0.0,0.0,0.0,0.0,0.0,0.0,0.0,0.0,0.0,0.0,0.0,0.0,0.0,0.0,4.0405,3.4077,0.0,0.0,0.0,0.0,0.0,0.0,0.0,0.0,0.0,0.0,3.6547,3.6795,3.807,3.878,0.0,0.0,3.9825,3.9812,0.0,0.0,0.0,0.0,0.0,0.0,0.0,0.0,0.0,0.0,0.0,0.0,0.0,0.0,0.0,0.0,0.0,4.4117,4.3329,4.8566,5.7184,6.8197,7.628,8.2627,8.7267,9.1386,9.3601,9.0219,8.3098,7.4958,6.7448,5.9222,5.1994,4.765,4.6957,4.7109,4.7161,4.8008,4.9087,5.0315,5.0922,5.3383,5.9689,6.1514,6.53,7.3642,7.5552,7.8139,8.296,8.4587,8.5515,8.5998,8.5998,8.5998,8.5998,8.5998,8.5998,8.5998,8.5998,8.5998,8.5998,8.5244,8.4913,8.5089,8.424,8.3512,8.283,7.9764,7.7682,7.6355,7.1551,6.949,6.9316,6.7162,6.6208,6.5895,6.4232,6.3492,6.3089,6.1423,6.0918,6.1015,0.0,0.0,0.0,0.0,0.0,0.0,0.0,0.0,0.0,0.0,0.0,4.7921,4.7921,4.2625,3.9017,3.8949,0.0,0.0,0.0,0.0,0.0,0.0,0.0,0.0,0.0,0.0,0.0,0.0,3.755,3.8294,3.9005,3.912,3.9189,3.9176,0.0,0.0,0.0,0.0,0.0,0.0,0.0,0.0,0.0,0.0,0.0,0.0,0.0,0.0,0.0,0.0,0.0,0.0,0.0,4.3798,4.7788,5.9725,7.0652,7.9836,8.4474,8.8634,9.1177,8.9202,8.1751,7.3163,6.6519,5.8601,5.1526,4.7669,4.7,4.7162,4.7271,4.8721,4.9871,4.9897,5.2646,5.6095,5.9971,6.279,6.6155,7.0606,7.2113,7.4523,7.9018,8.3412,8.5998,8.5998,8.5998,8.5998,8.5998,8.5998,8.5998,8.5998,8.5998,8.5998,8.5998,8.4893,8.4567,8.5089,8.3487,8.296,8.3382,7.9802,7.6946,7.4588,7.2065,6.9678,6.7499,6.6985,6.6077,6.4822,6.3937,6.2843,6.1719,6.1719,6.1426,6.1094,0.0,0.0,0.0,0.0,0.0,0.0,0.0,0.0,0.0,0.0,4.2895,4.3538,4.6128,4.1982,3.9208,3.9703,0.0,0.0,0.0,0.0,0.0,0.0,0.0,0.0,0.0,0.0,0.0,0.0,0.0,0.0,3.9762,4.0327,4.0303,3.9799,3.9631,3.9008,0.0,0.0,0.0,0.0,0.0,0.0,3.7614,0.0,0.0,0.0,0.0,0.0,0.0,0.0,0.0,0.0,0.0,0.0,0.0,5.0953,6.0745,7.038,7.5018,7.9477,8.1961,7.819,7.2984,6.7328,6.1584,5.5708,5.0569,4.7547,4.678,4.6813,4.7207,4.8094,4.9374,5.1361,5.275,5.4688,5.786,6.2223,6.6815,7.1707,7.854,8.3462,8.4843,8.6274,8.7103,8.7103,8.6751,8.6525,8.6525,8.6174,8.5822,8.542,8.5766,8.5646,8.4843,8.4838,8.4737,8.4567,8.4064,8.2675,8.0472,7.7656,7.4876,7.2078,6.9335,6.7911,6.744,6.6985,6.6077,6.4842,6.4297,6.328,6.2129,6.1836,6.1602,6.1484,0.0,0.0,0.0,0.0,0.0,0.0,0.0,0.0,0.0,3.7584,3.8103,3.9525,4.3572,3.9749,3.7741,3.9893,0.0,0.0,0.0,0.0,0.0,0.0,0.0,0.0,0.0,0.0,0.0,0.0,0.0,0.0,0.0,0.0,4.2455,4.0912,4.0912,4.0113,0.0,0.0,0.0,0.0,0.0,0.0,3.7315,0.0,0.0,0.0,0.0,0.0,0.0,0.0,0.0,0.0,0.0,0.0,0.0,0.0,5.2456,6.0266,6.7358,7.2475,7.5078,7.1933,6.8165,6.3917,5.889,5.4015,4.9925,4.7673,4.6839,4.6737,4.7519,4.812,4.9191,5.1178,5.2182,5.369,5.6565,6.1059,6.6212,7.2062,7.9695,8.4742,8.5345,8.6751,8.7605,8.7605,8.7103,8.6776,8.6776,8.6274,8.5646,8.4813,8.534,8.532,8.4587,8.4512,8.4341,8.3989,8.269,8.1021,7.8995,7.55,7.2957,7.1203,6.8492,6.7378,0.0,6.673,6.5761,6.4601,6.3925,6.3085,6.207,6.1836,6.1719,6.166,0.0,0.0,0.0,0.0,0.0,0.0,0.0,0.0,0.0,0.0,0.0,3.5938,4.0121,3.6231,0.0,0.0,0.0,0.0,0.0,0.0,0.0,0.0,0.0,0.0,0.0,0.0,0.0,0.0,4.3064,4.464,4.6887,0.0,0.0,0.0,4.2401,4.1117,0.0,0.0,0.0,0.0,0.0,0.0,0.0,0.0,0.0,0.0,0.0,0.0,0.0,0.0,0.0,0.0,0.0,0.0,0.0,0.0,0.0,0.0,0.0,6.6759,6.9542,6.8793,6.5862,6.1913,5.7524,5.3065,0.0,4.7912,4.7056,4.692,4.8041,4.8698,4.9244,4.9949,5.1335,5.3238,5.6018,6.0033,6.5358,7.2467,7.7285,8.0524,8.1955,8.5496,8.7705,8.7705,8.7178,8.6851,8.6776,8.6249,8.542,8.4341,8.4737,8.4993,8.4913,8.4014,8.3512,8.3412,8.0038,7.8521,7.8495,7.3405,7.1196,7.1197,6.9022,6.773,6.7137,6.6156,6.5105,6.4022,6.3058,6.2243,6.1719,6.1719,6.1719,6.1719,0.0,0.0,0.0,0.0,0.0,0.0,0.0,0.0,0.0,0.0,0.0,3.3207,3.428,3.3298,0.0,0.0,0.0,0.0,0.0,0.0,0.0,0.0,0.0,0.0,0.0,0.0,0.0,4.1474,4.3369,4.5466,4.765,4.824,0.0,0.0,0.0,0.0,0.0,0.0,0.0,0.0,0.0,0.0,0.0,0.0,0.0,0.0,3.658,3.6746,0.0,0.0,0.0,0.0,0.0,0.0,0.0,0.0,4.4715,4.7031,5.1732,0.0,5.7842,5.6675,5.5299,5.3605,0.0,4.9911,4.8662,4.6902,4.6861,4.7492,4.8669,4.8646,4.9165,5.1518,5.2667,5.3994,5.6165,6.4029,7.2087,7.8867,8.3211,8.5496,8.5069,8.7354,8.8885,8.8885,8.7956,8.7203,8.6833,8.5847,8.4988,8.4315,8.401,8.3688,8.3261,8.3838,8.3688,8.2859,8.0155,7.7593,7.5166,7.2387,6.956,6.6859,6.6695,6.5905,6.4742,6.4447,6.3678,6.2505,6.2271,6.1967,6.1719,6.1719,6.1719,6.166,0.0,0.0,0.0,0.0,0.0,0.0,0.0,0.0,0.0,0.0,0.0,0.0,0.0,0.0,0.0,0.0,0.0,0.0,0.0,0.0,0.0,0.0,0.0,0.0,0.0,0.0,0.0,0.0,0.0,4.7105,0.0,0.0,0.0,0.0,0.0,0.0,0.0,0.0,0.0,0.0,3.7089,0.0,0.0,0.0,0.0,0.0,3.6281,3.6507,0.0,3.911,3.9619,3.9469,0.0,0.0,0.0,0.0,4.4018,4.5663,4.7429,5.0331,5.2665,5.1917,5.1468,5.0762,4.9084,4.8574,4.8089,4.686,4.696,4.7568,4.8512,4.8498,4.9064,5.133,5.2059,5.4108,5.9097,6.6369,7.372,8.0624,8.3989,8.6098,8.7027,8.8433,8.9187,8.8935,8.7856,8.7002,8.645,8.534,8.4491,8.3964,8.3889,8.3487,8.2737,8.3261,8.2498,8.0277,7.7897,7.5217,7.2325,6.9685,6.7444,6.5722,6.5456,6.4819,6.3859,6.333,6.2645,6.1957,6.169,6.1637,6.1719,6.1719,6.1719,6.166,0.0,0.0,0.0,0.0,0.0,0.0,0.0,0.0,0.0,0.0,0.0,0.0,0.0,0.0,0.0,0.0,0.0,0.0,0.0,0.0,0.0,0.0,0.0,0.0,0.0,0.0,0.0,0.0,0.0,0.0,0.0,0.0,0.0,0.0,0.0,0.0,0.0,0.0,0.0,0.0,3.6985,0.0,0.0,0.0,0.0,0.0,0.0,0.0,0.0,3.92,4.0068,4.0427,4.1463,0.0,0.0,0.0,0.0,0.0,4.6749,4.9082,5.1116,5.0817,5.0757,5.0358,4.8735,4.8031,4.7622,4.7108,4.7169,4.7542,4.8244,4.8637,4.9352,5.0845,5.1743,5.5198,6.3599,6.824,7.3293,8.0045,8.2658,8.4918,8.7611,8.8692,8.8943,8.8283,8.7278,8.6425,8.5772,8.4667,8.3813,8.3261,8.3612,8.3336,8.2307,8.2533,8.093,7.7463,7.5101,7.2626,7.0074,6.6845,6.5536,6.5603,6.4619,6.3904,6.3383,6.2268,6.1777,6.1724,6.1207,6.1308,6.1719,6.1719,6.166,6.1543,0.0,0.0,0.0,0.0,0.0,0.0,0.0,0.0,0.0,0.0,0.0,0.0,0.0,0.0,0.0,0.0,0.0,0.0,0.0,0.0,0.0,0.0,0.0,0.0,0.0,0.0,0.0,0.0,0.0,0.0,5.2367,5.6071,5.4143,0.0,0.0,0.0,0.0,0.0,0.0,0.0,3.6816,0.0,0.0,0.0,0.0,0.0,0.0,0.0,0.0,3.7734,3.8614,3.9481,3.911,0.0,0.0,0.0,0.0,0.0,4.965,5.0817,5.0787,4.9164,4.8768,4.8481,4.7478,4.7147,4.6975,4.6641,4.6979,4.769,4.8984,4.9889,5.0892,5.2252,5.5863,6.1081,6.8631,7.1645,7.4875,7.9771,8.3462,8.542,8.4993,8.7178,8.8189,8.7128,8.6506,8.5671,8.4642,8.3537,8.2658,8.2081,8.1729,8.1227,8.0599,8.198,8.093,7.7463,7.507,7.2265,6.9212,6.6571,6.4811,6.3797,6.3122,6.2258,6.1312,6.0589,6.0464,6.0661,6.0508,6.1015,6.1719,6.1719,6.1484,6.1133,0.0,0.0,0.0,0.0,0.0,0.0,0.0,0.0,0.0,0.0,0.0,0.0,0.0,0.0,0.0,0.0,0.0,0.0,0.0,0.0,0.0,0.0,0.0,0.0,0.0,0.0,0.0,0.0,0.0,5.4228,5.6494,5.5327,5.2114,4.7158,0.0,0.0,0.0,0.0,0.0,0.0,0.0,0.0,0.0,0.0,0.0,0.0,0.0,0.0,0.0,0.0,3.9122,3.9888,3.9589,0.0,0.0,0.0,0.0,0.0,4.8574,4.9613,5.0032,4.9494,4.9683,4.9529,4.7564,4.7301,4.7403,4.6992,4.7388,4.8212,4.9567,5.1284,5.3641,5.7197,6.1779,6.6188,6.9994,7.2785,7.603,8.0173,8.2759,8.4592,8.5571,8.7103,8.7529,8.6425,8.5847,8.5013,8.3914,8.2809,8.2081,8.1805,8.1302,8.0723,8.0223,7.9441,7.7639,7.4719,7.2445,6.9725,6.667,6.5063,6.3983,6.3362,6.2175,6.1342,6.0849,6.0158,6.0109,6.0449,6.0683,6.1133,6.1719,6.1719,6.1308,6.0665,0.0,0.0,0.0,0.0,0.0,0.0,0.0,0.0,0.0,0.0,0.0,0.0,0.0,0.0,0.0,0.0,0.0,0.0,0.0,0.0,0.0,0.0,0.0,0.0,0.0,0.0,0.0,5.0067,5.416,5.778,6.0791,5.5124,5.0642,0.0,0.0,0.0,0.0,0.0,0.0,0.0,0.0,0.0,0.0,0.0,0.0,0.0,0.0,0.0,0.0,0.0,0.0,0.0,0.0,0.0,0.0,4.3878,4.4954,4.6779,4.7908,4.8955,4.9897,5.0596,5.1213,5.1154,4.925,4.9036,4.9218,4.9144,4.9296,4.9754,5.0809,5.3472,5.7244,6.2583,6.7223,7.066,7.2055,7.4724,7.7787,8.1202,8.2708,8.432,8.6431,8.7002,8.6776,8.5671,8.5069,8.424,8.316,8.2156,8.1579,8.1428,8.0926,8.0112,7.9043,7.6323,7.4111,7.2371,6.9892,6.7247,6.4542,6.3735,6.3356,6.3162,6.1558,6.0919,6.0829,6.0017,5.9922,6.0332,6.0781,6.125,6.1719,6.1484,6.1016,6.049,0.0,0.0,0.0,0.0,0.0,0.0,0.0,0.0,0.0,0.0,0.0,0.0,0.0,0.0,0.0,0.0,0.0,0.0,0.0,0.0,0.0,0.0,0.0,0.0,0.0,4.636,4.868,5.3179,5.8321,6.167,6.3139,5.8558,5.3687,4.8714,0.0,0.0,0.0,0.0,0.0,0.0,3.8306,0.0,0.0,0.0,0.0,0.0,0.0,0.0,0.0,0.0,0.0,0.0,0.0,0.0,4.5155,4.4436,4.5642,4.7788,5.0249,5.0996,5.1262,5.2214,5.2289,5.2412,5.336,5.3273,5.322,5.4331,5.3739,5.312,5.3412,5.7158,6.1863,6.6822,7.0717,7.4223,7.7461,7.9418,8.1224,8.311,8.4767,8.5847,8.6023,8.6098,8.5646,8.4491,8.3914,8.311,8.198,8.1403,8.085,8.0348,7.9796,7.8238,7.5569,7.3174,7.215,7.2371,6.9181,6.6376,6.4108,6.3611,6.319,6.2666,6.1436,6.0919,6.0829,5.9721,5.9473,5.9865,6.0275,6.0957,6.1601,6.0782,6.0742,6.0859,0.0,0.0,0.0,0.0,0.0,0.0,0.0,0.0,0.0,0.0,0.0,0.0,0.0,0.0,0.0,0.0,0.0,0.0,0.0,0.0,0.0,0.0,0.0,4.2442,4.6041,4.9729,5.4296,5.9723,6.3531,6.4512,6.2685,5.6799,0.0,0.0,0.0,0.0,0.0,0.0,0.0,0.0,0.0,0.0,0.0,0.0,0.0,0.0,0.0,0.0,0.0,0.0,4.0068,4.1283,4.0606,4.2641,4.5095,4.3997,4.5104,4.6988,4.8394,5.0272,5.2001,5.2793,5.4751,5.619,5.4986,5.5111,5.5889,5.7464,5.8,5.8433,5.931,6.2309,6.5985,7.0165,7.4071,7.7486,8.0173,8.1729,8.306,8.4336,8.5069,8.5596,8.5942,8.5671,8.5089,8.4336,8.3487,8.2633,8.1855,8.1001,8.0273,7.9721,7.78,7.6095,7.4705,7.0696,6.8931,6.9345,6.636,6.4476,6.3632,6.3176,6.268,6.2076,6.1022,6.0457,6.0274,5.9515,5.9414,5.9863,6.0273,6.0625,6.0841,6.049,6.0314,6.0215,0.0,0.0,0.0,0.0,0.0,0.0,0.0,0.0,0.0,0.0,0.0,0.0,0.0,0.0,0.0,0.0,0.0,0.0,0.0,0.0,0.0,0.0,0.0,4.2692,4.665,5.257,5.7881,6.2429,6.6102,6.5628,6.1197,0.0,0.0,0.0,0.0,0.0,0.0,0.0,0.0,0.0,0.0,0.0,0.0,0.0,0.0,0.0,0.0,0.0,0.0,0.0,4.0786,4.1703,4.1654,4.3329,4.5155,4.4446,4.5373,4.6749,4.7429,4.9404,5.1517,5.2377,5.5068,5.75,5.7528,5.8482,5.9961,6.1979,6.2417,6.2839,6.4088,6.5827,6.8454,7.2602,7.635,7.962,8.2005,8.316,8.401,8.4737,8.4988,8.5164,8.542,8.4913,8.4391,8.3838,8.2934,8.2081,8.1353,8.0449,7.9695,7.9143,7.6406,7.4368,7.309,6.8843,6.6375,6.5734,6.3695,6.2983,6.3362,6.2921,6.2351,6.1747,6.0872,6.0307,5.9957,5.9246,5.9104,5.9453,5.9863,6.0098,6.0197,6.0197,6.0099,5.998,0.0,0.0,0.0,0.0,0.0,0.0,0.0,0.0,0.0,0.0,0.0,0.0,0.0,0.0,0.0,0.0,0.0,0.0,0.0,0.0,0.0,0.0,0.0,4.2875,4.8781,5.4769,5.8592,6.0148,6.5324,6.4783,5.8878,5.5919,0.0,0.0,0.0,0.0,0.0,0.0,0.0,0.0,0.0,4.0012,3.8775,0.0,0.0,0.0,0.0,0.0,0.0,0.0,4.1852,4.265,4.3898,4.4766,4.5454,4.6091,4.6779,4.7459,4.8117,4.8798,4.9637,5.0992,5.272,5.5595,6.1483,6.3974,6.5754,6.8334,6.707,6.5838,6.7023,6.7295,6.9002,7.4081,7.7431,8.0348,8.311,8.3989,8.4315,8.4315,8.4762,8.4893,8.4336,8.3813,8.3261,8.2708,8.2131,8.1328,8.0273,7.967,7.9118,7.8515,7.5768,7.3014,7.0173,6.7478,6.4746,6.1963,6.1508,6.2058,6.3362,6.2866,6.2351,6.1767,6.116,6.0532,5.9881,5.8893,5.848,5.8538,5.9004,5.9414,5.9805,5.9805,6.0039,6.0255,0.0,0.0,0.0,0.0,0.0,0.0,0.0,0.0,0.0,0.0,0.0,0.0,0.0,0.0,0.0,0.0,0.0,0.0,0.0,0.0,0.0,0.0,0.0,0.0,0.0,0.0,5.5987,6.4816,6.3768,6.0723,0.0,0.0,0.0,4.7022,0.0,0.0,0.0,0.0,0.0,0.0,0.0,4.0781,3.9645,0.0,0.0,0.0,0.0,0.0,0.0,0.0,0.0,0.0,4.3489,4.5364,4.707,4.5373,4.6711,4.8648,4.8379,4.9561,5.1328,5.3321,5.6336,5.9826,6.374,6.4957,6.6864,7.2516,7.2263,7.1097,7.1358,7.188,7.2988,7.5168,7.8014,8.08,8.316,8.3638,8.3889,8.424,8.4411,8.4341,8.3788,8.3236,8.2683,8.2106,8.1202,8.0373,7.967,7.9093,7.834,7.7385,7.319,7.0374,6.9191,6.4867,6.2342,6.1487,6.1363,6.1673,6.2431,6.1851,6.1441,6.112,6.0232,5.9699,5.9364,5.8786,5.8304,5.8086,5.8203,5.8535,5.887,5.887,5.918,5.9531,0.0,0.0,0.0,0.0,0.0,0.0,0.0,0.0,0.0,0.0,0.0,0.0,0.0,0.0,0.0,0.0,0.0,0.0,0.0,0.0,0.0,0.0,0.0,0.0,0.0,4.824,5.4296,0.0,0.0,0.0,0.0,0.0,0.0,4.9357,0.0,5.2029,0.0,0.0,0.0,4.5179,4.3953,4.2859,4.1942,0.0,0.0,0.0,0.0,0.0,0.0,0.0,0.0,0.0,4.3997,4.5642,4.7339,4.6531,4.7227,4.8397,4.9024,4.9945,5.1432,5.4233,5.7744,6.1795,6.665,6.9036,7.1449,7.5891,7.5818,7.5108,7.5258,7.5128,7.5543,7.7228,7.9173,8.1227,8.3211,8.3487,8.3612,8.3909,8.3788,8.3437,8.2884,8.2332,8.1779,8.1227,8.0373,7.9645,7.9068,7.8289,7.7108,7.5382,7.1327,6.8525,6.7093,6.309,6.1085,6.1085,6.0899,6.0884,6.1123,6.1094,6.0901,6.0512,5.9699,5.9063,5.8652,5.8379,5.791,5.7383,5.7539,5.7793,5.8011,5.8363,5.8711,5.8945,0.0,0.0,0.0,0.0,0.0,0.0,0.0,0.0,0.0,0.0,0.0,0.0,0.0,0.0,0.0,0.0,0.0,0.0,0.0,0.0,0.0,0.0,0.0,0.0,0.0,0.0,0.0,0.0,0.0,0.0,0.0,0.0,5.5175,5.482,0.0,5.9268,0.0,5.4663,5.188,4.7309,4.6168,4.5344,4.4607,4.3004,0.0,0.0,0.0,0.0,0.0,0.0,0.0,0.0,4.5095,4.5903,4.6899,4.8618,4.8135,4.7566,4.9977,5.028,5.0851,5.4669,5.8483,6.3132,7.0199,7.4859,7.7875,7.8387,7.8194,7.813,7.8545,7.7419,7.7252,7.9784,8.071,8.1704,8.3211,8.3412,8.3412,8.3336,8.2884,8.2332,8.1729,8.1202,8.065,8.0097,7.9545,7.8992,7.8415,7.736,7.5608,7.2904,7.0074,6.7284,6.463,6.2011,6.063,6.0609,6.0195,5.99,5.9715,6.053,6.0486,5.9802,5.9322,5.8613,5.7926,5.7867,5.7344,5.668,5.7012,5.7187,5.7324,5.8144,5.8476,5.8594,0.0,0.0,0.0,0.0,0.0,0.0,0.0,0.0,0.0,0.0,0.0,0.0,0.0,0.0,0.0,0.0,0.0,0.0,0.0,0.0,0.0,0.0,0.0,0.0,0.0,0.0,0.0,0.0,0.0,0.0,0.0,0.0,0.0,5.4753,0.0,5.7509,5.3551,5.0729,4.7814,4.5106,4.5096,4.4372,4.3208,4.2633,4.1643,0.0,0.0,0.0,0.0,0.0,0.0,0.0,4.5095,4.6852,4.8528,4.7908,4.865,5.0006,5.1363,5.2043,5.3636,5.9042,6.5397,7.1081,7.4093,7.7211,7.9359,7.9054,8.0379,8.1356,8.0596,8.0881,8.1152,8.0859,8.1657,8.2432,8.2809,8.2859,8.2683,8.2231,8.2056,8.1604,8.065,8.0072,7.9495,7.8917,7.8365,7.7812,7.726,7.6657,7.5037,7.2275,6.9185,6.6424,6.4178,6.1473,6.0133,6.0133,6.005,5.969,5.9108,5.929,5.9018,5.8364,5.8219,5.8082,5.7851,5.75,5.7246,5.7051,5.6816,5.6914,5.7285,5.7793,5.8242,5.8594,0.0,0.0,0.0,0.0,0.0,0.0,0.0,0.0,0.0,0.0,0.0,0.0,0.0,0.0,0.0,0.0,0.0,0.0,0.0,0.0,0.0,0.0,0.0,0.0,0.0,0.0,0.0,0.0,0.0,0.0,0.0,0.0,0.0,5.6867,0.0,5.8829,5.3923,5.2201,4.9768,4.6953,4.6503,4.6149,4.5677,4.3949,4.2671,4.1784,4.1852,0.0,0.0,0.0,0.0,0.0,0.0,0.0,4.9277,4.9194,4.9616,5.0456,5.2202,5.3536,5.6198,6.3405,6.9647,7.4414,7.6166,7.8361,8.0008,7.9982,8.1399,8.2573,8.2264,8.2251,8.2048,8.1506,8.1679,8.188,8.188,8.188,8.1779,8.1478,8.1202,8.0825,8.0273,7.9469,7.8842,7.8489,7.7762,7.7059,7.6556,7.5954,7.3848,6.9813,6.8095,6.5531,6.2139,6.0699,5.9988,5.9988,5.9988,5.9514,5.8593,5.8477,5.8254,5.7926,5.7926,5.7734,5.7539,5.7539,5.7285,5.6914,5.6894,5.6894,5.6973,5.7383,5.7695,5.7953,0.0,0.0,0.0,0.0,0.0,0.0,0.0,0.0,0.0,0.0,0.0,0.0,0.0,0.0,0.0,0.0,0.0,0.0,0.0,0.0,0.0,0.0,0.0,0.0,0.0,0.0,0.0,0.0,0.0,0.0,0.0,0.0,0.0,5.9689,0.0,0.0,5.4938,5.4209,5.2017,4.8932,4.7834,4.7829,4.8117,4.523,0.0,4.3399,4.278,4.3359,4.4506,4.4745,0.0,0.0,0.0,0.0,4.9696,5.087,5.0613,5.0493,5.3074,5.5728,5.9617,6.7327,7.2271,7.5591,7.7153,7.8858,8.0348,8.0923,8.1946,8.2855,8.3135,8.2502,8.1891,8.1679,8.1328,8.0974,8.0974,8.0974,8.0948,8.0848,8.0398,8.0022,7.9921,7.8817,7.8088,7.8088,7.7084,7.6256,7.5853,7.5251,7.2544,6.7337,6.7122,6.477,6.0041,5.9988,5.9988,5.9988,5.9779,5.9128,5.8145,5.7811,5.7691,5.7691,5.7691,5.748,5.7226,5.7519,5.7265,5.6719,5.6992,5.6894,5.664,5.7051,5.7207,5.7344,0.0,0.0,0.0,0.0,0.0,0.0,0.0,0.0,0.0,0.0,0.0,0.0,0.0,0.0,0.0,0.0,0.0,0.0,3.2124,0.0,0.0,4.1068,4.2713,0.0,0.0,0.0,0.0,0.0,0.0,0.0,0.0,0.0,0.0,0.0,0.0,0.0,0.0,5.0389,4.7173,4.5947,4.5481,4.5334,4.5245,0.0,0.0,0.0,4.3429,4.4047,4.5334,4.6501,4.707,0.0,0.0,0.0,5.0219,5.0966,5.1208,5.1914,5.4862,6.0213,6.5983,7.0047,7.3735,7.6584,7.7336,7.922,8.0923,8.1573,8.2574,8.3107,8.2213,8.2313,8.2281,8.1285,8.1024,8.0974,8.0974,8.0974,8.085,8.0373,7.9821,7.9294,7.8792,7.731,7.6431,7.6431,7.5352,7.4724,7.4649,7.4121,7.1761,6.7314,6.6727,6.4436,6.0041,5.9988,5.9988,5.9988,5.899,5.8178,5.7488,5.702,5.6758,5.6758,5.6758,5.6933,5.7187,5.6875,5.6894,5.709,5.6797,5.664,5.664,5.7051,5.7207,5.7344,0.0,0.0,0.0,0.0,0.0,0.0,0.0,0.0,0.0,0.0,0.0,0.0,0.0,0.0,0.0,3.1234,3.1572,3.2486,3.4066,3.5802,3.7934,4.0481,4.1597,4.2476,4.3166,0.0,0.0,0.0,0.0,0.0,0.0,5.6325,5.9742,0.0,0.0,0.0,0.0,0.0,0.0,4.7252,4.6471,4.6432,0.0,0.0,0.0,0.0,0.0,0.0,4.6501,4.71,4.8005,4.9022,4.962,0.0,0.0,0.0,5.2356,5.3935,5.8211,6.2557,6.6936,7.1281,7.4022,7.6061,7.7603,7.8962,8.0213,8.1129,8.1668,8.21,8.229,8.1491,8.077,8.0576,7.9771,7.9269,7.9543,7.9568,7.9419,7.8867,7.8867,7.8691,7.8114,7.7134,7.6431,7.6129,7.5327,7.4598,7.3996,7.372,7.1467,6.69,6.652,6.4236,5.9647,5.9595,5.9439,5.9126,5.8532,5.7966,5.7362,5.6849,5.6582,5.6582,5.6582,5.668,5.6855,5.6914,5.6914,5.6855,5.6914,5.6797,5.6601,5.6797,5.6855,5.6992,0.0,0.0,0.0,0.0,0.0,0.0,0.0,0.0,0.0,0.0,0.0,0.0,0.0,0.0,0.0,0.0,3.2148,3.3355,3.5205,3.64,3.7833,3.9466,4.0426,4.0933,4.0933,0.0,0.0,0.0,0.0,0.0,5.5784,5.8761,6.2854,0.0,6.1839,0.0,0.0,0.0,0.0,0.0,0.0,0.0,0.0,0.0,0.0,0.0,0.0,0.0,4.7818,4.7997,4.9112,5.0465,5.0667,5.1505,0.0,0.0,0.0,5.5548,5.9411,6.2412,6.5473,6.9842,7.248,7.465,7.7107,7.844,7.9533,8.0684,8.0668,8.0794,8.1879,8.0598,7.9448,7.9721,7.8616,7.7837,7.8264,7.8314,7.8164,7.7762,7.7812,7.7737,7.731,7.6532,7.5928,7.5501,7.4925,7.4247,7.3418,7.3368,7.1149,6.637,6.6221,6.3946,5.9171,5.9243,5.8984,5.8357,5.8334,5.7913,5.7169,5.6796,5.6582,5.6582,5.6582,5.6582,5.6601,5.6914,5.6875,5.6621,5.6933,5.6855,5.6582,5.6582,5.6582,5.6699,0.0,0.0,0.0,0.0,0.0,0.0,0.0,0.0,0.0,0.0,0.0,0.0,0.0,0.0,3.2494,3.228,3.2926,3.3694,3.4506,3.6637,3.7877,3.8012,3.9389,0.0,4.018,4.018,0.0,0.0,0.0,0.0,5.8844,6.1854,6.7907,7.598,6.9282,6.4715,6.1704,0.0,0.0,0.0,0.0,0.0,0.0,0.0,0.0,0.0,0.0,0.0,0.0,4.986,5.0548,5.1265,5.1917,5.2576,5.3288,0.0,0.0,0.0,5.627,5.8871,6.2069,6.4392,6.8298,7.2323,7.5199,7.7577,7.9533,8.0684,8.011,7.9571,8.0238,7.9785,7.9126,7.8667,7.8088,7.7712,7.7737,7.7737,7.7737,7.7712,7.6858,7.623,7.6205,7.4699,7.3745,7.372,7.3192,7.2793,7.2743,7.2718,7.0586,6.589,6.5742,6.3434,5.8694,5.9078,5.8992,5.8316,5.8284,5.7701,5.6635,5.6582,5.6582,5.6582,5.6582,5.6582,5.6582,5.6601,5.6601,5.6582,5.6601,5.6601,5.6582,5.6582,5.6582,5.664,0.0,0.0,0.0,0.0,0.0,0.0,0.0,0.0,0.0,0.0,0.0,0.0,0.0,3.3233,3.3692,3.3072,3.3694,3.4404,3.5171,3.6896,3.791,3.791,3.9322,4.0113,4.0113,4.0113,0.0,0.0,0.0,4.7834,5.5564,6.0486,6.6034,7.1718,6.7354,6.5053,6.3957,5.5362,0.0,0.0,0.0,0.0,0.0,0.0,0.0,0.0,4.9802,0.0,5.0631,5.1289,5.1947,5.2516,5.2779,5.3294,5.4072,5.5149,5.556,5.5956,5.7332,5.8368,5.9941,6.3595,6.6887,6.9866,7.2376,7.5329,7.7535,7.7595,7.7647,7.7758,7.8025,7.7935,7.7838,7.7938,7.7235,7.6682,7.6682,7.6682,7.6381,7.5678,7.5552,7.5402,7.5025,7.4473,7.3971,7.3619,7.3393,7.3117,7.2693,7.2389,7.017,6.5844,6.5348,6.2944,5.8218,5.8264,5.8004,5.7387,5.7353,5.7052,5.6582,5.6289,5.6328,5.6582,5.6582,5.6582,5.6582,5.6582,5.6582,5.6582,5.6582,5.6582,5.6582,5.6582,5.6582,5.6426,0.0,0.0,0.0,0.0,0.0,0.0,0.0,0.0,0.0,0.0,0.0,0.0,0.0,0.0,3.4669,3.455,3.499,3.5588,3.6309,3.7538,3.8261,3.8261,3.9457,4.0113,4.0113,4.0587,0.0,0.0,0.0,0.0,0.0,0.0,6.4309,6.8944,6.5425,0.0,0.0,0.0,0.0,5.7107,0.0,0.0,5.2041,0.0,0.0,5.118,5.2982,5.3176,5.2576,5.2815,5.3324,5.3827,5.3593,5.4132,5.5029,5.5953,5.5775,5.5523,5.6654,5.693,5.7865,6.1774,6.4247,6.6599,7.0049,7.2768,7.467,7.4896,7.567,7.6251,7.6329,7.6197,7.623,7.6783,7.6105,7.5551,7.5551,7.5551,7.5226,7.4498,7.4573,7.4548,7.4171,7.3971,7.3619,7.3067,7.3016,7.2791,7.2213,7.1836,6.9632,6.5337,6.3316,6.0886,5.7918,5.7669,5.733,5.6904,5.6844,5.6597,5.6152,5.5996,5.6015,5.6172,5.6308,5.6445,5.6582,5.6582,5.6582,5.6582,5.6582,5.6582,5.6601,5.6738,5.6699,5.6319,0.0,0.0,0.0,0.0,0.0,0.0,0.0,0.0,0.0,0.0,0.0,0.0,0.0,0.0,0.0,3.6739,3.6897,3.719,3.7855,3.8599,3.9017,3.9017,3.9694,4.0113,4.0113,4.1487,4.1555,0.0,0.0,0.0,0.0,0.0,6.3057,0.0,6.4343,6.6068,7.1921,0.0,6.6745,6.5074,0.0,5.5482,5.552,0.0,5.7293,5.4279,5.8165,5.7741,5.5264,5.461,5.479,5.5149,5.4461,0.0,0.0,0.0,0.0,5.5032,0.0,0.0,0.0,5.8552,6.0143,6.2496,6.8115,6.9945,7.094,7.2719,7.4079,7.4998,7.5087,7.4685,7.4523,7.5002,7.47,7.4397,7.4397,7.4372,7.4372,7.4372,7.387,7.3544,7.3569,7.3067,7.2489,7.1937,7.1912,7.1661,7.1108,7.0966,6.8829,6.4298,5.9638,5.7442,5.7898,5.7361,5.7025,5.6956,5.6804,5.6228,5.5312,5.567,5.5683,5.5332,5.5689,5.6152,5.6543,5.6582,5.6582,5.6582,5.6562,5.6582,5.664,5.7031,5.686,5.6212,0.0,0.0,0.0,0.0,0.0,0.0,0.0,0.0,0.0,0.0,0.0,0.0,0.0,0.0,0.0,3.842,3.887,3.8824,3.7956,3.8599,3.9017,3.9017,3.9694,4.0113,4.0113,4.0506,4.0777,0.0,0.0,0.0,0.0,0.0,0.0,0.0,6.3328,6.4749,6.554,5.9268,0.0,6.3632,5.7965,5.7249,5.9459,5.8779,5.8138,5.7688,5.8493,5.893,5.9091,5.918,5.8324,5.7034,5.5418,0.0,0.0,0.0,0.0,0.0,5.5413,0.0,0.0,0.0,0.0,0.0,6.1801,6.4613,6.7112,6.8142,6.9962,7.1645,7.2638,7.2684,7.264,7.2816,7.372,7.4272,7.387,7.3468,7.3145,7.3145,7.2715,7.2514,7.2941,7.2768,7.2489,7.1937,7.1912,7.1661,7.1108,6.7956,6.5327,6.3625,5.9395,5.7247,5.7371,5.6792,5.6506,5.6493,5.5686,5.5293,5.5293,5.5117,5.5137,5.5312,5.543,5.5547,5.5703,5.6328,5.6582,5.6562,5.623,5.6308,5.6562,5.6367,5.5299,5.3706,0.0,0.0,0.0,0.0,0.0,0.0,0.0,0.0,0.0,0.0,0.0,0.0,0.0,0.0,0.0,0.0,4.0142,4.0041,3.8903,3.922,3.9457,3.9457,3.9876,4.0235,4.054,4.117,4.1542,4.1644,0.0,0.0,0.0,0.0,0.0,0.0,0.0,0.0,0.0,0.0,0.0,0.0,6.0264,6.0456,6.2079,6.2257,6.1916,6.1431,6.2328,6.2911,6.3188,6.2867,6.1016,5.859,5.6615,5.6436,0.0,5.7752,0.0,0.0,0.0,0.0,5.4184,5.6066,0.0,0.0,5.9647,6.1625,6.3298,6.4211,6.6294,6.8264,6.931,6.9878,7.0355,7.0761,7.1887,7.274,7.2866,7.2414,7.2213,7.2618,7.2037,7.1786,7.2339,7.2188,7.1811,7.1259,7.1209,7.0983,7.043,6.7025,6.4574,6.3347,6.019,5.809,5.7235,5.6396,5.603,5.603,5.5105,5.4707,5.4765,5.4707,5.4707,5.4785,5.4961,5.5039,5.5098,5.5781,5.6152,5.6289,5.6035,5.6211,5.6582,5.6504,5.4965,5.2709,0.0,0.0,0.0,0.0,0.0,0.0,0.0,0.0,0.0,0.0,0.0,0.0,0.0,0.0,0.0,0.0,4.1292,4.1238,4.0417,4.0282,0.0,4.035,4.0282,4.0574,4.1305,4.2611,4.2997,4.2422,0.0,0.0,0.0,0.0,4.8868,0.0,0.0,0.0,0.0,0.0,0.0,6.1347,6.3424,6.4068,6.4133,6.7196,6.6999,6.5407,6.7758,6.8147,6.727,6.5742,6.3199,6.0266,5.8201,5.7902,5.8444,5.9039,5.7883,0.0,0.0,0.0,0.0,5.7582,5.6745,0.0,5.9673,5.9888,5.9728,6.0941,6.3072,6.4945,6.5637,6.6657,6.7712,6.8603,6.9325,7.025,7.161,7.1334,7.1384,7.2414,7.1636,7.1209,7.1761,7.1359,7.0903,7.035,7.025,6.9862,6.9089,6.7115,6.5023,6.297,6.0884,5.8886,5.707,5.6031,5.5497,5.5517,5.4907,5.4394,5.3992,5.4433,5.4394,5.3992,5.4433,5.4609,5.4629,5.5019,5.5449,5.5806,5.5767,5.6055,5.6484,5.6587,5.4887,5.2254,0.0,0.0,0.0,0.0,0.0,0.0,0.0,0.0,0.0,0.0,0.0,0.0,0.0,0.0,0.0,0.0,0.0,4.3349,0.0,0.0,0.0,4.1826,4.1305,4.1339,4.2063,4.2354,4.2726,4.3186,4.3626,4.4404,4.55,4.594,4.7631,5.0304,0.0,0.0,0.0,0.0,5.8457,6.0444,6.1737,6.4672,6.8208,6.8066,6.8679,6.9607,6.939,6.9837,7.0132,6.751,6.5473,6.3588,6.1134,6.0027,5.9727,5.9847,5.8871,5.7851,5.8407,5.7082,5.57,5.6275,5.6458,0.0,5.6301,5.6833,5.7728,5.8972,6.0706,6.239,6.3671,6.4459,6.4865,6.4823,6.5634,6.7417,7.0782,7.0757,7.0702,7.1334,7.0878,7.0677,7.1184,7.1158,7.0903,7.035,6.9853,6.8801,6.7071,6.4717,6.2468,6.0372,5.8019,5.6558,5.6138,5.5471,5.5105,5.5105,5.4454,5.4121,5.3972,5.407,5.4121,5.3992,5.4121,5.416,5.416,5.4238,5.4726,5.539,5.5058,5.5176,5.5356,5.3525,5.146,4.9351,0.0,0.0,0.0,0.0,0.0,0.0,0.0,0.0,0.0,0.0,0.0,0.0,0.0,0.0,0.0,0.0,0.0,0.0,0.0,0.0,0.0,4.23,4.1948,4.2286,4.3416,4.3064,4.3606,4.5094,4.4742,4.5317,4.6805,4.7192,4.8342,5.015,5.1285,0.0,0.0,5.6258,5.8186,5.9884,6.3556,6.702,6.9953,7.0171,7.1043,7.2111,7.1788,7.2319,7.2616,6.9157,6.7328,6.5922,6.263,6.1373,6.1164,6.1521,6.0413,5.9127,5.9323,5.8171,5.689,5.6786,5.6562,0.0,0.0,5.6034,5.6271,5.6874,5.7986,5.9096,5.9896,6.0757,6.1576,6.2351,6.3124,6.463,6.7436,6.8541,6.9451,7.0602,6.9747,6.9351,7.0179,6.9777,6.9325,6.9049,6.8773,6.815,6.7181,6.4976,6.3292,6.2199,5.9073,5.7357,5.7357,5.5783,5.4984,5.4984,5.4336,5.3972,5.3972,5.3972,5.3972,5.3972,5.3972,5.3972,5.3972,5.3972,5.4277,5.4668,5.4687,5.4941,5.5031,5.2692,5.0562,4.8519,0.0,0.0,0.0,0.0,0.0,0.0,0.0,0.0,0.0,0.0,0.0,0.0,0.0,0.0,0.0,0.0,0.0,0.0,0.0,0.0,0.0,4.2943,4.2807,4.345,4.4973,4.4384,4.4959,4.68,4.621,4.6684,4.8124,4.8698,4.956,5.0624,5.2773,5.3788,0.0,5.6292,5.8423,6.0796,6.639,6.8927,6.9585,7.1661,7.2736,7.3298,7.4166,7.4629,7.4364,7.0769,6.9034,6.7748,6.4006,6.275,6.275,6.3139,6.1939,6.0401,6.0134,5.9238,5.8294,5.7806,5.719,5.6719,0.0,0.0,0.0,5.5321,5.5856,5.639,5.6458,5.7342,5.8553,6.0255,6.0979,6.1943,6.3642,6.5383,6.7216,6.9119,6.802,6.7593,6.8653,6.7894,6.7417,6.7618,6.7543,6.7342,6.7064,6.5209,6.3965,6.3441,5.9926,5.8036,5.7988,5.5921,5.4863,5.4863,5.4296,5.3972,5.3972,5.3972,5.3972,5.3972,5.3972,5.3972,5.3972,5.3972,5.3972,5.4011,5.4414,5.4487,5.4153,5.189,4.9811,4.7646,3.4887,3.5708,0.0,0.0,0.0,0.0,0.0,0.0,0.0,0.0,0.0,0.0,0.0,0.0,0.0,0.0,0.0,0.0,5.0017,0.0,0.0,0.0,4.4702,4.5041,4.653,4.6447,4.6549,4.68,4.6733,4.7428,4.8883,4.8951,5.0101,5.2131,5.3754,5.4837,5.5597,5.7796,6.1163,6.5208,6.8197,6.7875,6.6141,7.0306,7.209,7.2781,7.5511,7.5796,7.4574,7.2328,7.0772,6.9305,6.646,6.5144,6.4545,6.4066,6.2883,6.1645,6.0896,6.0447,5.9796,5.8122,5.8706,5.9036,5.6588,0.0,5.6363,5.5345,0.0,5.5906,5.5607,0.0,0.0,5.7855,5.8631,5.9659,6.1316,6.1768,6.2898,6.5534,6.53,6.5283,6.6388,6.5936,6.5986,6.699,6.6589,6.5707,6.4404,6.2581,6.0752,5.8895,5.6357,5.5002,5.5002,5.4594,5.4381,5.4401,5.4139,5.3972,5.3972,5.3972,5.3972,5.3972,5.3972,5.3972,5.3972,5.3972,5.3972,5.3992,5.4082,5.2851,5.0902,4.893,4.6767,4.4518,3.4746,3.5952,0.0,0.0,0.0,0.0,0.0,0.0,0.0,0.0,0.0,0.0,0.0,0.0,0.0,0.0,0.0,5.1742,5.1235,0.0,0.0,0.0,4.6481,4.6563,4.8037,4.7225,4.7443,4.8729,4.8274,4.8849,5.0288,5.071,5.1657,5.3078,5.5006,5.6528,5.7728,5.9554,6.1941,6.4674,6.7431,6.7551,6.6733,7.2764,7.5142,7.5346,7.6232,7.6329,7.5647,7.3283,7.1607,7.0201,6.8345,6.649,6.5024,6.5144,6.3951,6.2469,6.1656,6.193,6.1977,5.983,5.9929,5.9914,5.751,5.6588,5.5961,5.4811,0.0,0.0,0.0,0.0,0.0,0.0,5.7187,5.7987,5.9119,5.9282,6.0311,6.3048,6.2898,6.2747,6.3199,6.3626,6.3927,6.4078,6.4479,6.4443,6.3834,6.1511,6.0337,6.0585,5.6613,5.4883,5.5786,5.4763,5.4123,5.3826,5.3967,5.3972,5.3972,5.3972,5.3972,5.3972,5.3972,5.3972,5.3972,5.3972,5.3972,5.387,5.2531,5.1462,5.0321,4.8227,4.6071,4.3995,3.5006,0.0,0.0,0.0,0.0,0.0,0.0,0.0,0.0,0.0,0.0,0.0,6.1321,6.0861,0.0,0.0,5.9272,5.663,5.4414,5.1758,4.9965,4.9323,4.8071,4.8071,4.9578,4.8545,4.8781,5.0405,4.9864,5.0356,5.1844,5.2164,5.2942,5.4211,5.663,5.8524,6.008,6.2212,6.4444,6.6757,6.935,7.0486,7.1043,7.4764,7.6452,7.6796,7.6572,7.6394,7.5946,7.3672,7.2265,7.1158,6.9512,6.7807,6.637,6.6311,6.5383,6.41,6.2601,6.3395,6.3941,6.1014,6.0782,6.0608,5.8227,5.7137,5.6301,5.5151,5.5386,0.0,0.0,0.0,5.6278,5.6842,0.0,5.7362,5.8177,5.78,5.8353,6.0814,6.0889,6.0713,6.0713,6.1316,6.1667,6.1542,6.2295,6.2847,6.2998,6.0533,5.977,6.1319,5.6759,5.4805,5.5906,5.4737,5.3904,5.35,5.3748,5.3906,5.3972,5.3972,5.3972,5.3972,5.3972,5.3972,5.3972,5.3972,5.3972,5.3768,5.1462,5.0199,4.9399,4.7139,4.5032,4.2967,3.6157,3.6621,0.0,0.0,0.0,0.0,0.0,0.0,0.0,0.0,0.0,0.0,0.0,0.0,0.0,0.0,0.0,6.2164,6.2062,5.6596,5.2367,5.015,4.9323,4.9612,5.11,5.1066,5.11,5.1167,5.1133,5.1911,5.3416,5.2672,5.3484,5.5767,5.8693,6.0858,6.2516,6.6136,7.0229,7.439,7.598,7.8112,7.9825,7.4901,7.4054,7.5587,7.644,7.6006,7.4719,7.3373,7.286,7.2415,6.9812,6.9393,6.9484,6.7537,6.7389,6.7109,6.3768,6.4636,6.5396,6.0856,6.1039,6.1536,5.8412,5.8052,5.8104,5.6954,5.7224,5.7433,5.6789,5.731,5.8176,0.0,5.8448,0.0,0.0,5.7533,5.6897,5.8591,5.9257,5.9533,5.9533,5.9131,5.9243,6.0286,6.0412,6.0663,6.124,5.9251,5.8255,5.8803,5.5567,5.3853,5.3883,5.3726,5.3584,5.348,5.3434,5.3613,5.3972,5.3972,5.3972,5.3972,5.3972,5.3972,5.3972,5.3972,5.3972,5.3768,5.1462,4.9242,4.7033,4.4816,4.255,4.0614,0.0,0.0,0.0,0.0,0.0,0.0,4.6512,4.9747,5.3743,5.9853,6.2283,6.5944,7.247,7.2572,7.3209,7.5988,7.271,6.9451,6.6981,6.3091,6.008,5.834,5.5615,5.416,5.4177,5.323,5.2723,5.2723,5.2723,5.3501,5.4955,5.4684,5.5225,5.6562,5.9573,6.2009,6.414,6.8368,7.1582,7.4083,7.6751,7.9567,8.188,7.9176,7.7395,7.6448,7.6766,7.6301,7.5497,7.5048,7.4001,7.2834,7.2385,7.1188,6.9873,6.9153,6.8824,6.8311,6.6712,6.783,6.8736,6.5722,6.5084,6.44,6.1553,5.996,5.8793,5.7643,5.7564,5.7512,5.6902,5.732,5.7832,0.0,0.0,5.7789,0.0,5.6827,5.642,5.6997,5.7223,5.7474,5.7788,5.7663,5.7713,5.8089,5.9156,5.9366,5.8411,5.895,5.8377,5.6421,5.556,5.4503,5.3281,5.3192,5.2954,5.2551,5.2834,5.3008,5.3164,5.3457,5.3437,5.3183,5.3719,5.3867,5.3613,5.3906,5.3972,5.3595,4.9834,4.7878,4.6927,4.4709,4.2442,4.049,3.8809,0.0,0.0,0.0,3.981,4.2449,4.6658,5.1802,5.7276,6.3036,6.7019,7.1653,7.7887,7.8302,7.871,8.0234,7.8754,7.5642,7.0601,6.8944,6.6542,6.2956,6.0486,5.8863,5.8118,5.6341,5.5192,5.4668,5.4668,5.5175,5.6071,5.5834,5.624,5.7306,6.0351,6.3057,6.573,7.0737,7.4018,7.6169,7.9254,8.1171,8.2034,8.1155,7.9416,7.7369,7.6641,7.6081,7.57,7.5562,7.4689,7.3642,7.3821,7.2744,7.1278,7.0831,7.053,7.0141,6.9035,6.9963,7.0683,6.8323,6.7756,6.7012,6.4249,6.2542,6.1228,6.0369,5.9333,5.8569,5.8496,5.842,5.8226,0.0,0.0,0.0,0.0,5.6365,5.6294,5.6433,5.6344,5.6344,5.6659,5.6709,5.6709,5.6709,5.7863,5.822,5.7287,5.7658,5.7194,5.5643,5.4805,5.3762,5.2577,5.2635,5.2401,5.1855,5.2285,5.2558,5.2715,5.3008,5.2969,5.2754,5.3476,5.3535,5.3183,5.3789,5.3467,5.2238,4.8631,4.6716,4.5776,4.3491,4.1753,4.049,3.948,3.934,3.9506,3.9917,4.2401,4.4954,4.6665,5.3858,6.0565,6.4634,7.0856,7.6554,8.0853,8.1764,8.2776,8.4708,8.4167,8.0682,7.3544,7.4322,7.183,6.4627,6.4187,6.3734,6.2888,6.0554,5.8641,5.7239,5.6968,5.69,5.7002,5.6172,5.6562,5.8035,6.1095,6.4038,6.7129,7.3138,7.7502,8.0615,8.3377,8.3065,8.0896,8.0771,7.9795,7.8223,7.6169,7.5414,7.5312,7.5006,7.4903,7.4813,7.4151,7.3941,7.3672,7.2355,7.2475,7.2595,7.0679,7.1098,7.1401,6.8748,6.8997,6.9209,6.6571,6.5684,6.5271,6.4906,6.2492,6.069,6.1449,6.0447,5.9503,0.0,0.0,0.0,5.6415,5.6219,5.642,5.6885,5.6483,5.6219,5.6244,5.6219,5.6219,5.6219,5.6684,5.7224,5.7738,5.5573,5.4907,5.61,5.3399,5.1815,5.1712,5.204,5.1937,5.1358,5.1816,5.2246,5.2637,5.2676,5.2676,5.2676,5.3125,5.3086,5.2754,5.3613,5.2367,4.9808,4.7914,4.5743,4.3491,4.1278,4.049,4.049,4.0149,4.1174,4.2535,4.3746,4.4583,4.6583,5.0976,5.6805,6.3289,7.0518,7.688,8.2521,8.7146,8.7758,8.8096,8.8694,8.7583,8.5554,8.2543,8.1629,7.9634,7.6082,7.3747,7.1718,6.9857,6.6,6.3768,6.3416,5.9524,5.849,6.0114,5.822,5.7543,5.8069,6.1637,6.4241,6.6406,7.2935,7.8382,8.2668,8.3056,8.2861,8.2169,8.016,7.8998,7.8288,7.6473,7.5482,7.5006,7.4903,7.4903,7.4873,7.4723,7.4663,7.4484,7.3612,7.3851,7.4151,7.3163,7.3492,7.3843,7.2641,7.1728,7.0831,6.9702,6.8067,6.6711,6.6243,6.5091,6.3686,6.1914,6.1271,6.0534,5.8962,5.8089,5.7389,5.6754,5.6401,5.6269,5.642,5.6294,5.6369,5.6734,5.6408,5.6219,5.6219,5.6684,5.6713,5.5992,5.6126,5.5648,5.4429,5.3665,5.28,5.1712,5.1409,5.1146,5.0957,5.1074,5.1348,5.1777,5.209,5.207,5.1797,5.2558,5.2637,5.2285,5.2832,5.1815,4.9771,4.7618,4.4519,4.1278,4.0693,4.049,4.049,4.1569,4.3784,4.6217,4.8051,5.0306,5.277,5.5495,5.9806,6.5286,7.2289,7.8912,8.4093,8.7083,8.9887,9.1467,9.1198,9.0729,8.9106,8.602,8.6501,8.5182,8.1325,7.9837,7.7773,7.4897,7.015,6.7036,6.5717,6.1095,5.9336,6.0283,5.866,5.8051,5.8524,6.1637,6.4208,6.6677,7.4052,7.9634,8.3452,8.2927,8.2407,0.0,7.9695,7.8267,7.7227,7.6328,7.5647,7.5108,7.4937,7.4903,7.4903,7.4903,7.4903,7.4843,7.442,7.4604,7.4843,7.442,7.4634,7.4903,7.4779,7.4135,7.3308,7.269,7.0813,6.919,6.8956,6.7147,6.5337,6.4464,6.2846,6.0838,5.861,5.7542,5.6954,5.6823,5.6474,5.6294,5.6508,5.6533,5.6659,5.696,5.6483,5.6219,5.6219,5.6269,5.6339,5.6412,5.6047,5.5346,5.4277,5.415,5.303,5.0839,5.1276,5.1126,5.0291,5.0623,5.0937,5.1172,5.1601,5.166,5.1416,5.2148,5.2187,5.1836,5.2461,5.0843,4.7779,4.4834,4.2403,4.049,4.049,4.049,4.049,4.357,4.6665,4.9878,5.1858,5.6978,6.084,6.0996,6.4289,6.8521,7.3391,8.0227,8.4839,8.5388,9.0448,9.3562,9.2899,9.3402,9.1773,8.7137,8.9816,8.914,8.3659,8.393,8.2577,7.9117,7.3635,6.9485,6.6867,6.2313,5.9911,5.9554,5.8524,5.8457,5.925,6.1434,6.4208,6.776,7.5516,8.0479,8.3047,8.2627,8.1799,8.065,7.9191,7.751,7.5923,7.5954,7.5715,7.5278,7.5006,7.4903,7.4903,7.4903,7.4903,7.4903,7.4903,7.4903,7.4903,7.4903,7.4903,7.5053,7.5617,7.5766,7.5617,7.5053,7.3285,7.1815,7.2003,6.8977,6.6605,6.7592,6.447,6.0938,5.843,5.7348,5.6877,5.7026,5.6625,5.652,5.7035,5.7035,0.0,5.6985,5.6483,5.6219,5.6219,5.5767,5.6168,5.77,5.5681,5.4751,5.5227,5.4576,5.2899,5.0257,5.1365,5.1203,4.9782,5.0354,5.0703,5.082,5.1172,5.1299,5.1319,5.1758,5.1699,5.1358,5.1911,4.9363,4.4765,4.1317,4.0197,4.049,4.0446,4.0446,4.049,4.5851,4.9031,5.172,5.2134,5.8685,6.5566,7.0484,7.4981,7.8936,8.2114,8.8558,9.2903,9.3116,9.4151,9.495,9.5191,9.4789,9.3876,9.2349,9.2856,9.188,8.897,8.8361,8.6968,8.4498,7.7468,7.3578,7.3037,6.4343,6.0994,6.2632,6.0028,5.9201,5.9979,6.1637,6.5074,6.9925,7.51,7.8653,8.0808,8.1039,8.1006,8.053,7.8216,7.6755,7.5954,7.6018,7.555,7.4971,7.4903,7.4903,7.4903,7.4903,7.4903,7.4903,7.4903,7.4903,7.4903,7.4903,7.4903,7.4933,7.5053,7.5083,7.5053,7.4933,7.3742,7.2682,7.2707,7.1242,6.9523,6.8074,6.48,6.1522,5.9065,5.8646,5.8525,5.8257,5.7433,5.706,5.7675,5.7286,5.6985,5.6985,5.6483,5.6219,5.6219,5.6118,5.6394,5.7111,5.589,5.5536,5.6478,5.4364,5.3191,5.3023,5.1092,5.0348,5.0674,5.004,5.0117,5.0801,5.0879,5.0918,5.0918,5.0996,5.0976,5.0812,4.955,4.6682,4.2964,4.0836,4.0197,4.0446,4.0182,4.0255,4.049,5.0892,5.2925,5.5315,5.8032,6.4503,7.1215,7.6849,8.2879,8.6285,8.4753,8.824,9.1032,9.1393,9.4523,9.6561,9.6375,9.6041,9.5364,9.4248,9.418,9.3334,9.1411,9.0628,8.9004,8.6433,7.9803,7.5236,7.2879,6.5087,6.1434,6.1704,5.9859,5.9641,6.0825,6.3091,6.6393,7.0488,7.4999,7.8179,8.0242,8.0619,8.0799,8.05,7.7768,7.6421,7.592,7.5752,7.5346,7.4903,7.4903,7.4903,7.4903,7.4903,7.4903,7.4903,7.4903,7.4903,7.4903,7.4903,7.4903,7.4993,7.5318,7.5172,7.4993,7.5318,7.4121,7.2924,7.2924,7.1846,7.0031,6.7175,6.5021,6.275,5.9974,5.8704,5.83,5.9017,5.785,5.7318,5.8517,5.7938,5.7474,5.7474,5.6935,5.652,5.6244,5.6219,5.6408,5.696,5.6488,5.5858,5.5111,5.4838,5.371,5.1687,5.108,5.0595,5.027,5.0237,5.0177,5.0156,5.0605,5.0683,5.0488,5.0703,5.0801,5.058,4.7751,4.5023,4.2519,4.0511,4.0051,4.049,4.0314,4.0241,4.0241,5.6159,5.7586,6.0007,6.495,7.1034,7.6747,8.1273,8.8015,9.1221,8.7204,8.8239,8.9589,9.0081,9.4857,9.7766,9.7157,9.7123,9.6514,9.5026,9.4924,9.418,9.2459,9.1711,9.0053,8.7448,8.1528,7.6352,7.1999,6.5865,6.2076,6.0554,5.9674,6.0129,6.1873,6.4512,6.7307,7.0263,7.4931,7.8077,8.0006,8.0554,8.0799,8.05,7.7575,7.6258,7.5856,7.5516,7.5176,7.4903,7.4903,7.4903,7.4903,7.4903,7.4903,7.4903,7.4903,7.5023,7.5078,7.5078,7.5232,7.5377,7.5796,7.5497,7.5198,7.5587,7.424,7.2924,7.2924,7.1846,6.99,6.6668,6.5521,6.4138,6.1323,5.9287,5.8507,5.988,5.8485,5.7867,5.9287,5.8542,5.7901,5.7901,5.7474,5.691,5.6269,5.6219,5.6358,5.6809,5.706,5.6295,5.4311,5.5422,5.4429,5.1036,5.107,5.0722,4.9975,5.0417,5.022,4.9551,5.0332,5.0449,5.0058,5.0488,5.0233,4.9322,4.6352,4.3863,4.1835,4.0187,3.9875,4.0387,4.0387,4.0212,3.9992,5.9995,6.2901,6.5965,6.9797,7.6073,8.1351,8.3669,8.9063,9.3178,9.3971,9.5467,9.6605,9.7018,9.7631,9.7969,9.7901,9.7901,9.7258,9.5804,9.5702,9.4721,9.2493,9.1711,9.0527,8.8931,8.305,7.8111,7.4265,6.7658,6.3632,6.2144,6.0689,6.1197,6.3342,6.4986,6.6981,6.9553,7.4728,7.7807,7.9297,8.039,8.0799,8.05,7.7575,7.6288,7.595,7.5516,7.5176,7.4903,7.4903,7.4903,7.4903,7.4903,7.4903,7.4903,7.4903,7.5318,7.5826,7.5826,7.6215,7.6509,7.6036,7.5856,7.5647,7.5108,7.3911,7.2924,7.2924,7.1846,7.0224,6.8007,6.6851,6.553,6.335,6.1869,6.1045,6.12,5.9969,5.9287,5.9947,5.8795,5.7901,5.7901,5.7851,5.7374,5.6294,5.6219,5.6244,5.6294,5.7273,5.7475,5.6688,5.5673,5.5066,5.4969,5.1169,4.9819,5.088,5.0045,4.957,4.9504,5.0019,5.0,4.9609,5.0039,4.8439,4.5537,4.5496,4.3232,3.9776,3.9563,3.9729,4.0051,4.0051,4.0021,3.9992,6.7342,6.8528,7.0669,7.5321,7.8757,8.2519,8.734,9.1205,9.402,9.537,9.6425,9.7343,9.7935,9.8003,9.8003,9.8003,9.8003,9.736,9.5905,9.5804,9.4992,9.3199,9.1947,9.0594,8.9134,8.4133,7.9025,7.395,6.9011,6.4918,6.1738,6.1095,6.2009,6.4241,6.617,6.8538,7.1379,7.5709,7.8653,8.0444,8.0685,8.0799,8.047,7.7349,7.6088,7.5917,7.5312,7.5006,7.4903,7.4903,7.4903,7.4903,7.4903,7.4903,7.4903,7.4903,7.5113,7.5377,7.5796,7.5766,7.5707,7.5856,7.5587,7.5108,7.445,7.3582,7.2684,7.1876,7.0979,6.9811,6.8048,6.672,6.5468,6.4073,6.2083,6.094,6.1681,6.0268,5.9384,5.9946,5.8769,5.775,5.7387,5.7336,5.6922,5.5792,5.6344,5.6533,5.6219,5.7273,5.7448,5.6507,5.5235,5.4588,5.455,5.143,5.0091,5.0573,5.0677,5.019,4.9141,4.991,4.9941,4.9438,4.8396,4.6725,4.4576,4.3455,4.1493,3.9217,3.9217,3.9304,3.9465,3.9846,3.9758,3.9359,7.3557,7.3946,7.5612,8.0873,8.2573,8.5003,9.0329,9.2875,9.4654,9.5969,9.6751,9.7428,9.7935,9.8003,9.8003,9.8003,9.8003,9.7461,9.621,9.5905,9.5229,9.3977,9.2455,9.1034,8.9748,8.579,8.1021,7.5473,7.1481,6.7387,6.3226,6.2787,6.3903,6.6305,6.8098,7.0703,7.395,7.7232,7.9592,8.1054,8.0865,8.056,7.9959,7.7023,7.5954,7.5947,7.5593,7.5232,7.4963,7.5318,7.5198,7.4903,7.4903,7.5053,7.5168,7.5168,7.5437,7.5856,7.6335,7.6096,7.5796,7.6096,7.5677,7.5018,7.433,7.3522,7.2475,7.0949,7.044,6.9881,6.8605,6.6996,6.5635,6.4948,6.2511,6.1032,6.188,6.0596,5.9635,5.9865,5.8845,5.7926,5.7311,5.7085,5.6684,5.5942,5.6445,5.6584,5.6244,5.7273,5.7522,5.6667,5.5746,5.493,5.416,5.2214,5.0895,5.0311,5.1056,5.0563,4.9128,4.9707,4.9824,4.9438,4.7988,4.6175,4.4166,4.2674,4.074,3.8748,3.8836,3.8827,3.8968,3.9729,3.9582,3.897,7.7586,7.9046,8.1043,8.6287,8.8402,9.0058,9.2078,9.3706,9.5229,9.6683,9.7529,9.8003,9.8003,9.8003,9.8003,9.8003,9.8003,9.7698,9.6951,9.6176,9.5466,9.4721,9.3203,9.2049,9.1271,8.8361,8.464,8.0107,7.5608,7.1537,6.7793,6.6326,6.7273,7.0184,7.0939,7.3341,7.6995,7.9228,8.0308,8.0526,8.0714,8.005,7.8723,7.6755,7.6018,7.6069,7.6579,7.5976,7.5113,7.6365,7.5946,7.4903,7.4903,7.5347,7.5886,7.5886,7.6784,7.7771,7.7771,7.7771,7.7622,7.6928,7.633,7.5707,7.5053,7.3851,7.2355,7.038,7.047,7.0709,7.0081,6.8012,6.6391,6.6356,6.3874,6.1984,6.201,6.123,6.0468,5.9968,5.9199,5.8504,5.7951,5.7336,5.6985,5.6985,5.6483,5.6219,5.6219,5.7273,5.7901,5.7863,5.7746,5.6716,5.4788,5.3642,5.2124,5.0311,5.071,5.0393,4.9465,4.9484,4.9484,4.9484,4.9484,4.7322,4.392,4.3871,4.1579,3.8156,3.8426,3.8491,3.8608,3.9641,3.9582,3.9052,8.1934,8.3906,8.5824,8.7484,8.9827,9.1865,9.3059,9.4485,9.5804,9.6781,9.7529,9.8003,9.8003,9.8003,9.8003,9.8003,9.8003,9.7698,9.6951,9.668,9.6007,9.4755,9.374,9.2624,9.1338,8.8903,8.5926,8.2441,7.8991,7.5134,7.0939,6.9992,7.0838,7.3274,7.4559,7.6893,7.9972,8.119,8.1792,8.1948,8.1629,8.0436,7.8754,7.7276,7.6412,7.5978,7.5623,7.5228,7.4963,7.5347,7.5228,7.4903,7.4903,7.5053,7.5288,7.5766,7.6185,7.6694,7.7562,7.7472,7.7048,7.6838,7.6365,7.5617,7.448,7.2834,7.1248,7.0201,7.0141,7.0201,7.0053,6.8012,6.6391,6.6391,6.3938,6.1898,6.1634,6.1079,6.0418,5.9591,5.9009,5.8504,5.7951,5.7725,5.7298,5.6483,5.7022,5.7198,5.6759,5.7499,5.8227,5.8956,5.8176,5.7153,5.5985,5.4737,5.2987,5.08,5.1497,5.1336,5.0391,4.9738,4.9484,4.9344,4.6463,4.4535,4.3202,4.0676,3.8873,3.779,3.7841,3.7885,3.7973,3.8734,3.8603,3.8139,8.5279,8.7077,8.8497,8.8767,9.1068,9.3131,9.3876,9.5263,9.648,9.7225,9.7698,9.8003,9.8003,9.8003,9.8003,9.8003,9.8003,9.78,9.7326,9.7022,9.6345,9.5161,9.4417,9.33,9.1744,8.9816,8.7617,8.5182,8.1663,7.8348,7.5303,7.4289,7.4999,7.7164,7.7841,7.96,8.2145,8.2374,8.2477,8.2349,8.1755,8.049,7.8867,7.7747,7.7077,7.6675,7.6163,7.5677,7.5288,7.5527,7.5437,7.5228,7.4993,7.5048,7.5347,7.5766,7.6245,7.6784,7.7592,7.7466,7.7108,7.6838,7.6365,7.5557,7.421,7.2744,7.1398,7.05,7.032,7.026,7.0021,6.8012,6.6391,6.6391,6.3938,6.186,6.1457,6.1003,6.0341,5.9414,5.911,5.888,5.8529,5.8328,5.8001,5.7474,5.7725,5.7826,5.7637,5.8202,5.8905,5.9784,5.9681,5.8691,5.6764,5.6389,5.4637,5.1541,5.1892,5.1614,5.0781,5.0098,4.9766,4.9558,4.5811,4.3844,4.3015,3.9764,3.7949,3.7226,3.7344,3.7402,3.749,3.8199,3.8196,3.7861,8.7638,8.8632,8.941,9.0222,9.2184,9.3909,9.4654,9.5973,9.7123,9.7834,9.7935,9.7935,9.8003,9.8003,9.8003,9.8003,9.8003,9.8003,9.7935,9.7258,9.6548,9.577,9.506,9.3981,9.2493,9.1005,8.9545,8.8091,8.3889,8.1426,8.0615,7.9194,7.9659,8.1587,8.0885,8.1765,8.3681,8.3082,8.2461,8.1876,8.1347,8.0282,7.8915,7.8232,7.7923,7.785,7.775,7.6963,7.6066,7.6539,7.639,7.5856,7.5168,7.5377,7.5916,7.5916,7.6784,7.7741,7.7801,7.7831,7.7711,7.6958,7.63,7.5497,7.418,7.3432,7.2595,7.1248,7.0979,7.0799,7.0263,6.8171,6.6559,6.6483,6.4038,6.1947,6.142,6.0965,6.0367,5.9503,5.9437,5.9508,5.9533,5.9106,5.9006,5.9408,5.8579,5.8252,5.8704,5.9282,5.9834,6.0311,6.1903,6.0976,5.7246,5.8321,5.6661,5.2448,5.1883,5.1367,5.084,5.041,5.0215,5.0042,4.697,4.4768,4.3158,4.0562,3.8353,3.6626,3.6934,3.7065,3.7197,3.8134,3.8243,3.7934,8.7916,8.9038,9.0357,9.1648,9.33,9.4687,9.5432,9.6311,9.6985,9.7123,9.7157,9.736,9.7935,9.8003,9.8003,9.8003,9.8003,9.7766,9.7191,9.7018,9.6311,9.5026,9.4789,9.4282,9.3334,9.1812,9.0324,8.8835,8.778,8.6569,8.5283,8.437,8.42,8.4735,8.4565,8.508,8.6034,8.5323,8.3882,8.1997,8.2312,8.0616,7.7931,7.8494,7.8209,7.7473,7.7134,7.6838,7.6539,7.6245,7.63,7.645,7.5856,7.5766,7.5916,7.5916,7.6455,7.7137,7.7682,7.816,7.828,7.7078,7.5976,7.4899,7.4091,7.3762,7.3283,7.1936,7.1637,7.1607,7.149,6.9621,6.7948,6.7284,6.5197,6.3021,6.1155,6.0775,6.0533,6.0118,5.9722,5.9659,6.0085,6.001,5.962,5.8956,5.9433,5.9458,5.8755,6.0035,6.0638,6.0337,6.1903,6.0976,5.7246,5.8621,5.7163,5.2862,5.2291,5.1753,5.1221,5.0859,5.0488,4.9966,4.6061,4.3807,4.259,3.9122,3.7264,3.6612,3.6685,3.6875,3.7153,3.7622,3.7387,3.6857,8.9748,9.0391,9.1305,9.3131,9.4117,9.506,9.6142,9.6616,9.7022,9.736,9.712,9.7157,9.7935,9.7394,9.7258,9.7935,9.8003,9.7698,9.6951,9.6917,9.6244,9.4789,9.4721,9.4349,9.3634,9.2083,9.0729,8.9579,8.9918,8.9681,8.8903,8.7786,8.7306,8.7273,8.6602,8.6535,8.6852,8.6192,8.4552,8.2485,8.2838,8.1143,7.8498,7.9159,7.8961,7.8212,7.7488,7.7257,7.7173,7.6544,7.6719,7.7173,7.6514,7.63,7.6275,7.5976,7.6335,7.6928,7.7622,7.828,7.846,7.7108,7.6066,7.5168,7.448,7.4121,7.3672,7.2954,7.2325,7.1966,7.2295,6.9796,6.7626,6.7446,6.4909,6.2418,6.0927,6.0776,6.0608,6.0013,5.991,5.9985,6.0286,6.0085,5.9809,5.9483,5.9759,5.9809,5.9419,6.0563,6.104,6.0713,6.2571,6.175,5.7934,5.7421,5.5813,5.2992,5.2704,5.2153,5.1358,5.0996,5.0683,5.0191,4.5637,4.3423,4.2709,3.8549,3.6758,3.6597,3.6597,3.6714,3.6905,3.7226,3.7193,3.6925,9.1851,9.1812,9.2049,9.4451,9.4789,9.5161,9.6514,9.6748,9.692,9.7428,9.6954,9.6853,9.7597,9.6548,9.6345,9.7698,9.7732,9.7394,9.6751,9.6646,9.5939,9.4586,9.4552,9.4248,9.3634,9.2319,9.1271,9.056,9.1271,9.1575,9.144,9.0053,8.9371,8.9235,8.7854,8.7245,8.7196,8.6325,8.4895,8.3137,8.3002,8.1512,7.9467,7.9884,7.9834,7.9346,7.8537,7.825,7.813,7.7347,7.7562,7.7981,7.7167,7.6928,7.6838,7.6365,7.6574,7.7048,7.7532,7.8071,7.822,7.7078,7.6275,7.5587,7.5053,7.445,7.4001,7.3911,7.2894,7.2206,7.2804,6.9583,6.696,6.734,6.4216,6.1469,6.0813,6.0864,6.0654,5.9722,6.0111,6.0462,6.0462,6.0111,6.0035,6.0412,6.0085,6.0035,6.0437,6.0989,6.1341,6.1441,6.3441,6.2702,5.8988,5.6075,5.4081,5.2992,5.3053,5.2522,5.1377,5.1055,5.0859,5.0502,4.556,4.3372,4.3047,3.8476,3.6597,3.6597,3.6597,3.6597,3.6641,3.6963,3.7199,3.7266,9.2054,9.1812,9.2218,9.5127,9.5127,9.4992,9.5838,9.5973,9.5804,9.5296,9.5127,9.533,9.6074,9.5939,9.6142,9.6988,9.648,9.6074,9.5973,9.5398,9.4654,9.3808,9.3774,9.3736,9.3601,9.3398,9.2861,9.2054,9.2861,9.2895,9.2189,9.1372,9.0628,8.9985,8.914,8.8761,8.8644,8.6787,8.5191,8.3846,8.262,8.0877,7.912,8.0295,8.0345,7.9789,8.0202,8.0345,8.0135,7.8908,7.8938,7.9297,7.8041,7.7652,7.7652,7.7532,7.7592,7.7526,7.7078,7.7018,7.7048,7.6838,7.5916,7.5053,7.4933,7.4843,7.4569,7.4001,7.3283,7.2804,7.2894,7.0397,6.8142,6.7489,6.5063,6.2662,6.0939,6.0864,6.0781,6.025,6.0688,6.104,6.104,6.1391,6.1466,6.109,6.1391,6.1441,6.1065,6.1567,6.2094,6.2546,6.3802,6.3087,6.0064,5.6744,5.4416,5.2992,5.3326,5.2752,5.1377,5.1319,5.1133,5.0502,4.556,4.3372,4.3047,3.8476,3.6597,3.6597,3.6597,3.6597,3.6641,3.6963,3.6695,3.6209,9.2658,9.2421,9.259,9.4823,9.4924,9.4958,9.5702,9.5804,9.5669,9.533,9.4958,9.5127,9.6244,9.5669,9.5838,9.736,9.6074,9.5364,9.577,9.5127,9.4383,9.3634,9.3601,9.3402,9.2962,9.3368,9.3199,9.2392,9.3199,9.3402,9.303,9.2252,9.1508,9.0763,9.0019,8.9478,8.8982,8.7287,8.5615,8.4009,8.3156,8.1452,7.9592,8.0742,8.0821,8.0375,8.0704,8.0584,8.0225,7.9956,7.9836,7.9776,7.9507,7.8938,7.828,7.7921,7.7801,7.7741,7.7407,7.7352,7.7167,7.6514,7.5886,7.5318,7.4993,7.4903,7.4813,7.448,7.3911,7.3432,7.3432,7.0453,6.7858,6.7467,6.4372,6.1744,6.0851,6.0963,6.0924,6.0362,6.109,6.1517,6.1215,6.1416,6.1466,6.119,6.1416,6.1592,6.1617,6.1868,6.2521,6.3676,6.2726,6.1694,6.0707,5.7306,5.4847,5.3355,5.3556,5.2881,5.1377,5.1377,5.1211,5.0522,4.5775,4.3609,4.3064,3.8675,3.6861,3.6861,3.6861,3.6861,3.689,3.7036,3.6781,3.632,9.3131,9.2962,9.2933,9.4654,9.4958,9.5161,9.5702,9.5804,9.5736,9.5567,9.506,9.5127,9.6244,9.5533,9.5567,9.7123,9.5702,9.4958,9.5499,9.4857,9.418,9.3605,9.3601,9.33,9.2662,9.3267,9.33,9.2692,9.33,9.3601,9.3601,9.2793,9.2087,9.1508,9.0797,8.9849,8.8793,8.7474,8.5717,8.3799,8.3287,8.1872,8.0254,8.1256,8.1366,8.1033,8.1212,8.0823,8.0345,8.0674,8.0345,7.9829,8.0225,7.9627,7.8669,7.8011,7.7921,7.8041,7.8041,7.7921,7.7532,7.6395,7.6125,7.5946,7.5258,7.5228,7.5318,7.5318,7.4689,7.4121,7.4121,7.0541,6.7522,6.7311,6.3696,6.0852,6.061,6.0932,6.1014,6.0563,6.1642,6.222,6.1818,6.1868,6.1984,6.1984,6.1984,6.2119,6.2546,6.2571,6.3224,6.4647,6.201,6.0753,6.1189,5.7752,5.5319,5.3817,5.3967,5.314,5.1582,5.1582,5.1289,5.0522,4.5864,4.3729,4.32,3.8875,3.7139,3.7212,3.7212,3.7153,3.7095,3.7017,3.6745,3.636,9.3131,9.2962,9.3102,9.533,9.5702,9.5736,9.5804,9.5804,9.5567,9.489,9.4755,9.4755,9.4857,9.5364,9.5499,9.4992,9.4789,9.4721,9.4789,9.4079,9.3668,9.3601,9.3601,9.3571,9.3503,9.3567,9.3571,9.3503,9.3571,9.3601,9.3601,9.2793,9.2358,9.229,9.1541,9.0094,8.8177,8.683,8.5053,8.3082,8.2038,8.1324,8.0952,8.1854,8.2027,8.1781,8.2447,8.2238,8.1542,8.0973,8.0345,7.9716,7.9118,7.8878,7.8669,7.8011,7.825,7.8729,7.8729,7.828,7.7652,7.6898,7.6719,7.6569,7.5976,7.6275,7.6659,7.6659,7.5677,7.4843,7.4843,7.1207,6.792,6.7018,6.3868,6.121,6.0278,6.0737,6.1165,6.1115,6.2571,6.355,6.35,6.3994,6.427,6.427,6.427,6.427,6.432,6.432,6.4622,6.5208,6.2865,6.1648,6.1717,5.8294,5.5791,5.428,5.4682,5.3896,5.2031,5.2031,5.1582,5.0502,4.5578,4.3595,4.3492,3.8967,3.727,3.7548,3.7548,3.7358,3.7074,3.681,3.6232,3.5585,9.3233,9.3706,9.3977,9.4349,9.5195,9.5499,9.4552,9.4823,9.4857,9.4112,9.4011,9.4349,9.5296,9.5635,9.5872,9.6041,9.5635,9.5195,9.4755,9.4011,9.3601,9.3601,9.3601,9.3601,9.3601,9.3601,9.3601,9.3601,9.3601,9.3601,9.3601,9.3267,9.2895,9.2392,9.2116,9.0573,8.8093,8.6771,8.5021,8.2979,8.1651,8.1313,8.1553,8.1867,8.217,8.2447,8.2717,8.2387,8.1811,8.1998,8.1302,8.0464,8.0614,8.0075,7.9297,7.8609,7.831,7.837,7.9208,7.8938,7.816,7.7048,7.6779,7.6719,7.6509,7.6629,7.6689,7.6335,7.6485,7.6185,7.4569,7.1995,6.9509,6.7672,6.4124,6.1517,6.1204,6.1493,6.1818,6.2169,6.3375,6.422,6.422,6.4396,6.4496,6.4496,6.4496,6.4496,6.4496,6.4823,6.5233,6.5785,6.2863,6.1258,6.1304,5.816,5.5853,5.432,5.4763,5.3976,5.209,5.209,5.1621,5.0522,4.581,4.3712,4.3285,3.912,3.7461,3.7592,3.7848,3.7812,3.7709,3.7622,3.6799,3.5744,9.333,9.4011,9.4349,9.4282,9.4924,9.5093,9.4079,9.4383,9.462,9.4315,9.4282,9.4654,9.5669,9.621,9.6311,9.5902,9.5804,9.5398,9.4417,9.3876,9.3601,9.3601,9.3601,9.3601,9.3601,9.3601,9.3601,9.3601,9.3601,9.3601,9.3601,9.3601,9.33,9.2764,9.2314,9.0577,8.7845,8.6466,8.4532,8.241,8.1441,8.1429,8.1886,8.1958,8.2283,8.2806,8.2806,8.2387,8.1841,8.2327,8.1572,8.0584,8.1033,8.0405,7.9357,7.8669,7.846,7.8579,7.9297,7.9477,7.9148,7.8005,7.7736,7.7736,7.7736,7.7736,7.7676,7.7502,7.7801,7.7562,7.5766,7.2988,7.0343,6.841,6.46,6.1896,6.1869,6.2079,6.2521,6.3249,6.4153,6.4848,6.4982,6.4982,6.4982,6.4982,6.4982,6.4982,6.4982,6.5333,6.571,6.6112,6.2647,6.0776,6.0776,5.7988,5.5976,5.4723,5.4904,5.4036,5.2266,5.2148,5.1543,5.0347,4.59,4.3763,4.3049,3.9055,3.7548,3.7804,3.8024,3.8112,3.8075,3.8023,3.7108,3.5898,9.3296,9.3601,9.4045,9.5533,9.5195,9.4721,9.4687,9.4687,9.4958,9.5702,9.577,9.577,9.5804,9.7089,9.6785,9.3842,9.4958,9.5161,9.3702,9.3601,9.3601,9.3601,9.3601,9.3601,9.3601,9.3601,9.3601,9.3601,9.3601,9.3601,9.3601,9.3601,9.3601,9.3542,9.2114,8.9916,8.7211,8.5806,8.3633,8.114,8.1397,8.1644,8.1953,8.2186,8.2508,8.2806,8.2806,8.2387,8.1781,8.1781,8.0913,7.9799,7.977,7.9357,7.8669,7.8011,7.8759,7.9686,7.8998,7.9776,8.0644,7.9986,7.9799,7.9799,7.9799,7.9799,8.0016,8.0674,7.9746,7.8819,7.8789,7.4279,7.0201,6.9196,6.5407,6.2476,6.2059,6.2496,6.3249,6.4396,6.4957,6.5509,6.6061,6.6112,6.6112,6.6112,6.6112,6.6112,6.6112,6.6112,6.6112,6.6112,6.2336,6.0294,6.0317,5.7817,5.6234,5.5557,5.5185,5.4195,5.2695,5.2266,5.1387,4.9986,4.5792,4.3697,4.2901,3.8795,3.7475,3.8112,3.8112,3.8112,3.8053,3.7789,3.6933,3.5916,9.259,9.3639,9.4349,9.4248,9.4485,9.4552,9.4011,9.3909,9.418,9.4924,9.4586,9.4654,9.5669,9.5736,9.533,9.4451,9.4789,9.462,9.3668,9.3601,9.3601,9.3601,9.3601,9.3601,9.3601,9.3601,9.3601,9.3601,9.3601,9.3601,9.3601,9.3601,9.3601,9.3508,9.1578,8.9454,8.7211,8.5806,8.3884,8.1752,8.1334,8.2012,8.319,8.2319,8.2852,8.4055,8.3606,8.3307,8.3068,8.2657,8.1938,8.1033,8.0105,7.9357,7.8759,7.8549,7.9118,7.9866,8.0135,8.0823,8.1332,8.0674,8.0494,8.0494,8.0494,8.0494,8.0434,8.0165,8.0524,8.0464,7.9058,7.5722,7.2774,7.1628,6.7137,6.3918,6.4287,6.4128,6.4254,6.4957,6.5534,6.5936,6.6086,6.6112,6.6112,6.6112,6.6112,6.6112,6.6112,6.6112,6.6112,6.6112,6.2336,6.0477,6.0799,5.7323,5.5291,5.4703,5.4582,5.3896,5.2695,5.1953,5.1094,4.9966,4.5507,4.3303,4.2528,3.8687,3.7212,3.7431,3.7936,3.8112,3.8104,3.8204,3.7386,3.6233,9.2257,9.3402,9.4214,9.4045,9.4417,9.4552,9.4112,9.4282,9.4721,9.5466,9.4924,9.4924,9.6108,9.5838,9.5466,9.5161,9.5161,9.4958,9.4485,9.4451,9.4315,9.4045,9.4315,9.421,9.3634,9.3601,9.3601,9.3601,9.3601,9.3601,9.3601,9.3601,9.3301,9.2695,9.0811,8.8796,8.6752,8.5375,8.386,8.2429,8.1858,8.2535,8.3766,8.2777,8.337,8.4654,8.4226,8.4077,8.4017,8.3666,8.2956,8.2028,8.0913,8.0135,7.9537,7.9267,7.9686,8.0345,8.1003,8.1482,8.1811,8.1931,8.1572,8.1242,8.1512,8.1392,8.1153,8.1003,8.1422,8.1459,8.0195,7.6694,7.3662,7.2707,6.8123,6.4823,6.525,6.4848,6.4798,6.5534,6.571,6.5886,6.6086,6.6112,6.6112,6.6112,6.6112,6.6112,6.6112,6.6112,6.6112,6.6112,6.2336,6.0454,6.0707,5.6898,5.4799,5.4582,5.422,5.3598,5.2676,5.1816,5.0976,4.9966,4.5542,4.3286,4.2406,3.8503,3.7051,3.7329,3.7724,3.8031,3.828,3.8418,3.7685,3.6579,9.2257,9.3064,9.3808,9.4485,9.462,9.462,9.4687,9.5263,9.5973,9.6815,9.6244,9.6074,9.6849,9.6849,9.6514,9.5838,9.5804,9.5804,9.5804,9.5804,9.5499,9.4823,9.5432,9.5127,9.3736,9.3702,9.3702,9.3702,9.3702,9.3702,9.3702,9.3702,9.2916,9.1432,8.9903,8.8102,8.6111,8.4674,8.3757,8.3101,8.2704,8.31,8.3917,8.3477,8.3942,8.4803,8.4803,8.4803,8.4803,8.4743,8.3876,8.2776,8.2118,8.1422,8.0764,8.0105,8.0375,8.1033,8.1691,8.1908,8.22,8.3448,8.2828,8.2058,8.2657,8.2387,8.211,8.2687,8.2327,8.1908,8.1908,7.7393,7.351,7.2984,6.8707,6.5434,6.5434,6.4931,6.4949,6.586,6.5559,6.5484,6.5986,6.6086,6.6112,6.6112,6.6112,6.6112,6.6112,6.6112,6.6112,6.6112,6.2469,6.0475,6.0294,5.6609,5.478,5.4863,5.4019,5.3259,5.2558,5.1719,5.0879,4.9928,4.5703,4.3423,4.2389,3.8274,3.6948,3.749,3.7519,3.79,3.836,3.8389,3.7713,3.6775,9.2257,9.3064,9.3668,9.3808,9.3842,9.4011,9.462,9.4857,9.5398,9.6748,9.6244,9.6074,9.6849,9.6379,9.5973,9.5804,9.5804,9.5804,9.5804,9.5804,9.5736,9.5567,9.5702,9.5364,9.4485,9.4451,9.4451,9.4451,9.4451,9.4451,9.4451,9.4451,9.342,9.1399,8.9413,8.7654,8.6111,8.4674,8.3824,8.3377,8.3009,8.3432,8.417,8.3784,8.4402,8.5492,8.5492,8.5492,8.5402,8.4893,8.4175,8.3397,8.2806,8.2148,8.1452,8.0764,8.1063,8.1759,8.2417,8.2597,8.2896,8.4175,8.3517,8.2627,8.2776,8.3038,8.3217,8.2866,8.2687,8.2597,8.2597,7.8398,7.4991,7.5281,7.0467,6.6614,6.6614,6.5735,6.5032,6.4898,6.5107,6.5333,6.5459,6.586,6.6112,6.6112,6.6112,6.6112,6.6112,6.6112,6.6112,6.6112,6.3798,6.1846,6.0294,5.7938,5.582,5.3889,5.3395,5.2662,5.1631,5.084,5.0156,4.9414,4.4941,4.2878,4.2389,3.8274,3.6685,3.6846,3.7095,3.7285,3.7431,3.7695,3.7053,3.5986,9.2324,9.3064,9.3706,9.4045,9.4417,9.489,9.5635,9.6041,9.6548,9.7326,9.6785,9.6582,9.7326,9.6751,9.6447,9.6819,9.6853,9.6853,9.6853,9.6853,9.6683,9.6345,9.665,9.6345,9.5263,9.5229,9.489,9.418,9.418,9.418,9.418,9.418,9.2821,9.0418,8.9285,8.7638,8.5635,8.488,8.434,8.3971,8.3569,8.3768,8.4298,8.4239,8.4833,8.5731,8.606,8.615,8.612,8.5761,8.5222,8.4624,8.4265,8.3487,8.2589,8.1931,8.2028,8.2447,8.3038,8.3217,8.3547,8.4863,8.4654,8.4085,8.3756,8.3457,8.3247,8.3247,8.3016,8.2806,8.2806,7.9634,7.6679,7.582,7.174,6.8259,6.7146,6.6011,6.5183,6.4881,6.5107,6.5383,6.566,6.5936,6.6112,6.6112,6.6112,6.6112,6.6112,6.6112,6.6112,6.6112,6.329,6.1353,6.0294,5.7451,5.5109,5.3334,5.3093,5.2462,5.1358,5.0781,5.0137,4.9278,4.4923,4.2895,4.2389,3.8274,3.67,3.6846,3.7022,3.7183,3.7344,3.757,3.7003,3.5977,9.2561,9.3233,9.3977,9.4586,9.5296,9.6041,9.6815,9.7428,9.7867,9.8003,9.7461,9.7326,9.7935,9.7428,9.7326,9.7969,9.8003,9.8003,9.8003,9.8003,9.7732,9.7089,9.7664,9.736,9.6007,9.5872,9.5263,9.4176,9.3909,9.3939,9.4176,9.3939,9.2253,8.951,8.9348,8.774,8.5111,8.5111,8.4826,8.435,8.4018,8.3973,8.4064,8.441,8.4893,8.5462,8.624,8.6608,8.6728,8.6728,8.6299,8.5851,8.5731,8.4953,8.3867,8.3158,8.2956,8.3106,8.3688,8.3777,8.4047,8.5521,8.5611,8.5282,8.4953,8.3965,8.3285,8.3786,8.3397,8.2956,8.2956,8.0766,7.8212,7.5831,7.2674,6.9661,6.7345,6.6011,6.5258,6.5157,6.5233,6.5509,6.6061,6.6112,6.6112,6.6112,6.6112,6.6112,6.6112,6.6112,6.6112,6.6112,6.2981,6.0971,6.0317,5.7101,5.4646,5.2992,5.2992,5.2423,5.126,5.0898,5.0273,4.9278,4.5083,4.308,4.2389,3.8274,3.6758,3.7007,3.7007,3.7168,3.7417,3.7374,3.6858,3.6121,9.33,9.4045,9.4586,9.4687,9.5296,9.6041,9.6815,9.6985,9.7258,9.7935,9.7901,9.7901,9.8003,9.7901,9.7901,9.8003,9.8003,9.8003,9.8003,9.8003,9.7969,9.7867,9.7969,9.7597,9.6781,9.6108,9.6007,9.6477,9.5195,9.5195,9.6443,9.5161,9.3051,9.0321,8.9607,8.774,8.5111,8.5111,8.4674,8.3975,8.3938,8.3551,8.3062,8.3606,8.3867,8.4106,8.5402,8.621,8.6728,8.6728,8.6668,8.6449,8.5881,8.5581,8.5192,8.3965,8.3568,8.3718,8.4414,8.4136,8.4136,8.606,8.5252,8.4226,8.5312,8.4983,8.4474,8.4564,8.4017,8.3568,8.3568,8.1437,7.8865,7.6359,7.29,6.9661,6.7345,6.6011,6.5107,6.4672,6.5007,6.5509,6.6061,6.6112,6.6112,6.6112,6.6112,6.6112,6.6112,6.6112,6.6112,6.6112,6.5613,6.371,6.0339,5.9772,5.7312,5.2992,5.2992,5.2263,5.0879,5.0449,5.0,4.9258,4.4732,4.2775,4.2389,3.8274,3.6626,3.667,3.667,3.67,3.6723,3.655,3.5941,3.5176,9.4146,9.4823,9.5432,9.5838,9.6176,9.665,9.7394,9.7495,9.7631,9.7969,9.8003,9.8003,9.8003,9.8003,9.8003,9.8003,9.8003,9.8003,9.8003,9.8003,9.8003,9.8003,9.8003,9.7867,9.7529,9.6379,9.6142,9.6917,9.4992,9.4417,9.5026,9.3595,9.1801,8.9768,8.8646,8.6979,8.5111,8.5111,8.4638,8.3901,8.3901,8.3454,8.2866,8.3487,8.3688,8.3867,8.5222,8.5881,8.618,8.6578,8.6728,8.6668,8.6329,8.6,8.5581,8.4983,8.4286,8.3837,8.4534,8.4465,8.4564,8.5821,8.5761,8.5521,8.612,8.5731,8.5043,8.4286,8.4196,8.4055,8.3337,8.2153,8.0516,7.803,7.4457,7.1269,6.9231,6.7101,6.566,6.5409,6.5333,6.5509,6.6061,6.6112,6.6112,6.6112,6.6112,6.6112,6.6112,6.581,6.5785,6.6112,6.3681,6.1717,6.0294,5.8145,5.5671,5.2992,5.2992,5.2243,5.0801,5.0605,5.0293,4.9627,4.5066,4.3115,4.276,3.8415,3.6597,3.6597,3.6597,3.6495,3.6329,3.6452,3.5835,3.5059]},{"header":{"parameterUnit":"m.s-1","parameterCategory":1,"la1":30.6,"la2":28.766,"lo1":-90.7593,"lo2":-88.6598,"dy":0.0162,"dx":0.0183,"nx":116,"ny":114,"refTime":"2023-11-14T06:00:00:Z","depth":0,"parameterNumber":3,"parameterNumberName":"V-component_of_WINDS"},"data":[0.0,0.0,0.0,0.0,0.0,0.0,0.0,0.0,0.0,0.0,0.0,0.0,0.0,0.0,0.0,0.0,0.0,0.0,0.0,0.0,0.0,0.0,0.0,0.0,0.0,0.0,0.0,0.0,0.0,0.0,0.0,0.0,0.0,0.0,0.0,0.0,0.0,0.0,0.0,0.0,0.0,0.0,0.0,0.0,0.0,0.0,0.0,0.0,0.0,0.0,0.0,0.0,0.0,0.0,0.0,0.0,0.0,0.0,0.0,0.0,0.0,0.0,0.0,0.0,0.0,0.0,0.0,0.0,0.0,0.0,0.0,0.0,0.0,0.0,0.0,0.0,0.0,0.0,0.0,0.0,0.0,0.0,0.0,0.0,0.0,0.0,0.0,0.0,0.0,0.0,0.0,0.0,0.0,0.0,0.0,0.0,0.0,0.0,0.0,0.0,0.0,0.0,0.0,0.0,0.0,0.0,0.0,0.0,0.0,0.0,0.0,0.0,0.0,0.0,0.0,0.0,0.0,0.0,0.0,0.0,0.0,0.0,0.0,0.0,0.0,0.0,0.0,0.0,0.0,0.0,0.0,0.0,0.0,0.0,0.0,0.0,0.0,0.0,0.0,0.0,0.0,0.0,0.0,0.0,0.0,0.0,0.0,0.0,0.0,0.0,0.0,0.0,0.0,0.0,0.0,0.0,0.0,0.0,0.0,0.0,0.0,0.0,0.0,0.0,0.0,0.0,0.0,0.0,0.0,0.0,0.0,0.0,0.0,0.0,0.0,0.0,0.0,0.0,0.0,0.0,0.0,0.0,0.0,0.0,0.0,0.0,0.0,0.0,0.0,0.0,0.0,0.0,0.0,0.0,0.0,0.0,0.0,0.0,0.0,0.0,0.0,0.0,0.0,0.0,0.0,0.0,0.0,0.0,0.0,0.0,0.0,0.0,0.0,0.0,0.0,0.0,0.0,0.0,0.0,0.0,0.0,0.0,0.0,0.0,0.0,0.0,0.0,0.0,0.0,0.0,0.0,0.0,0.0,0.0,0.0,0.0,0.0,0.0,0.0,0.0,0.0,0.0,0.0,0.0,0.0,0.0,0.0,0.0,0.0,0.0,0.0,0.0,0.0,0.0,0.0,0.0,0.0,0.0,0.0,0.0,0.0,0.0,0.0,0.0,0.0,0.0,0.0,0.0,0.0,0.0,0.0,0.0,0.0,0.0,0.0,0.0,0.0,0.0,0.0,0.0,0.0,0.0,0.0,0.0,0.0,0.0,0.0,0.0,0.0,0.0,0.0,0.0,0.0,0.0,0.0,0.0,0.0,0.0,0.0,0.0,0.0,0.0,0.0,0.0,0.0,0.0,0.0,0.0,0.0,0.0,0.0,0.0,0.0,0.0,0.0,0.0,0.0,0.0,0.0,0.0,0.0,0.0,0.0,0.0,0.0,0.0,0.0,0.0,0.0,0.0,0.0,0.0,0.0,0.0,0.0,0.0,0.0,0.0,0.0,0.0,0.0,0.0,0.0,0.0,0.0,0.0,0.0,0.0,0.0,0.0,0.0,0.0,0.0,0.0,0.0,0.0,0.0,0.0,0.0,0.0,0.0,0.0,0.0,0.0,0.0,0.0,0.0,0.0,0.0,0.0,0.0,0.0,0.0,0.0,0.0,0.0,0.0,0.0,0.0,0.0,0.0,0.0,0.0,0.0,0.0,0.0,0.0,0.0,0.0,0.0,0.0,0.0,0.0,0.0,0.0,0.0,0.0,0.0,0.0,0.0,0.0,0.0,0.0,0.0,0.0,0.0,0.0,0.0,0.0,0.0,0.0,0.0,0.0,0.0,0.0,0.0,0.0,0.0,0.0,0.0,0.0,0.0,0.0,0.0,0.0,0.0,0.0,0.0,0.0,0.0,0.0,0.0,0.0,0.0,0.0,0.0,0.0,0.0,0.0,0.0,0.0,0.0,0.0,0.0,0.0,0.0,0.0,0.0,0.0,0.0,0.0,0.0,0.0,0.0,0.0,0.0,0.0,0.0,0.0,0.0,0.0,0.0,0.0,0.0,0.0,0.0,0.0,0.0,0.0,0.0,0.0,0.0,0.0,0.0,0.0,0.0,0.0,0.0,0.0,0.0,0.0,0.0,0.0,0.0,0.0,0.0,0.0,0.0,0.0,0.0,0.0,0.0,0.0,0.0,0.0,0.0,0.0,0.0,0.0,0.0,0.0,0.0,0.0,0.0,0.0,0.0,0.0,0.0,0.0,0.0,0.0,0.0,0.0,0.0,0.0,0.0,0.0,0.0,0.0,0.0,0.0,0.0,0.0,0.0,0.0,0.0,0.0,0.0,0.0,0.0,0.0,0.0,0.0,0.0,0.0,0.0,0.0,0.0,0.0,0.0,0.0,0.0,0.0,0.0,0.0,0.0,0.0,0.0,0.0,0.0,0.0,0.0,0.0,0.0,0.0,0.0,0.0,0.0,0.0,0.0,0.0,0.0,0.0,0.0,0.0,0.0,0.0,0.0,0.0,0.0,0.0,0.0,0.0,0.0,0.0,0.0,0.0,0.0,0.0,0.0,0.0,0.0,0.0,0.0,0.0,0.0,0.0,0.0,0.0,0.0,0.0,0.0,0.0,0.0,0.0,0.0,0.0,0.0,0.0,0.0,0.0,0.0,0.0,0.0,0.0,0.0,0.0,0.0,0.0,0.0,0.0,0.0,0.0,0.0,0.0,0.0,0.0,0.0,0.0,0.0,0.0,0.0,0.0,0.0,0.0,0.0,0.0,0.0,0.0,0.0,0.0,0.0,0.0,0.0,0.0,0.0,0.0,0.0,0.0,0.0,0.0,0.0,0.0,0.0,0.0,0.0,0.0,0.0,0.0,0.0,0.0,0.0,0.0,0.0,0.0,0.0,0.0,0.0,0.0,0.0,0.0,0.0,0.0,0.0,0.0,0.0,0.0,0.0,0.0,0.0,0.0,0.0,0.0,0.0,0.0,0.0,0.0,0.0,0.0,0.0,0.0,0.0,0.0,0.0,0.0,0.0,0.0,0.0,0.0,0.0,0.0,0.0,0.0,0.0,0.0,0.0,0.0,0.0,0.0,0.0,0.0,0.0,0.0,0.0,0.0,0.0,0.0,0.0,0.0,0.0,0.0,0.0,0.0,0.0,0.0,0.0,0.0,0.0,0.0,0.0,0.0,0.0,0.0,0.0,0.0,0.0,0.0,0.0,0.0,0.0,0.0,0.0,0.0,0.0,0.0,0.0,0.0,0.0,0.0,0.0,0.0,0.0,0.0,0.0,0.0,0.0,0.0,0.0,0.0,0.0,0.0,0.0,0.0,0.0,0.0,0.0,0.0,0.0,0.0,0.0,0.0,0.0,0.0,0.0,0.0,0.0,0.0,0.0,0.0,0.0,0.0,0.0,0.0,0.0,0.0,0.0,0.0,0.0,0.0,0.0,0.0,0.0,0.0,0.0,0.0,0.0,0.0,0.0,0.0,0.0,0.0,0.0,0.0,0.0,0.0,0.0,0.0,0.0,0.0,0.0,0.0,0.0,0.0,0.0,0.0,0.0,0.0,0.0,0.0,0.0,0.0,0.0,0.0,0.0,0.0,0.0,0.0,0.0,0.0,0.0,0.0,0.0,0.0,0.0,0.0,0.0,0.0,0.0,0.0,0.0,0.0,0.0,0.0,0.0,0.0,0.0,0.0,0.0,0.0,0.0,0.0,0.0,0.0,0.0,0.0,0.0,0.0,0.0,0.0,0.0,0.0,0.0,0.0,0.0,0.0,0.0,0.0,0.0,0.0,0.0,0.0,0.0,0.0,0.0,0.0,0.0,0.0,0.0,0.0,0.0,0.0,0.0,0.0,0.0,0.0,0.0,0.0,0.0,0.0,0.0,0.0,0.0,0.0,0.0,0.0,0.0,0.0,0.0,0.0,0.0,0.0,0.0,0.0,0.0,0.0,0.0,0.0,0.0,0.0,0.0,0.0,0.0,0.0,0.0,0.0,0.0,0.0,0.0,0.0,0.0,0.0,0.0,0.0,0.0,0.0,0.0,0.0,0.0,0.0,0.0,0.0,0.0,0.0,0.0,0.0,0.0,0.0,0.0,0.0,0.0,0.0,0.0,0.0,0.0,0.0,0.0,0.0,0.0,0.0,0.0,0.0,0.0,0.0,0.0,0.0,0.0,0.0,0.0,0.0,0.0,0.0,0.0,0.0,0.0,0.0,0.0,0.0,0.0,0.0,0.0,0.0,0.0,0.0,0.0,0.0,0.0,0.0,0.0,0.0,0.0,0.0,0.0,0.0,0.0,0.0,0.0,0.0,0.0,0.0,0.0,0.0,0.0,0.0,0.0,0.0,0.0,0.0,0.0,0.0,0.0,0.0,0.0,0.0,0.0,0.0,0.0,0.0,0.0,0.0,0.0,0.0,0.0,0.0,0.0,0.0,0.0,0.0,0.0,0.0,0.0,0.0,0.0,0.0,0.0,0.0,0.0,0.0,0.0,0.0,0.0,0.0,0.0,0.0,0.0,0.0,0.0,0.0,0.0,0.0,0.0,0.0,0.0,0.0,0.0,0.0,0.0,0.0,0.0,0.0,0.0,0.0,0.0,0.0,0.0,0.0,0.0,0.0,0.0,0.0,0.0,0.0,0.0,0.0,0.0,0.0,0.0,0.0,0.0,0.0,0.0,0.0,0.0,0.0,0.0,0.0,0.0,0.0,0.0,0.0,0.0,0.0,0.0,0.0,0.0,0.0,0.0,0.0,0.0,0.0,0.0,0.0,0.0,0.0,0.0,0.0,0.0,0.0,0.0,0.0,0.0,0.0,0.0,0.0,0.0,0.0,0.0,0.0,0.0,0.0,0.0,0.0,0.0,0.0,0.0,0.0,0.0,0.0,0.0,0.0,0.0,0.0,0.0,0.0,0.0,0.0,0.0,0.0,0.0,0.0,0.0,0.0,0.0,0.0,0.0,0.0,0.0,0.0,0.0,0.0,0.0,0.0,0.0,0.0,0.0,0.0,0.0,0.0,0.0,0.0,0.0,0.0,0.0,0.0,0.0,0.0,0.0,0.0,0.0,0.0,0.0,0.0,0.0,0.0,0.0,0.0,0.0,0.0,0.0,0.0,0.0,0.0,0.0,0.0,0.0,0.0,0.0,0.0,0.0,0.0,0.0,0.0,0.0,0.0,0.0,0.0,0.0,0.0,0.0,0.0,0.0,0.0,0.0,0.0,0.0,0.0,0.0,0.0,0.0,0.0,0.0,0.0,0.0,0.0,0.0,0.0,0.0,0.0,0.0,0.0,0.0,0.0,0.0,0.0,0.0,0.0,0.0,0.0,0.0,0.0,0.0,0.0,0.0,0.0,0.0,0.0,0.0,0.0,0.0,0.0,0.0,0.0,0.0,0.0,0.0,0.0,0.0,0.0,0.0,0.0,0.0,0.0,0.0,0.0,0.0,0.0,0.0,0.0,0.0,0.0,0.0,0.0,0.0,0.0,0.0,0.0,0.0,0.0,0.0,0.0,0.0,0.0,0.0,0.0,0.0,0.0,0.0,0.0,0.0,0.0,0.0,0.0,0.0,0.0,0.0,0.0,0.0,0.0,0.0,0.0,0.0,0.0,0.0,0.0,0.0,0.0,0.0,0.0,0.0,0.0,0.0,0.0,0.0,0.0,0.0,0.0,0.0,0.0,0.0,0.0,0.0,0.0,0.0,0.0,0.0,0.0,0.0,0.0,0.0,0.0,0.0,0.0,0.0,0.0,0.0,0.0,0.0,0.0,0.0,0.0,0.0,0.0,0.0,0.0,0.0,0.0,0.0,0.0,0.0,0.0,0.0,0.0,0.0,0.0,0.0,0.0,0.0,0.0,0.0,0.0,0.0,0.0,0.0,0.0,0.0,0.0,0.0,0.0,0.0,0.0,0.0,0.0,0.0,0.0,0.0,0.0,0.0,0.0,0.0,0.0,0.0,0.0,0.0,0.0,0.0,0.0,0.0,0.0,0.0,0.0,0.0,0.0,0.0,0.0,0.0,0.0,0.0,0.0,0.0,0.0,0.0,0.0,0.0,0.0,0.0,0.0,0.0,0.0,0.0,0.0,0.0,4.447,4.4231,0.0,0.0,0.0,0.0,0.0,0.0,0.0,0.0,0.0,0.0,0.0,0.0,0.0,0.0,0.0,0.0,0.0,0.0,0.0,0.0,0.0,0.0,0.0,0.0,0.0,0.0,0.0,0.0,0.0,0.0,0.0,0.0,0.0,0.0,0.0,0.0,0.0,2.4707,2.4948,2.5685,2.6839,2.6834,2.6372,2.5599,0.0,0.0,0.0,0.0,0.0,0.0,0.0,0.0,0.0,0.0,0.0,0.0,0.0,0.0,0.0,0.0,0.0,0.0,0.0,0.0,0.0,0.0,0.0,0.0,0.0,0.0,0.0,0.0,0.0,0.0,0.0,0.0,0.0,0.0,0.0,0.0,0.0,0.0,0.0,0.0,0.0,0.0,0.0,0.0,0.0,0.0,0.0,0.0,0.0,0.0,0.0,0.0,0.0,0.0,0.0,0.0,0.0,0.0,0.0,0.0,0.0,0.0,0.0,0.0,0.0,0.0,0.0,0.0,0.0,0.0,4.7801,4.7094,0.0,0.0,0.0,0.0,0.0,0.0,0.0,0.0,0.0,0.0,0.0,0.0,0.0,0.0,0.0,0.0,0.0,0.0,0.0,0.0,0.0,0.0,0.0,1.8479,1.9156,2.0296,1.9796,2.0194,0.0,0.0,0.0,0.0,0.0,0.0,2.3891,2.3854,2.4434,2.5667,2.6516,2.7849,2.9608,3.0494,3.0226,2.8939,2.8485,0.0,0.0,0.0,0.0,0.0,0.0,0.0,0.0,0.0,0.0,0.0,0.0,0.0,0.0,0.0,0.0,0.0,0.0,0.0,0.0,0.0,0.0,0.0,0.0,0.0,0.0,0.0,0.0,0.0,0.0,0.0,0.0,0.0,0.0,0.0,0.0,0.0,0.0,0.0,0.0,0.0,0.0,0.0,0.0,0.0,0.0,0.0,0.0,0.0,0.0,0.0,0.0,0.0,0.0,0.0,0.0,0.0,0.0,0.0,0.0,0.0,0.0,0.0,5.1266,5.257,5.3156,5.4544,5.5822,5.6734,5.201,5.0886,5.2245,5.1316,0.0,0.0,0.0,0.0,0.0,0.0,0.0,0.0,0.0,0.0,0.0,0.0,0.0,0.0,0.0,0.0,0.0,0.0,0.0,0.0,0.0,1.8927,1.943,1.9934,1.988,2.0395,2.1782,0.0,0.0,0.0,0.0,0.0,2.3124,2.2919,2.3191,2.4015,2.8207,3.1529,3.3982,3.4102,3.439,3.4629,3.101,3.0029,3.1021,0.0,0.0,0.0,0.0,0.0,0.0,0.0,0.0,0.0,0.0,0.0,0.0,0.0,0.0,0.0,0.0,0.0,0.0,0.0,0.0,0.0,0.0,0.0,0.0,0.0,0.0,0.0,0.0,0.0,0.0,0.0,0.0,0.0,0.0,0.0,0.0,0.0,0.0,0.0,0.0,0.0,3.5782,3.5332,0.0,0.0,0.0,0.0,0.0,0.0,0.0,0.0,0.0,0.0,0.0,0.0,0.0,4.879,5.1395,5.4029,5.5136,5.4769,5.8141,5.982,5.9937,6.0143,6.0816,6.1726,6.0997,0.0,5.5272,5.5681,0.0,0.0,0.0,0.0,0.0,0.0,0.0,0.0,0.0,0.0,0.0,0.0,0.0,0.0,0.0,0.0,0.0,0.0,0.0,0.0,0.0,1.9902,2.0918,2.1265,2.2676,2.3429,2.3175,2.2876,0.0,0.0,0.0,2.1357,2.2957,2.3131,2.5006,2.8649,3.2529,3.5328,3.7058,3.7346,3.7495,3.7453,3.562,3.3799,3.2083,3.0782,0.0,0.0,0.0,0.0,0.0,0.0,0.0,0.0,0.0,0.0,0.0,0.0,0.0,0.0,0.0,0.0,0.0,0.0,0.0,0.0,0.0,0.0,0.0,0.0,0.0,0.0,0.0,0.0,0.0,0.0,0.0,0.0,0.0,0.0,0.0,0.0,0.0,0.0,0.0,3.5732,3.6836,3.5633,3.686,3.7085,0.0,0.0,0.0,0.0,0.0,0.0,0.0,0.0,0.0,5.3693,5.4113,5.575,5.8831,6.0171,6.1075,6.1506,6.3849,6.5141,6.5519,6.6215,6.6734,6.7035,6.7002,6.5433,6.2706,5.9496,5.6912,5.4939,0.0,0.0,0.0,0.0,5.6482,5.7332,0.0,0.0,0.0,0.0,0.0,0.0,0.0,0.0,0.0,0.0,0.0,0.0,1.9396,2.1406,2.2952,2.3547,2.5428,2.6111,2.504,2.4328,2.3607,2.2826,2.1594,2.1642,2.3254,2.4695,2.8287,3.4126,3.6867,3.8984,4.0423,4.0663,4.0663,4.0399,4.011,3.795,3.4388,3.273,3.1424,3.0338,0.0,0.0,0.0,0.0,0.0,0.0,0.0,0.0,0.0,0.0,0.0,0.0,0.0,0.0,0.0,0.0,0.0,0.0,0.0,0.0,0.0,0.0,0.0,0.0,0.0,0.0,0.0,0.0,0.0,0.0,0.0,0.0,0.0,0.0,0.0,0.0,0.0,3.7312,3.8391,3.6585,3.8994,3.9572,0.0,0.0,0.0,0.0,0.0,0.0,4.803,4.9847,5.3812,6.0354,6.0872,6.2564,6.5689,6.5864,6.6444,6.7405,6.8741,6.9651,7.0214,7.1319,7.1743,7.1674,7.1782,7.0972,6.9221,6.3683,6.0312,5.8595,5.77,5.6814,5.6255,5.8124,5.9128,5.9811,0.0,0.0,0.0,0.0,0.0,0.0,0.0,0.0,0.0,0.0,0.0,1.9902,2.1543,2.3655,2.5415,2.6671,2.6947,2.7078,2.7058,2.4323,2.354,2.5424,2.3077,2.2451,2.4,2.8066,3.2888,3.8476,4.0162,4.2303,4.4772,4.4292,4.434,4.4748,4.3746,4.1924,3.9372,3.5235,3.4004,3.4417,3.0214,0.0,0.0,0.0,0.0,0.0,0.0,0.0,0.0,0.0,0.0,0.0,0.0,0.0,0.0,0.0,0.0,0.0,0.0,0.0,0.0,0.0,0.0,0.0,0.0,0.0,0.0,0.0,0.0,0.0,0.0,0.0,0.0,0.0,0.0,0.0,0.0,0.0,0.0,3.8994,4.2986,0.0,0.0,0.0,0.0,4.4213,4.6296,4.9502,5.3917,5.5865,5.9555,6.5325,6.6788,6.8388,7.0332,7.0976,7.1359,7.1417,7.2689,7.3507,7.3959,7.4603,7.4939,7.5085,7.5708,7.4729,7.2379,6.8623,6.5199,6.2347,6.2606,6.1771,6.0501,6.15,6.1883,6.2093,0.0,0.0,0.0,0.0,0.0,0.0,0.0,0.0,1.7556,1.7949,1.9727,2.1621,2.332,2.6197,2.8406,2.9414,3.05,3.035,2.8416,2.651,2.5252,2.4879,2.2655,2.343,2.7739,3.1775,3.6482,4.1899,4.413,4.591,4.7161,4.6968,4.6631,4.6126,4.5965,4.4863,4.2817,3.9067,3.6776,3.5383,3.2201,3.0144,0.0,0.0,0.0,0.0,0.0,0.0,0.0,0.0,0.0,0.0,0.0,0.0,0.0,0.0,0.0,0.0,0.0,0.0,0.0,0.0,0.0,0.0,0.0,0.0,0.0,0.0,0.0,0.0,0.0,0.0,0.0,0.0,0.0,0.0,0.0,0.0,0.0,4.3765,4.7757,0.0,4.5623,4.7099,4.8652,4.9378,5.2524,5.6292,6.0616,6.3314,6.6766,7.1283,7.2718,7.3908,7.5011,7.5243,7.5507,7.5765,7.6232,7.6651,7.7122,7.7262,7.732,7.7235,7.6991,7.658,7.5881,7.3776,7.0219,6.604,6.5742,6.4994,6.4218,6.4964,6.5503,6.5982,0.0,0.0,0.0,0.0,0.0,0.0,0.0,0.0,1.7422,1.8108,2.0488,2.3027,2.5449,2.8699,3.1525,3.3695,3.3857,3.3215,3.1636,2.8697,2.6415,2.5167,2.4262,2.639,3.1977,3.5861,4.0163,4.4907,4.6992,4.8315,4.8854,4.8628,4.8262,4.7696,4.7432,4.6907,4.606,4.3056,4.0106,3.7121,3.4345,3.2781,3.179,0.0,0.0,0.0,0.0,0.0,0.0,0.0,0.0,0.0,0.0,0.0,0.0,0.0,0.0,0.0,0.0,0.0,0.0,0.0,0.0,0.0,0.0,0.0,0.0,0.0,0.0,0.0,0.0,0.0,0.0,0.0,0.0,0.0,0.0,4.4543,4.7782,4.7958,5.2042,5.3598,5.0469,5.2725,5.4696,5.5452,5.9198,6.3095,6.6832,6.9297,7.2208,7.5729,7.6869,7.774,7.8378,7.8532,7.8695,7.8962,7.8909,7.9123,7.9536,7.9262,7.916,7.9112,7.8874,7.8506,7.81,7.7472,7.4749,7.0859,6.9752,6.8914,6.8405,6.8824,6.9123,6.9305,0.0,0.0,0.0,0.0,0.0,0.0,0.0,1.6426,1.7155,1.8442,2.0957,2.4102,2.7949,3.1094,3.4724,3.9261,3.6667,3.5281,3.6466,3.0524,2.6822,2.6525,2.8138,3.141,3.648,4.0206,4.3914,4.7617,4.8676,4.948,4.9961,4.9456,4.9421,4.9714,4.8275,4.8198,4.9023,4.7062,4.3934,4.003,3.6722,3.5794,3.608,0.0,0.0,0.0,0.0,0.0,0.0,0.0,0.0,0.0,0.0,0.0,0.0,0.0,0.0,0.0,0.0,0.0,0.0,0.0,0.0,0.0,0.0,0.0,0.0,0.0,0.0,0.0,0.0,0.0,0.0,0.0,0.0,0.0,4.309,4.7481,5.0845,5.1548,5.5917,5.7851,5.5272,5.9506,6.2437,6.2587,6.6326,6.9765,7.2472,7.3686,7.5579,7.8398,7.9075,7.9753,8.0352,8.0795,8.1,8.1,8.0771,8.0927,8.1247,8.0623,8.0482,8.0853,8.1512,8.0674,7.8908,7.9567,7.8663,7.6689,7.4749,7.3582,7.3043,7.3013,7.2565,7.1876,0.0,0.0,0.0,0.0,0.0,0.0,1.5566,1.6215,1.7155,1.8442,2.2518,2.6562,2.9824,3.3449,3.6514,3.8692,3.6083,3.3922,3.3003,2.835,2.6028,2.6974,3.0313,3.4819,4.0481,4.3044,4.6324,5.0407,5.1116,5.1501,5.1646,5.1501,5.1451,5.1428,5.085,5.0468,5.0199,4.9085,4.7514,4.5404,4.1297,3.8691,3.7019,0.0,0.0,0.0,0.0,0.0,0.0,0.0,0.0,0.0,0.0,0.0,0.0,0.0,0.0,0.0,0.0,0.0,0.0,0.0,0.0,0.0,0.0,0.0,0.0,0.0,0.0,0.0,0.0,0.0,0.0,0.0,4.4568,4.7581,4.8284,5.1975,5.5717,5.8704,6.1316,6.3291,6.427,6.6064,6.8213,7.0754,7.3186,7.5379,7.7328,7.8576,7.9639,8.041,8.1327,8.1923,8.2098,8.2575,8.2939,8.3214,8.3183,8.3089,8.2997,8.2818,8.2296,8.1512,8.1691,8.1212,8.0255,8.0464,7.9926,7.8753,7.6779,7.5881,7.5672,7.5258,7.4659,7.4065,0.0,0.0,0.0,0.0,0.0,0.0,1.5376,1.5825,1.6863,1.887,2.3201,2.7461,3.1035,3.4271,3.6952,3.8888,3.589,3.3246,3.1812,2.7895,2.7259,3.0905,3.3986,3.8387,4.4286,4.6461,4.9034,5.2163,5.2271,5.2416,5.2632,5.2562,5.2586,5.2641,5.2315,5.2109,5.1895,5.1114,5.0488,4.9708,4.6728,4.3901,4.1264,3.8266,3.7186,3.7034,3.5253,3.5305,3.5932,3.412,0.0,0.0,0.0,0.0,0.0,0.0,0.0,0.0,0.0,0.0,0.0,0.0,0.0,0.0,0.0,0.0,0.0,0.0,0.0,0.0,0.0,0.0,0.0,0.0,4.9095,5.2854,5.5265,5.7374,5.9985,6.3651,6.5132,6.695,6.9621,7.1042,7.3059,7.5919,7.8248,7.9955,8.0893,8.2092,8.2813,8.3075,8.3859,8.4424,8.4717,8.5162,8.5376,8.5308,8.5238,8.4958,8.4534,8.4226,8.3726,8.2978,8.2709,8.223,8.1601,8.1332,8.0823,8.0075,0.0,0.0,0.0,0.0,7.7293,7.6904,0.0,0.0,0.0,0.0,0.0,0.0,1.5352,1.5435,1.6543,1.9435,2.3298,2.7318,3.1397,3.3906,3.6348,3.8904,3.5465,3.2742,3.1892,2.8825,2.9991,3.6681,3.8582,4.2175,4.7921,5.0105,5.1947,5.3453,5.3008,5.3045,5.3503,5.3388,5.3497,5.3835,5.3329,5.3449,5.3999,5.3143,5.2928,5.3071,5.2,4.9841,4.6848,4.2707,4.1957,4.2688,3.9572,3.8291,3.7889,3.7135,0.0,0.0,0.0,0.0,0.0,0.0,0.0,0.0,0.0,0.0,0.0,0.0,0.0,0.0,0.0,0.0,0.0,0.0,0.0,0.0,0.0,0.0,0.0,0.0,5.3658,5.8052,6.2982,6.3502,6.4427,6.7237,6.812,6.9787,7.3014,7.5354,7.7474,7.9347,8.2158,8.3732,8.3715,8.4608,0.0,0.0,0.0,8.6885,8.7476,8.7858,8.7766,8.7201,8.6948,8.6479,8.591,8.5312,8.4983,8.4803,8.4256,8.3666,8.2956,8.2297,8.1601,8.0943,8.0285,8.0075,8.0135,8.0075,8.0045,7.9956,0.0,0.0,0.0,0.0,0.0,0.0,1.5376,1.5718,1.6809,1.9102,2.3398,2.7109,2.9316,3.2715,3.5054,3.562,3.271,3.0809,3.0797,3.0811,3.3746,4.0311,4.3078,4.6599,5.1261,5.3374,5.4759,5.5512,5.5733,5.5884,5.5982,5.5998,5.6175,5.6526,5.5943,5.5953,5.6282,5.5268,5.4842,5.4813,5.3683,5.1322,4.8209,4.6024,4.4543,4.3438,4.1934,4.216,4.2808,4.0501,4.045,4.0877,3.809,3.6835,0.0,0.0,0.0,0.0,0.0,0.0,0.0,0.0,0.0,0.0,0.0,0.0,0.0,0.0,0.0,0.0,0.0,0.0,0.0,5.3557,5.8679,6.3722,6.8433,7.062,7.1634,7.1304,7.2214,7.4677,7.9197,8.0983,8.2592,8.4426,8.6062,8.6967,8.6823,8.7037,8.7364,8.7858,8.7741,8.7751,8.7899,8.8338,8.8482,8.8362,8.7785,0.0,8.7317,8.7197,8.6539,8.5521,8.594,8.5432,8.4295,8.3636,8.2978,8.2357,8.1661,8.1759,8.2148,8.1601,8.1392,8.1302,0.0,0.0,0.0,0.0,0.0,0.0,1.5357,1.5425,1.6378,1.8963,2.2305,2.5273,2.7422,2.9766,3.1016,3.0586,2.9099,2.9289,3.1879,3.2786,3.6993,4.5385,4.6617,4.9591,5.4896,5.5988,5.6862,5.757,5.7534,5.7489,5.7527,5.772,5.7764,5.7721,5.7898,5.79,5.7813,5.7298,5.6897,5.6595,5.6018,5.4637,5.2603,4.9841,4.8284,4.7405,4.6306,4.5874,4.5593,4.3937,4.3413,4.3011,4.0803,3.9346,3.8065,0.0,0.0,0.0,0.0,0.0,0.0,0.0,0.0,0.0,0.0,0.0,0.0,0.0,0.0,4.3263,4.6878,0.0,5.4461,5.9195,6.3777,6.8044,7.1835,7.465,7.613,7.5515,7.6548,7.8756,8.2425,8.3614,8.5041,8.7142,8.8215,8.8809,8.8958,8.9507,8.9897,9.0151,9.0246,9.0127,8.9799,9.0006,8.983,8.9213,8.8843,8.8514,8.8185,8.8185,8.7646,8.6689,8.6689,8.612,8.5162,8.4504,8.4235,8.4243,8.3876,8.3547,8.3217,8.2888,8.2769,8.2679,0.0,0.0,0.0,0.0,0.0,0.0,0.0,1.5195,1.6011,1.8709,2.0918,2.3064,2.5297,2.6451,2.6724,2.5864,2.6384,2.8731,3.3458,3.4808,3.9834,4.9736,4.9563,5.1804,5.7317,5.7742,5.8273,5.9153,5.8793,5.8796,5.9192,5.9409,5.9267,5.8868,5.9567,5.9583,5.9207,5.9207,5.888,5.8353,5.8252,5.7876,5.696,5.3557,5.2026,5.1574,5.0243,4.8529,4.6898,4.6577,4.5422,4.3966,4.3115,4.1909,4.0425,3.8417,3.691,0.0,0.0,0.0,0.0,0.0,0.0,0.0,0.0,3.9371,4.0601,4.4041,4.5799,4.8178,5.3121,5.6118,5.9458,6.4454,6.8066,7.1383,7.4851,7.7592,7.9582,8.0517,8.1037,8.2346,8.4797,8.5754,8.6978,8.8839,8.9699,9.034,9.0753,9.1642,9.2153,9.2238,9.2461,9.2344,9.1805,9.1686,9.1087,9.0081,8.9842,8.9512,8.9052,8.8933,8.8574,8.8035,8.7227,8.6419,8.5671,8.5132,8.5282,8.5881,8.5731,8.5222,8.4435,8.4166,8.4077,8.3957,0.0,0.0,0.0,0.0,0.0,0.0,0.0,0.0,1.6496,1.7949,2.002,2.162,2.2345,2.3828,2.4434,2.3616,2.6769,3.0359,3.4072,3.6832,4.216,5.0764,5.1773,5.3529,5.647,5.7822,5.8737,5.9266,5.9595,6.061,6.2283,6.1888,6.1612,6.1537,6.119,6.0964,6.0914,6.0914,6.0588,6.001,5.9508,5.9006,5.829,5.6394,5.4737,5.3155,5.1071,4.8636,4.6446,4.6873,4.6245,4.5271,4.5175,4.4995,4.4217,4.1078,3.8642,3.6884,3.6281,3.6155,3.6683,3.8642,3.8919,3.9999,0.0,4.5668,4.6476,5.0293,5.2729,5.4988,5.7562,6.1065,6.4555,6.7643,7.0135,7.3509,7.8829,8.0835,8.3233,8.726,8.5874,8.5608,8.8131,8.9449,9.0178,9.0255,9.1454,9.2291,9.2588,9.2734,9.2979,9.3396,9.287,9.2554,9.2494,9.1925,9.1536,9.1386,9.0219,8.992,9.0358,8.983,8.9572,8.9423,8.8125,8.6868,8.5701,8.5611,8.597,8.6549,8.591,8.6329,8.7107,8.591,8.5492,8.5312,0.0,0.0,0.0,0.0,0.0,0.0,0.0,0.0,0.0,1.748,1.8652,1.961,2.0312,2.0762,2.0898,2.0566,2.5,3.0066,3.5332,3.9744,4.5889,5.4242,5.5786,5.7368,5.9361,6.1177,6.2032,6.1928,6.2349,6.2829,6.3324,6.34,6.3274,6.2998,6.3073,6.2964,6.2621,6.2295,6.1818,6.1266,6.0688,6.0136,5.9394,5.7412,5.5064,5.2477,5.0268,4.7908,0.0,4.497,4.507,4.5372,4.4719,4.4292,4.3564,4.1204,3.8944,3.7235,3.7311,3.804,3.917,4.0753,4.2409,4.4618,4.8203,4.9583,5.1214,5.5139,5.7449,5.9734,6.2948,6.5634,6.817,7.056,7.4257,7.7862,8.0934,8.3449,8.5886,8.8349,8.7395,8.7467,8.9801,9.1099,9.1863,9.2085,9.282,9.3467,9.3897,9.3867,9.3954,9.4169,9.39,9.3571,9.3182,9.2883,9.2374,9.1596,9.1057,9.0758,9.0597,9.0369,9.001,8.9632,8.8274,8.7377,8.6868,8.6868,8.7018,8.7287,8.7377,8.7556,8.7556,8.618,8.5701,8.5521,0.0,0.0,0.0,0.0,0.0,0.0,0.0,0.0,0.0,0.0,1.7676,1.8281,1.9023,1.881,1.8656,1.8773,2.3121,2.8576,3.5057,3.9941,4.6307,5.473,5.6948,5.8759,6.04,6.2687,6.3743,6.3607,6.3991,6.4242,6.4379,6.458,6.4479,6.4153,6.4421,6.4295,6.3877,6.345,6.2797,6.1969,6.1567,6.0613,5.9118,5.6759,5.3623,5.0243,4.8309,4.5924,4.3492,4.211,4.2409,4.3363,4.3011,4.2735,4.2258,4.0876,3.927,3.7914,3.799,3.9798,4.2032,4.3617,4.6376,4.9357,5.19,5.3748,5.5942,5.9357,6.1517,6.3726,6.6865,6.8899,7.0966,7.3617,7.7375,8.0785,8.3115,8.5249,8.6975,8.789,8.7401,8.768,8.9381,9.1118,9.2497,9.3336,9.3717,9.411,9.4575,9.4798,9.4888,9.4888,9.4888,9.4648,9.4139,9.375,9.3092,9.2165,9.1985,9.1494,9.0866,9.0687,9.0279,8.9662,8.8663,8.8155,8.7975,8.7975,8.8095,8.8274,8.8574,8.8394,8.7826,8.6689,8.6395,8.6463,0.0,0.0,0.0,0.0,0.0,0.0,0.0,0.0,0.0,0.0,0.0,0.0,0.0,1.8617,1.8773,1.9256,2.17,2.5886,3.2222,3.5698,4.1375,4.9922,5.3271,5.5755,5.7491,6.0394,6.2339,6.3197,6.3241,6.4187,6.6036,6.5509,6.5258,6.5208,6.4748,6.4496,6.4471,6.4471,6.3475,6.1994,6.1994,6.0035,5.6784,5.4049,5.0285,4.6326,4.5141,4.2308,3.8994,3.8366,3.8191,3.8517,4.0098,4.0951,4.1252,4.0675,4.0099,3.9396,3.8291,4.1178,4.5116,4.7914,5.067,5.3573,5.6922,5.893,6.0763,6.3073,6.5283,6.7166,6.8346,7.0355,7.3041,7.6769,7.842,8.1022,8.6024,8.6108,8.5905,8.6596,8.588,8.5667,8.6373,8.933,9.1977,9.3759,9.3892,9.411,9.4575,9.5217,9.5576,9.5576,9.5576,9.5546,9.5546,9.4229,9.3571,9.3511,9.2883,9.2224,9.1566,9.0896,9.0279,8.9722,8.9662,8.9273,8.8663,8.8663,8.9063,8.9602,8.8933,8.8663,8.8574,8.7885,8.8196,8.8783,0.0,0.0,0.0,0.0,0.0,0.0,0.0,0.0,0.0,0.0,0.0,0.0,0.0,0.0,0.0,0.0,2.1054,2.4826,2.9852,3.6612,4.2864,4.8324,5.4278,5.7836,5.8632,6.1077,6.2134,6.1732,6.3638,6.4309,6.3834,6.5178,6.5835,6.5835,6.5634,6.5559,6.5484,6.4404,6.4028,6.3927,6.1014,5.9118,5.7663,5.3457,4.8385,4.319,0.0,3.7637,3.5378,3.4048,3.46,3.5907,3.6459,3.7287,3.794,3.7363,3.8893,4.1001,4.208,4.5648,4.9866,5.3381,5.6068,5.8604,6.1607,6.3249,6.4605,6.6112,6.6413,6.6739,6.7869,7.0299,7.2848,7.4923,7.9962,8.4401,8.6577,8.8023,8.8248,8.6613,8.6442,8.6097,8.5308,8.7187,8.9732,9.3001,9.3512,9.4325,9.5845,9.6114,9.6234,9.6234,9.6234,9.6234,9.6234,9.5366,9.4708,9.4259,9.3122,9.2494,9.2254,9.2045,9.2045,9.2267,9.1357,9.0848,9.0608,9.016,8.986,8.9722,8.989,8.9711,8.9395,8.9727,9.0436,9.0875,0.0,0.0,0.0,0.0,0.0,0.0,0.0,0.0,0.0,0.0,0.0,0.0,0.0,0.0,0.0,0.0,0.0,2.3366,2.8063,3.3713,3.9054,4.3899,4.9079,5.2294,5.3317,5.5721,5.7076,5.7285,5.9865,6.0955,6.0661,6.2564,6.3676,6.4053,6.4053,6.4153,6.4254,6.2797,6.1918,6.114,5.7524,5.4988,5.2879,4.8284,4.3517,0.0,3.505,3.2893,3.1687,3.0809,3.1717,3.3348,3.3947,3.5303,3.6659,3.6459,3.9445,4.341,4.625,5.0268,5.4561,5.8453,6.1065,6.3224,6.5208,6.6513,6.7216,6.6965,6.6162,6.5509,6.5434,6.7424,7.0041,7.3153,7.884,8.3943,8.7067,8.8176,8.8018,8.6413,8.5803,8.5178,8.4435,8.5456,8.7918,9.2129,9.3131,9.4349,9.6158,9.6653,9.6892,9.6892,9.6892,9.6892,9.6892,9.6264,9.5606,9.4947,9.3601,9.3092,9.3302,9.3062,9.3182,9.3511,9.2434,9.1835,9.1566,9.0866,9.0399,9.007,9.0447,9.059,9.0598,9.0899,9.1629,9.2293,0.0,0.0,0.0,0.0,0.0,0.0,0.0,0.0,0.0,0.0,0.0,0.0,0.0,0.0,0.0,0.0,0.0,0.0,2.6503,2.7355,3.0492,3.6798,3.8402,4.0194,4.2384,4.5076,4.7663,5.0103,5.2253,5.4355,5.6374,5.7625,5.8755,5.9759,5.9734,6.006,6.0512,5.9357,5.7097,5.4094,5.1808,4.7983,4.3288,3.9446,3.6232,3.3345,3.0161,2.8605,2.8147,2.8681,2.971,3.1039,3.2738,3.515,3.7437,3.814,4.1907,4.6708,5.0569,5.4888,5.9232,6.2998,6.5559,6.7267,6.7769,6.8622,6.8477,6.5735,6.458,6.3466,6.124,6.2158,6.5304,7.1634,7.5539,8.0369,8.7733,8.7032,8.5852,8.6148,8.448,8.3397,8.3837,8.4555,8.6868,9.1327,9.2823,9.4169,9.5606,9.6862,9.7551,9.7551,9.7551,9.7551,9.7551,9.6922,9.6294,9.5636,9.4319,9.402,9.4648,9.396,9.3661,9.3691,9.2972,9.2314,9.1716,9.0956,9.0668,9.0721,9.0721,9.1345,9.2194,9.1554,9.2038,9.3252,0.0,0.0,0.0,0.0,0.0,0.0,0.0,0.0,0.0,0.0,0.0,0.0,0.0,0.0,0.0,0.0,0.0,0.0,2.1851,2.5471,2.8658,3.1133,3.5061,3.823,4.0387,4.157,4.2564,4.3382,4.6351,4.762,4.7275,5.0046,5.1674,5.2302,5.19,5.2026,5.2452,5.0888,5.0268,4.9974,4.6507,4.412,4.2235,3.8743,3.5152,3.1934,3.106,2.9352,2.7587,2.8122,3.0432,3.3345,3.5027,3.7161,3.9572,4.2183,4.6476,5.1272,5.5164,6.0035,6.4555,6.6815,6.8396,6.9396,6.9029,6.8296,6.6815,6.4028,6.104,5.8378,5.6607,6.1122,6.641,7.0438,7.8512,8.5823,9.0153,9.1302,9.1032,8.9157,8.9184,8.8663,8.6868,8.8144,8.9969,9.2194,9.2673,9.405,9.6862,9.782,9.8269,9.8269,9.8269,9.8269,9.8269,9.7611,9.6952,9.6324,9.5486,9.5187,9.5306,9.4648,9.4888,9.5769,9.405,9.3511,9.3721,9.2003,9.1773,9.2476,9.2476,9.3355,9.47,9.5165,9.5729,9.6396,0.0,0.0,0.0,0.0,0.0,0.0,0.0,0.0,0.0,0.0,0.0,0.0,0.0,0.0,0.0,0.0,0.0,0.0,0.0,2.2754,2.4931,2.6673,2.8977,3.1047,3.288,3.3658,3.4653,3.5909,3.9131,4.076,4.0887,4.3571,4.5144,4.5762,4.5599,4.5949,4.6602,4.5167,4.4338,0.0,0.0,3.8442,3.6833,3.4198,3.1838,2.9905,2.9698,2.9547,2.9754,3.1763,3.4073,3.6458,3.8617,4.148,4.4644,4.7707,5.1975,5.657,6.0437,6.4655,6.8221,6.9401,7.0355,7.033,6.7819,6.6538,6.4479,5.9469,5.6508,5.421,5.2051,5.7456,6.3688,6.8249,7.706,8.5141,9.0236,9.1679,9.1928,9.1175,9.1667,9.1357,8.9591,9.0938,9.2374,9.3391,9.375,9.4977,9.7371,9.8149,9.8493,9.8493,9.8493,9.8493,9.8493,9.8149,9.776,9.7401,9.6174,9.5875,9.6384,9.5456,9.5456,9.6055,9.4648,9.393,9.3674,9.2972,9.3068,9.3603,9.4004,9.5349,9.705,9.7074,9.7547,9.8283,0.0,0.0,0.0,0.0,0.0,0.0,0.0,0.0,0.0,0.0,0.0,0.0,0.0,0.0,0.0,0.0,0.0,0.0,0.0,0.0,2.0876,2.3227,2.2531,2.264,2.3835,2.4744,2.6346,2.863,3.1437,3.3742,3.5525,3.7337,3.8658,3.9511,3.9758,4.0449,4.1406,4.0324,3.8768,3.686,3.4929,3.2645,3.0211,0.0,2.8154,2.8047,2.7645,2.9478,3.2721,3.6986,3.9019,4.0301,4.3291,4.7129,5.1147,5.4059,5.7851,6.1893,6.5634,6.8648,7.0853,7.1209,7.1435,7.033,6.5602,6.3944,6.1291,5.3949,5.19,5.0648,4.8081,5.3152,5.9857,6.6444,7.4198,8.2125,8.9706,9.0663,9.1205,9.281,9.3062,9.2913,9.2344,9.3391,9.4379,9.5067,9.5725,9.6563,9.7581,9.8209,9.8493,9.8493,9.8598,9.8598,9.8493,9.8493,9.8493,9.8508,9.6713,9.6384,9.7341,9.6144,9.5606,9.5546,9.4888,9.4059,9.3228,9.3953,9.4543,9.5045,9.5722,9.7358,9.9307,9.8354,9.8679,9.9508,0.0,0.0,0.0,0.0,0.0,0.0,0.0,0.0,0.0,0.0,0.0,0.0,0.0,0.0,0.0,0.0,0.0,0.0,0.0,0.0,0.0,2.1331,2.1371,2.1587,2.2048,2.2552,2.3205,2.4033,2.5159,2.6512,2.8105,2.96,3.0939,3.2144,3.2368,3.2817,3.337,3.2721,3.2219,3.1842,3.1466,3.0462,2.9139,2.8881,2.848,0.0,2.8505,2.986,3.2466,3.8642,4.2331,4.51,4.9213,5.2929,5.6433,6.0122,6.3073,6.576,6.8768,7.1234,7.2916,7.2539,7.1112,6.8879,6.5325,6.0939,5.6219,5.1197,4.8982,4.7577,4.624,5.2741,6.0921,6.8775,7.6359,8.4061,9.2116,9.3602,9.4113,9.4977,9.5546,9.5889,9.5725,9.6384,9.7102,9.779,9.8448,9.8688,9.8359,9.8448,9.8493,9.8493,9.9047,9.9077,9.8538,9.8493,9.8493,9.8463,9.7611,9.7012,9.6757,9.5935,9.5606,9.5546,9.4888,9.5267,9.623,9.526,9.6542,9.9036,9.8555,9.9659,10.1505,10.1308,10.1286,10.1278,0.0,0.0,0.0,0.0,0.0,0.0,0.0,0.0,0.0,0.0,0.0,0.0,0.0,0.0,0.0,0.0,0.0,0.0,0.0,0.0,0.0,2.0348,2.0723,2.0938,2.1095,2.1827,2.2427,2.2916,0.0,2.4804,2.5337,2.6398,2.7143,2.7648,2.8387,2.9074,2.9698,2.9901,3.0058,3.0181,3.0181,2.9659,2.8888,2.8888,2.8756,0.0,2.9157,3.0984,3.3796,3.8116,4.3363,4.8937,5.3934,5.8202,6.1868,6.4605,6.7191,6.9551,7.146,7.3619,7.5025,7.3895,7.1463,6.7925,6.2345,5.7424,5.2402,4.6502,4.5825,4.6081,4.5327,5.2217,5.9982,6.5843,7.2314,7.9639,8.8315,9.0085,9.1746,9.5187,9.6444,9.7192,9.7551,9.8179,9.8808,9.9496,9.9825,9.9885,9.9556,9.9556,9.9556,9.9556,10.0184,10.0214,9.9556,9.9556,9.9556,9.9526,9.8149,9.7341,9.7012,9.6025,9.5396,9.5111,9.5637,9.6172,9.6654,9.7711,9.9387,10.1224,10.0703,10.1887,10.3618,10.2424,10.1887,10.1812,0.0,0.0,0.0,0.0,0.0,0.0,0.0,0.0,0.0,0.0,0.0,0.0,0.0,0.0,0.0,0.0,0.0,0.0,0.0,0.0,0.0,0.0,0.0,0.0,2.0605,0.0,0.0,2.2463,2.368,0.0,0.0,0.0,0.0,0.0,2.686,2.7786,2.8426,2.9101,2.956,0.0,0.0,2.9628,2.9082,0.0,0.0,0.0,0.0,3.1712,3.4427,3.7387,4.3037,4.9791,5.534,6.0864,6.5584,6.7015,6.9828,7.269,7.382,7.5552,7.6657,7.5,7.146,6.6513,5.9357,5.416,4.9152,4.3091,4.3849,4.5631,4.5715,5.2069,5.8723,6.2861,6.8153,7.4929,8.4141,8.6559,8.9512,9.5306,9.7132,9.8209,9.8867,9.9406,9.9975,10.0709,10.0812,10.0782,10.0483,10.0829,10.0782,10.0483,10.1188,10.1218,10.0483,10.0409,10.0409,10.0529,9.8598,9.77,9.767,9.6384,9.5644,9.5415,9.689,9.7559,9.7842,10.0499,10.2175,10.3094,10.2693,10.3619,10.5095,10.3296,10.2485,10.2213,0.0,0.0,0.0,0.0,0.0,0.0,0.0,0.0,0.0,0.0,0.0,0.0,0.0,0.0,0.0,0.0,0.0,0.0,0.0,0.0,0.0,0.0,0.0,0.0,0.0,0.0,0.0,2.1095,2.1391,0.0,0.0,0.0,0.0,0.0,0.0,2.9037,2.9302,2.938,0.0,0.0,0.0,0.0,0.0,0.0,0.0,0.0,0.0,3.1035,3.2491,3.7764,4.1379,4.4673,5.025,5.8102,6.5434,6.6086,7.0029,7.4423,7.5576,7.6707,7.7235,7.5528,7.0003,6.355,5.8366,5.18,4.6222,4.403,4.4649,4.6223,4.8305,5.2967,5.829,6.3687,6.8236,7.443,8.3999,8.7684,9.1398,9.6683,9.8508,9.9586,10.032,10.0364,10.0709,10.1397,10.2026,10.177,10.0619,10.1727,10.1817,10.0513,10.1188,10.1218,10.0483,9.9885,9.9885,10.0483,9.9077,9.8419,9.8344,9.7072,9.6971,9.7819,9.8644,10.0391,10.2698,10.2895,10.4194,10.59,10.4478,10.4497,10.5313,10.5112,10.4302,10.3315,0.0,0.0,0.0,0.0,0.0,0.0,0.0,0.0,0.0,0.0,0.0,0.0,0.0,0.0,0.0,0.0,0.0,0.0,0.0,0.0,0.0,0.0,0.0,0.0,0.0,0.0,2.0996,2.1076,2.1681,0.0,0.0,0.0,0.0,0.0,0.0,2.6833,2.7686,2.8211,0.0,0.0,0.0,0.0,0.0,0.0,0.0,0.0,0.0,0.0,3.1687,3.3596,3.7036,4.0753,4.1932,4.8535,5.6947,6.2496,6.7549,7.199,7.4799,7.736,7.8566,7.5855,7.0054,6.34,5.7424,5.1532,4.6495,4.3467,4.5428,4.7973,4.8913,5.2151,5.5761,5.916,6.141,6.5899,7.4826,7.8112,8.3008,9.2254,9.4528,9.6862,10.0693,10.1128,10.1427,10.2116,10.2309,10.2279,10.171,10.2189,10.2325,10.171,10.2026,10.2026,10.171,10.0992,10.0782,10.1128,10.023,9.9286,9.8478,9.8641,9.87,9.8843,10.0387,10.2113,10.4003,10.4521,10.5911,10.7582,10.5793,10.6011,10.7098,10.5482,10.4873,10.4802,0.0,0.0,0.0,0.0,0.0,0.0,0.0,0.0,0.0,0.0,0.0,0.0,0.0,0.0,2.3298,1.9649,0.0,0.0,0.0,0.0,0.0,0.0,0.0,0.0,0.0,0.0,2.1074,2.119,2.1952,2.2362,0.0,0.0,2.3517,2.3539,0.0,0.0,0.0,0.0,0.0,0.0,0.0,0.0,0.0,0.0,0.0,0.0,0.0,0.0,0.0,0.0,0.0,3.706,3.6358,4.0752,4.7983,5.7161,6.3936,6.9255,7.3145,7.6682,7.854,7.5703,6.9727,6.2898,5.6595,5.1311,4.6867,4.3807,4.6346,4.9319,5.0024,5.2277,5.4517,5.5881,5.7747,6.1614,6.8968,7.2343,7.7736,8.7666,9.004,9.3122,9.8867,10.0918,10.2026,10.2488,10.2488,10.2488,10.2488,10.2488,10.2488,10.2488,10.2488,10.2488,10.2488,10.159,10.1308,10.1517,10.0393,9.9526,9.8823,9.9718,10.0214,10.0298,10.2305,10.3998,10.5473,10.5933,10.6991,10.8192,10.6505,10.6721,10.791,10.5988,10.5513,10.5682,0.0,0.0,0.0,0.0,0.0,0.0,0.0,0.0,0.0,0.0,0.0,2.7702,2.7702,2.4609,2.2498,2.2459,0.0,0.0,0.0,0.0,0.0,0.0,0.0,0.0,0.0,0.0,0.0,0.0,2.168,2.2109,2.2519,2.3856,2.4488,2.4509,0.0,0.0,0.0,0.0,0.0,0.0,0.0,0.0,0.0,0.0,0.0,0.0,0.0,0.0,0.0,0.0,0.0,0.0,0.0,3.671,4.0099,5.006,5.9218,6.699,7.0882,7.4372,7.6507,7.4849,6.8597,6.1391,5.5878,5.0717,4.6803,4.5783,4.7464,4.9808,5.2156,5.411,5.5387,5.5416,5.9768,6.4743,6.9447,7.3925,7.8753,8.4145,8.594,8.8813,9.4169,9.9406,10.2488,10.2488,10.2488,10.2488,10.2488,10.2488,10.2488,10.2488,10.2488,10.2488,10.2488,10.1171,10.0782,10.1517,9.9496,9.8867,9.9481,9.9988,10.1075,10.2779,10.4611,10.6403,10.789,10.7198,10.7302,10.7882,10.6409,10.6288,10.69,10.69,10.6392,10.5817,0.0,0.0,0.0,0.0,0.0,0.0,0.0,0.0,0.0,0.0,2.4766,2.5137,2.6666,2.4238,2.2637,2.2951,0.0,0.0,0.0,0.0,0.0,0.0,0.0,0.0,0.0,0.0,0.0,0.0,0.0,0.0,2.2927,2.3665,2.3859,2.356,2.3842,2.4702,0.0,0.0,0.0,0.0,0.0,0.0,3.1562,0.0,0.0,0.0,0.0,0.0,0.0,0.0,0.0,0.0,0.0,0.0,0.0,4.2707,5.0971,5.9056,6.2948,6.6689,6.8773,6.5609,6.124,5.6495,5.1733,4.9395,4.7779,4.5966,4.8389,5.12,5.2372,5.3413,5.4836,5.7042,5.9885,6.3119,6.678,7.3176,7.9627,8.5363,9.3601,9.9466,10.1112,10.2817,10.3805,10.3805,10.3386,10.3117,10.3117,10.2698,10.2279,10.18,10.2325,10.2069,10.1112,10.1218,10.1098,10.0782,10.0184,10.007,10.0603,10.2007,10.3294,10.4507,10.588,10.6985,10.7927,10.7198,10.7302,10.7916,10.6876,10.7028,10.761,10.7103,10.6832,10.6494,0.0,0.0,0.0,0.0,0.0,0.0,0.0,0.0,0.0,2.1699,2.1971,2.2791,2.5156,2.2949,2.1817,2.309,0.0,0.0,0.0,0.0,0.0,0.0,0.0,0.0,0.0,0.0,0.0,0.0,0.0,0.0,0.0,0.0,2.4512,2.3591,2.3591,2.4102,0.0,0.0,0.0,0.0,0.0,0.0,3.1311,0.0,0.0,0.0,0.0,0.0,0.0,0.0,0.0,0.0,0.0,0.0,0.0,0.0,4.4016,5.0569,5.652,6.0814,6.2998,6.0426,5.726,5.3632,4.9414,4.8476,4.8002,4.634,4.8983,5.1849,5.2775,5.3442,5.4633,5.6839,5.924,6.1968,6.5214,7.1807,7.8908,8.5881,9.4977,10.0992,10.171,10.3386,10.4403,10.4403,10.3805,10.3416,10.3416,10.2817,10.2069,10.1188,10.1817,10.168,10.0918,10.0829,10.0513,10.0094,10.0311,10.0613,10.1222,10.3323,10.4801,10.5812,10.7124,10.7828,0.0,10.7311,10.7313,10.7514,10.6917,10.7098,10.7509,10.7103,10.69,10.6798,0.0,0.0,0.0,0.0,0.0,0.0,0.0,0.0,0.0,0.0,0.0,2.0723,2.3164,2.0918,0.0,0.0,0.0,0.0,0.0,0.0,0.0,0.0,0.0,0.0,0.0,0.0,0.0,0.0,2.4863,2.5806,2.707,0.0,0.0,0.0,2.4449,2.4553,0.0,0.0,0.0,0.0,0.0,0.0,0.0,0.0,0.0,0.0,0.0,0.0,0.0,0.0,0.0,0.0,0.0,0.0,0.0,0.0,0.0,0.0,0.0,5.6018,5.8353,5.7788,5.5265,5.2009,4.8429,4.778,0.0,4.6878,4.937,5.2052,5.3355,5.4025,5.4691,5.5474,5.8216,6.1378,6.4655,7.068,7.7891,8.6459,9.2105,9.5965,9.767,10.189,10.4523,10.4523,10.3895,10.3506,10.3416,10.2787,10.18,10.0513,10.1098,10.1291,10.1308,10.0124,9.9526,9.9406,9.9949,10.0502,10.1264,10.4106,10.5676,10.6428,10.8083,10.8391,10.7702,10.7299,10.7027,10.6814,10.6387,10.6596,10.69,10.69,10.69,10.69,0.0,0.0,0.0,0.0,0.0,0.0,0.0,0.0,0.0,0.0,0.0,1.9124,1.9766,1.9201,0.0,0.0,0.0,0.0,0.0,0.0,0.0,0.0,0.0,0.0,0.0,0.0,0.0,2.3945,2.5039,2.625,2.7545,2.7851,0.0,0.0,0.0,0.0,0.0,0.0,0.0,0.0,0.0,0.0,0.0,0.0,0.0,0.0,3.0728,3.0834,0.0,0.0,0.0,0.0,0.0,0.0,0.0,0.0,3.7562,3.942,4.336,0.0,4.8535,4.7556,4.6401,4.538,0.0,4.6137,4.7508,4.778,5.0252,5.2746,5.4052,5.3967,5.4604,5.7216,5.9333,6.1704,6.4682,7.5384,8.591,9.399,9.9167,10.189,10.1381,10.4104,10.5929,10.5929,10.4822,10.3924,10.3368,10.2309,10.1397,10.0483,10.023,9.9735,9.9226,9.9915,9.9735,9.8748,10.0206,10.1121,10.1581,10.4103,10.5218,10.52,10.6089,10.5984,10.5005,10.4911,10.5197,10.5716,10.5583,10.6123,10.69,10.69,10.69,10.6798,0.0,0.0,0.0,0.0,0.0,0.0,0.0,0.0,0.0,0.0,0.0,0.0,0.0,0.0,0.0,0.0,0.0,0.0,0.0,0.0,0.0,0.0,0.0,0.0,0.0,0.0,0.0,0.0,0.0,2.7162,0.0,0.0,0.0,0.0,0.0,0.0,0.0,0.0,0.0,0.0,2.98,0.0,0.0,0.0,0.0,0.0,3.0477,3.0633,0.0,3.2817,3.3244,3.3119,0.0,0.0,0.0,0.0,3.6935,3.8316,3.9798,4.2233,4.4192,4.3564,4.3187,4.3116,4.3617,4.5395,4.7257,4.8366,5.0746,5.2888,5.3878,5.41,5.4852,5.707,5.9036,6.2588,6.9117,7.8572,8.7856,9.6084,10.0094,10.2608,10.3715,10.5391,10.6288,10.5989,10.4702,10.3685,10.3027,10.1817,10.0693,10.0064,9.9975,9.9496,9.8493,9.9226,9.9303,9.8803,10.0492,10.1883,10.2812,10.4291,10.5105,10.5178,10.539,10.5003,10.408,10.4494,10.4906,10.5314,10.5516,10.6089,10.69,10.69,10.69,10.6798,0.0,0.0,0.0,0.0,0.0,0.0,0.0,0.0,0.0,0.0,0.0,0.0,0.0,0.0,0.0,0.0,0.0,0.0,0.0,0.0,0.0,0.0,0.0,0.0,0.0,0.0,0.0,0.0,0.0,0.0,0.0,0.0,0.0,0.0,0.0,0.0,0.0,0.0,0.0,0.0,2.9618,0.0,0.0,0.0,0.0,0.0,0.0,0.0,0.0,3.2893,3.3621,3.3922,3.4753,0.0,0.0,0.0,0.0,0.0,3.9271,4.123,4.2939,4.2688,4.2637,4.2867,4.3833,4.5232,4.6951,4.9049,5.1138,5.2859,5.3698,5.4553,5.5537,5.6718,5.9262,6.4844,7.5543,8.1235,8.7347,9.55,9.8508,10.1201,10.4296,10.5582,10.5881,10.5211,10.4014,10.2997,10.2219,10.0902,9.9885,9.9226,9.9645,9.9316,9.8089,9.8359,9.8724,9.9148,10.0802,10.2408,10.3889,10.4422,10.4879,10.5114,10.4805,10.4282,10.3685,10.4403,10.4876,10.5179,10.5481,10.6189,10.69,10.69,10.6798,10.6595,0.0,0.0,0.0,0.0,0.0,0.0,0.0,0.0,0.0,0.0,0.0,0.0,0.0,0.0,0.0,0.0,0.0,0.0,0.0,0.0,0.0,0.0,0.0,0.0,0.0,0.0,0.0,0.0,0.0,0.0,3.0234,3.2413,3.1299,0.0,0.0,0.0,0.0,0.0,0.0,0.0,2.825,0.0,0.0,0.0,0.0,0.0,0.0,0.0,0.0,3.1662,3.2437,3.3165,3.2817,0.0,0.0,0.0,0.0,0.0,4.1708,4.2688,4.2663,4.1254,4.0876,4.1636,4.4565,4.548,4.6771,5.0456,5.1947,5.3198,5.5185,5.5896,5.6833,5.8865,6.391,7.0966,8.0802,8.5006,8.9232,9.5067,9.9466,10.18,10.1291,10.3895,10.4984,10.3835,10.298,10.2099,10.0872,9.9556,9.8508,9.782,9.7401,9.6803,9.6055,9.77,9.8724,9.9148,10.0874,10.1898,10.2491,10.3994,10.372,10.2097,10.2378,10.222,10.1789,10.2221,10.3291,10.4804,10.4802,10.5682,10.69,10.69,10.6494,10.5885,0.0,0.0,0.0,0.0,0.0,0.0,0.0,0.0,0.0,0.0,0.0,0.0,0.0,0.0,0.0,0.0,0.0,0.0,0.0,0.0,0.0,0.0,0.0,0.0,0.0,0.0,0.0,0.0,0.0,3.1309,3.2617,3.1983,3.0126,2.7226,0.0,0.0,0.0,0.0,0.0,0.0,0.0,0.0,0.0,0.0,0.0,0.0,0.0,0.0,0.0,0.0,3.2864,3.347,3.3219,0.0,0.0,0.0,0.0,0.0,4.0803,4.163,4.1982,4.153,4.2574,4.4352,4.6843,4.7715,4.882,5.1565,5.263,5.378,5.6025,5.8157,6.1234,6.6527,7.2015,7.7496,8.2771,8.6549,9.0608,9.5546,9.8628,10.0812,10.1979,10.3805,10.4313,10.2997,10.2309,10.1427,10.0004,9.8688,9.782,9.7491,9.6892,9.6308,9.5606,9.7015,9.8264,9.938,10.1098,10.2285,10.2908,10.287,10.2395,10.1401,10.1584,10.1588,10.152,10.2384,10.3589,10.4701,10.5107,10.602,10.69,10.69,10.6189,10.5208,0.0,0.0,0.0,0.0,0.0,0.0,0.0,0.0,0.0,0.0,0.0,0.0,0.0,0.0,0.0,0.0,0.0,0.0,0.0,0.0,0.0,0.0,0.0,0.0,0.0,0.0,0.0,2.8906,3.1269,3.3359,3.5098,3.1866,2.9238,0.0,0.0,0.0,0.0,0.0,0.0,0.0,0.0,0.0,0.0,0.0,0.0,0.0,0.0,0.0,0.0,0.0,0.0,0.0,0.0,0.0,0.0,3.6859,3.7763,3.9296,4.0199,4.1078,4.1961,4.307,4.4568,4.6516,4.9303,5.0227,5.1302,5.4044,5.4749,5.544,5.743,6.1174,6.6435,7.3844,7.9231,8.3282,8.5682,8.9052,9.2805,9.6773,9.8568,10.0377,10.289,10.3685,10.3416,10.2099,10.1381,10.0393,9.9107,9.791,9.7222,9.7042,9.6444,9.6004,9.5673,9.6815,9.8126,9.961,10.0985,10.2204,10.3289,10.1997,10.1267,10.1204,10.132,10.1387,10.1486,10.2784,10.3787,10.4498,10.5276,10.6088,10.69,10.6494,10.5817,10.4903,0.0,0.0,0.0,0.0,0.0,0.0,0.0,0.0,0.0,0.0,0.0,0.0,0.0,0.0,0.0,0.0,0.0,0.0,0.0,0.0,0.0,0.0,0.0,0.0,0.0,2.6732,2.8105,3.0703,3.3672,3.5605,3.6499,3.3809,3.0996,2.8125,0.0,0.0,0.0,0.0,0.0,0.0,2.7355,0.0,0.0,0.0,0.0,0.0,0.0,0.0,0.0,0.0,0.0,0.0,0.0,0.0,3.7889,3.7287,3.8341,4.0099,4.221,4.2838,4.3493,4.6093,4.5354,4.5511,5.1305,5.218,5.3453,5.9357,5.9684,5.919,6.0238,6.532,7.1323,7.7466,8.2617,8.7482,9.2212,9.4751,9.6907,9.9047,10.1022,10.2309,10.2518,10.2608,10.2069,10.0693,10.0004,9.9047,9.77,9.7012,9.6354,9.5755,9.5097,9.5122,9.5966,9.7658,9.8852,9.961,9.9957,10.1,10.2594,10.1799,10.1002,10.0408,10.112,10.1387,10.1486,10.2278,10.3009,10.382,10.4531,10.558,10.6697,10.5411,10.5208,10.5411,0.0,0.0,0.0,0.0,0.0,0.0,0.0,0.0,0.0,0.0,0.0,0.0,0.0,0.0,0.0,0.0,0.0,0.0,0.0,0.0,0.0,0.0,0.0,2.4535,2.6582,2.8711,3.1348,3.4525,3.668,3.7246,3.6191,3.2793,0.0,0.0,0.0,0.0,0.0,0.0,0.0,0.0,0.0,0.0,0.0,0.0,0.0,0.0,0.0,0.0,0.0,0.0,3.3621,3.4603,3.4073,3.578,3.7839,3.6959,3.7889,3.9472,4.0652,4.2183,4.3828,4.5189,4.6504,4.8846,5.4449,5.6143,5.8001,6.3056,6.4415,6.5182,6.6964,7.2074,7.7515,8.2062,8.7303,9.2038,9.5546,9.7401,9.8987,10.0619,10.1381,10.2009,10.2535,10.2099,10.1517,10.0619,9.9496,9.8478,9.7551,9.6533,9.5666,9.5007,9.5329,9.545,9.5403,9.764,9.9132,9.9843,10.0497,10.1207,10.1832,10.1103,10.0676,10.0682,10.0686,10.1117,10.1817,10.2308,10.2908,10.3686,10.4396,10.5005,10.5512,10.4903,10.4598,10.4295,0.0,0.0,0.0,0.0,0.0,0.0,0.0,0.0,0.0,0.0,0.0,0.0,0.0,0.0,0.0,0.0,0.0,0.0,0.0,0.0,0.0,0.0,0.0,2.4648,2.6934,3.0351,3.3418,3.6089,3.8164,3.7891,3.5332,0.0,0.0,0.0,0.0,0.0,0.0,0.0,0.0,0.0,0.0,0.0,0.0,0.0,0.0,0.0,0.0,0.0,0.0,0.0,3.4223,3.4954,3.4951,3.6358,3.7889,3.7336,3.8115,3.9271,3.9798,4.1455,4.3372,4.4833,4.7397,5.1377,5.8477,6.0494,6.2431,6.8084,6.9321,7.0097,7.2438,7.6312,8.0594,8.4912,9.0288,9.4888,9.773,9.9107,10.023,10.1098,10.1397,10.1607,10.18,10.1308,10.0573,9.9915,9.8837,9.782,9.6952,9.5875,9.4977,9.4319,9.5201,9.5616,9.5468,9.7524,9.8986,9.9786,10.0222,10.0671,10.1401,10.0572,10.0513,10.0885,10.0685,10.1116,10.1913,10.2102,10.25,10.2976,10.3686,10.4092,10.4395,10.4395,10.4226,10.3889,0.0,0.0,0.0,0.0,0.0,0.0,0.0,0.0,0.0,0.0,0.0,0.0,0.0,0.0,0.0,0.0,0.0,0.0,0.0,0.0,0.0,0.0,0.0,2.4723,2.8164,3.1621,3.3828,3.4726,3.7715,3.7402,3.4036,3.2285,0.0,0.0,0.0,0.0,0.0,0.0,0.0,0.0,0.0,3.0049,3.1999,0.0,0.0,0.0,0.0,0.0,0.0,0.0,3.5079,3.5708,3.6835,3.7563,3.814,3.8718,3.9296,3.9823,4.0375,4.0901,4.2207,4.5762,4.8045,5.2299,6.346,6.4958,6.633,7.4819,7.4488,7.3442,7.5839,7.7159,7.9816,8.5597,9.1061,9.5755,9.9047,10.0094,10.0483,10.0483,10.1128,10.1171,10.0619,9.9885,9.9226,9.8568,9.788,9.6922,9.5666,9.4947,9.4289,9.3571,9.4511,9.5477,9.6475,9.7382,9.8286,9.9282,9.8553,9.9314,10.1401,10.0606,10.0513,10.0918,10.1287,10.1618,10.1912,10.1494,10.1418,10.1519,10.2198,10.2908,10.3585,10.3585,10.399,10.4497,0.0,0.0,0.0,0.0,0.0,0.0,0.0,0.0,0.0,0.0,0.0,0.0,0.0,0.0,0.0,0.0,0.0,0.0,0.0,0.0,0.0,0.0,0.0,0.0,0.0,0.0,3.2324,3.7422,3.6816,3.5059,0.0,0.0,0.0,2.7148,0.0,0.0,0.0,0.0,0.0,0.0,0.0,3.0522,3.2355,0.0,0.0,0.0,0.0,0.0,0.0,0.0,0.0,0.0,3.6532,3.8065,3.9496,3.8115,3.9195,4.0775,4.0549,4.2657,4.5561,4.8487,5.2707,5.8216,6.6222,6.7707,7.0153,7.9833,8.1321,8.0892,8.0922,8.3421,8.6122,8.8011,9.2256,9.6294,9.9107,9.9675,9.9975,10.0393,10.0709,10.0513,9.9855,9.9197,9.8538,9.785,9.6773,9.5785,9.4947,9.4259,9.3361,9.2224,9.4207,9.5214,9.5015,9.708,9.8212,9.852,9.8321,9.8818,9.991,9.9949,10.0385,10.122,10.1115,10.1476,10.2305,10.1692,10.1113,10.0608,10.0811,10.1386,10.2094,10.2094,10.2502,10.3111,0.0,0.0,0.0,0.0,0.0,0.0,0.0,0.0,0.0,0.0,0.0,0.0,0.0,0.0,0.0,0.0,0.0,0.0,0.0,0.0,0.0,0.0,0.0,0.0,0.0,2.7851,3.1348,0.0,0.0,0.0,0.0,0.0,0.0,2.8496,0.0,3.0039,0.0,0.0,0.0,2.9762,3.0598,3.1786,3.3176,0.0,0.0,0.0,0.0,0.0,0.0,0.0,0.0,0.0,3.6959,3.8341,3.9722,3.9044,4.0158,4.1794,4.2382,4.4823,4.8172,5.2201,5.6993,6.2883,7.1162,7.4438,7.7633,8.447,8.5791,8.5739,8.5815,8.748,8.9333,9.0823,9.3834,9.6803,9.9167,9.9496,9.9645,10.011,9.9855,9.9436,9.8778,9.8119,9.7461,9.6803,9.5785,9.4917,9.4229,9.3302,9.2609,9.216,9.4012,9.4968,9.4934,9.6802,9.7757,9.7757,9.7459,9.7791,9.8654,9.9452,10.0485,10.1585,10.1476,10.1531,10.1589,10.1115,10.0303,9.939,9.966,10.01,10.0605,10.1214,10.169,10.2096,0.0,0.0,0.0,0.0,0.0,0.0,0.0,0.0,0.0,0.0,0.0,0.0,0.0,0.0,0.0,0.0,0.0,0.0,0.0,0.0,0.0,0.0,0.0,0.0,0.0,0.0,0.0,0.0,0.0,0.0,0.0,0.0,3.1855,3.1611,0.0,3.4219,0.0,3.1959,3.1366,3.0284,3.2065,3.3286,3.4074,3.5097,0.0,0.0,0.0,0.0,0.0,0.0,0.0,0.0,3.7839,3.8517,3.9396,4.075,4.1797,4.297,4.5197,4.7402,5.0574,5.6736,6.1628,6.7553,7.7452,8.3139,8.6679,8.8212,8.8382,8.8699,9.0257,9.0147,9.0751,9.3726,9.5655,9.7371,9.9167,9.9406,9.9406,9.9316,9.8778,9.8119,9.7401,9.6773,9.6114,9.5456,9.4798,9.4139,9.3451,9.2194,9.1924,9.2894,9.3733,9.4656,9.5592,9.6523,9.7028,9.6995,9.6333,9.6562,9.7686,9.9019,10.0417,10.1778,10.2104,10.1521,10.0204,10.0102,9.9322,9.8172,9.8747,9.9051,9.9288,10.0709,10.1284,10.1487,0.0,0.0,0.0,0.0,0.0,0.0,0.0,0.0,0.0,0.0,0.0,0.0,0.0,0.0,0.0,0.0,0.0,0.0,0.0,0.0,0.0,0.0,0.0,0.0,0.0,0.0,0.0,0.0,0.0,0.0,0.0,0.0,0.0,3.1572,0.0,3.3203,3.0918,2.9399,2.8729,2.8944,3.1212,3.2498,3.3267,3.4871,3.4904,0.0,0.0,0.0,0.0,0.0,0.0,0.0,3.7839,3.927,4.0675,4.0199,4.2337,4.5223,4.6808,5.0643,5.5724,6.2014,7.0514,7.834,8.2199,8.5752,8.8233,8.8087,9.0256,9.226,9.2511,9.397,9.5332,9.5938,9.7207,9.8239,9.8688,9.8748,9.8538,9.8,9.779,9.7252,9.6114,9.5426,9.4738,9.405,9.3391,9.2733,9.2075,9.1255,9.123,9.2196,9.2544,9.3446,9.4813,9.5801,9.6233,9.6233,9.6101,9.6693,9.8009,9.831,9.9201,10.0582,10.0711,10.0474,10.0202,9.9593,9.9153,9.8815,9.8409,9.8578,9.9221,10.01,10.0878,10.1487,0.0,0.0,0.0,0.0,0.0,0.0,0.0,0.0,0.0,0.0,0.0,0.0,0.0,0.0,0.0,0.0,0.0,0.0,0.0,0.0,0.0,0.0,0.0,0.0,0.0,0.0,0.0,0.0,0.0,0.0,0.0,0.0,0.0,3.2832,0.0,3.3965,3.1133,3.0366,2.9572,2.9091,3.1923,3.3376,3.3953,3.5668,3.5805,3.51,3.5079,0.0,0.0,0.0,0.0,0.0,0.0,0.0,4.1302,4.1279,4.3131,4.5831,4.8893,5.3303,5.922,6.8366,7.6423,8.2646,8.4591,8.7029,8.8858,8.8829,9.1702,9.426,9.4529,9.5985,9.7133,9.7028,9.7341,9.7581,9.7581,9.7581,9.7461,9.7102,9.6773,9.6324,9.5666,9.4708,9.396,9.3644,9.2673,9.1835,9.1135,9.0519,9.0789,9.2121,9.2235,9.3263,9.523,9.5739,9.6001,9.6001,9.6001,9.6526,9.7635,9.8659,9.9516,10.0204,10.0204,9.9999,9.966,9.966,9.9221,9.8578,9.8544,9.8544,9.8679,9.939,9.9931,10.0504,0.0,0.0,0.0,0.0,0.0,0.0,0.0,0.0,0.0,0.0,0.0,0.0,0.0,0.0,0.0,0.0,0.0,0.0,0.0,0.0,0.0,0.0,0.0,0.0,0.0,0.0,0.0,0.0,0.0,0.0,0.0,0.0,0.0,3.4505,0.0,0.0,3.1719,3.1653,3.0602,2.922,3.2607,3.4116,3.452,3.6382,0.0,3.6457,3.5857,3.6383,3.7386,3.7587,0.0,0.0,0.0,0.0,4.1654,4.2685,4.3949,4.5965,5.053,5.5972,6.3029,7.4203,8.0265,8.3952,8.5594,8.7581,8.9235,8.9874,9.2521,9.4895,9.5636,9.6491,9.7163,9.7341,9.6922,9.6607,9.6607,9.6607,9.6578,9.6458,9.5815,9.5366,9.5247,9.393,9.3062,9.3062,9.1865,9.0878,9.0298,8.9681,9.0287,9.2258,9.2174,9.3366,9.5969,9.6001,9.6001,9.6001,9.6132,9.6488,9.7129,9.9006,9.9798,9.9798,9.9798,9.9559,9.9119,9.9627,9.9187,9.824,9.8713,9.8544,9.8104,9.8815,9.9085,9.9322,0.0,0.0,0.0,0.0,0.0,0.0,0.0,0.0,0.0,0.0,0.0,0.0,0.0,0.0,0.0,0.0,0.0,0.0,1.85,0.0,0.0,2.3711,2.4691,0.0,0.0,0.0,0.0,0.0,0.0,0.0,0.0,0.0,0.0,0.0,0.0,0.0,0.0,2.9129,2.7511,2.7437,3.0858,3.2299,3.2759,0.0,0.0,0.0,3.6482,3.696,3.804,3.9019,3.9496,0.0,0.0,0.0,4.2185,4.2813,4.4515,4.6898,5.0217,5.9495,6.9912,7.7116,8.1891,8.5055,8.5797,8.7886,8.9874,9.0497,9.1909,9.3319,9.4263,9.5004,9.5703,9.655,9.6667,9.6607,9.6607,9.6607,9.6354,9.5785,9.5127,9.4499,9.39,9.2135,9.0986,9.0986,8.9801,8.9052,8.8963,8.8334,8.9312,9.2226,9.1736,9.2884,9.5969,9.6001,9.6001,9.6001,9.6618,9.7064,9.7474,9.802,9.8307,9.8307,9.8307,9.8612,9.9051,9.851,9.8544,9.8882,9.8375,9.8104,9.8104,9.8815,9.9085,9.9322,0.0,0.0,0.0,0.0,0.0,0.0,0.0,0.0,0.0,0.0,0.0,0.0,0.0,0.0,0.0,1.801,1.8205,1.8732,1.9668,2.0644,2.1874,2.3401,2.4046,2.4554,2.4922,0.0,0.0,0.0,0.0,0.0,0.0,3.2519,3.4492,0.0,0.0,0.0,0.0,0.0,0.0,2.8147,3.1345,3.2777,0.0,0.0,0.0,0.0,0.0,0.0,3.9019,3.9521,4.0326,4.118,4.1683,0.0,0.0,0.0,4.4618,4.7508,5.482,6.2899,7.1,7.8475,8.221,8.4474,8.6187,8.7697,8.8988,9.0004,9.12,9.2594,9.4351,9.4784,9.5093,9.5921,9.5067,9.4469,9.4901,9.4931,9.4648,9.399,9.399,9.378,9.3092,9.1925,9.0986,9.0627,8.9771,8.8903,8.8185,8.7856,8.8947,9.1659,9.1452,9.2596,9.534,9.5372,9.5469,9.5663,9.6577,9.7191,9.7503,9.7848,9.8003,9.8003,9.8003,9.8172,9.8476,9.8578,9.8578,9.8476,9.8578,9.8375,9.8037,9.8375,9.8476,9.8713,0.0,0.0,0.0,0.0,0.0,0.0,0.0,0.0,0.0,0.0,0.0,0.0,0.0,0.0,0.0,0.0,1.8537,1.9258,2.0351,2.1016,2.1815,2.2814,2.334,2.3633,2.3633,0.0,0.0,0.0,0.0,0.0,3.2207,3.3926,3.6289,0.0,3.5703,0.0,0.0,0.0,0.0,0.0,0.0,0.0,0.0,0.0,0.0,0.0,0.0,0.0,4.0124,4.0275,4.1255,4.2439,4.2562,4.3266,0.0,0.0,0.0,4.7916,5.7185,6.3097,6.8619,7.6721,8.0497,8.2907,8.5636,8.7116,8.8234,8.9511,9.0679,9.2027,9.3984,9.4264,9.4369,9.5007,9.3691,9.2763,9.3272,9.3332,9.3152,9.2673,9.2733,9.2643,9.2135,9.1207,9.0388,8.9879,8.9292,8.8484,8.7496,8.7437,8.8551,9.0933,9.1041,9.2178,9.4578,9.4809,9.52,9.5815,9.6605,9.7222,9.7662,9.7879,9.8003,9.8003,9.8003,9.8003,9.8037,9.8578,9.851,9.807,9.8612,9.8476,9.8003,9.8003,9.8003,9.8206,0.0,0.0,0.0,0.0,0.0,0.0,0.0,0.0,0.0,0.0,0.0,0.0,0.0,0.0,1.8244,1.8543,1.8986,1.9453,1.9922,2.1152,2.1896,2.1974,2.2713,0.0,2.314,2.314,0.0,0.0,0.0,0.0,3.4016,3.5756,3.9256,4.3867,4.0,3.7363,3.5625,0.0,0.0,0.0,0.0,0.0,0.0,0.0,0.0,0.0,0.0,0.0,0.0,4.1884,4.2462,4.3065,4.3564,4.4116,4.4665,0.0,0.0,0.0,5.3574,5.7852,6.2613,7.0272,7.5853,8.0323,8.3517,8.6158,8.8234,8.9511,9.0547,9.1435,9.2202,9.2697,9.3158,9.3648,9.3062,9.2613,9.2643,9.2643,9.2643,9.2613,9.1494,9.0746,9.0717,8.9023,8.7885,8.7856,8.7227,8.6848,8.6788,8.6758,8.7851,9.0171,9.0279,9.144,9.3816,9.4544,9.5563,9.6935,9.7,9.7348,9.7972,9.8003,9.8003,9.8003,9.8003,9.8003,9.8003,9.8037,9.8037,9.8003,9.8037,9.8037,9.8003,9.8003,9.8003,9.8104,0.0,0.0,0.0,0.0,0.0,0.0,0.0,0.0,0.0,0.0,0.0,0.0,0.0,1.8683,1.9062,1.9046,1.9453,1.9863,2.0332,2.1329,2.1915,2.1915,2.2674,2.3101,2.3101,2.3101,0.0,0.0,0.0,2.7617,3.212,3.4922,3.8125,4.1406,3.8887,3.7559,3.6879,3.1923,0.0,0.0,0.0,0.0,0.0,0.0,0.0,0.0,4.1282,0.0,4.2484,4.3037,4.3589,4.4066,4.4238,4.4719,4.5372,4.6276,4.7663,4.9998,5.5064,5.8304,6.2071,6.9783,7.4285,7.7595,8.0381,8.3662,8.6301,8.7034,8.8344,8.9647,9.0552,9.1452,9.2252,9.2883,9.2045,9.1285,9.1285,9.1285,9.1027,9.019,9.004,8.986,8.9412,8.8753,8.8155,8.7736,8.7467,8.7137,8.6728,8.627,8.7333,9.0108,8.9841,9.0734,9.3055,9.4038,9.4886,9.5625,9.6282,9.7096,9.8003,9.7495,9.7563,9.8003,9.8003,9.8003,9.8003,9.8003,9.8003,9.8003,9.8003,9.8003,9.8003,9.8003,9.8003,9.8228,0.0,0.0,0.0,0.0,0.0,0.0,0.0,0.0,0.0,0.0,0.0,0.0,0.0,0.0,1.9715,1.9923,2.0176,2.0547,2.1016,2.17,2.209,2.209,2.2752,2.3101,2.3101,2.3374,0.0,0.0,0.0,0.0,0.0,0.0,3.7129,3.9805,3.7773,0.0,0.0,0.0,0.0,3.3429,0.0,0.0,3.6482,0.0,0.0,4.219,4.3627,4.4128,4.4116,4.4317,4.4744,4.5116,4.497,4.5422,4.6175,4.6898,4.8431,5.071,5.4472,5.7366,6.0977,6.8007,7.1353,7.3966,7.7798,8.0817,8.3203,8.4468,8.6285,8.8007,8.9074,9.0008,9.0848,9.1506,9.0698,8.9939,8.9939,8.9939,8.9651,8.8783,8.8873,8.8843,8.8394,8.8155,8.7736,8.7077,8.7018,8.6748,8.606,8.5611,8.6663,8.9414,8.9902,9.0908,9.2689,9.3533,9.4245,9.4821,9.5903,9.6684,9.7258,9.6988,9.7022,9.7292,9.7529,9.7766,9.8003,9.8003,9.8003,9.8003,9.8003,9.8003,9.8037,9.8273,9.8206,9.8289,0.0,0.0,0.0,0.0,0.0,0.0,0.0,0.0,0.0,0.0,0.0,0.0,0.0,0.0,0.0,2.1131,2.1249,2.1445,2.1855,2.2285,2.2498,2.2498,2.2888,2.3101,2.3101,2.3923,2.3962,0.0,0.0,0.0,0.0,0.0,3.6406,0.0,3.7148,3.8144,4.1523,0.0,3.8535,3.7523,0.0,3.4459,3.8114,0.0,4.288,4.4695,4.7841,4.7863,4.6321,4.5824,4.5974,4.6276,4.5698,0.0,0.0,0.0,0.0,5.0262,0.0,0.0,0.0,6.439,6.6796,6.9408,7.565,7.7682,7.9046,8.2013,8.4563,8.656,8.7721,8.8319,8.8813,8.9482,8.9123,8.8663,8.8663,8.8634,8.8634,8.8634,8.8035,8.7646,8.7676,8.7077,8.6389,8.5731,8.5701,8.5402,8.4743,8.4761,8.5855,8.8093,9.0424,9.1927,9.2656,9.3035,9.3744,9.479,9.5836,9.6175,9.5804,9.6545,9.6447,9.5838,9.6578,9.7258,9.7935,9.8003,9.8003,9.8003,9.7969,9.8003,9.8104,9.8781,9.8609,9.835,0.0,0.0,0.0,0.0,0.0,0.0,0.0,0.0,0.0,0.0,0.0,0.0,0.0,0.0,0.0,2.2126,2.2441,2.2443,2.1914,2.2285,2.2498,2.2498,2.2888,2.3101,2.3101,2.3357,2.3513,0.0,0.0,0.0,0.0,0.0,0.0,0.0,3.6562,3.7383,3.7887,3.4219,0.0,3.6738,3.3508,3.5686,4.0865,4.0682,4.3118,4.6819,4.8057,4.8632,4.8928,4.9493,4.8994,4.7857,4.6502,0.0,0.0,0.0,0.0,0.0,5.3453,0.0,0.0,0.0,0.0,0.0,6.8562,7.176,7.5028,7.7872,8.0483,8.3056,8.5804,8.643,8.6569,8.6778,8.7856,8.8514,8.8035,8.7556,8.7267,8.7267,8.6659,8.6419,8.6928,8.6818,8.6389,8.5731,8.5701,8.5402,8.4743,8.6299,8.7284,8.7472,9.0163,9.1726,9.1925,9.3017,9.3694,9.402,9.4772,9.5409,9.577,9.5466,9.5499,9.5804,9.6007,9.621,9.648,9.7563,9.8003,9.7969,9.7394,9.7529,9.7969,9.7631,9.824,9.943,0.0,0.0,0.0,0.0,0.0,0.0,0.0,0.0,0.0,0.0,0.0,0.0,0.0,0.0,0.0,0.0,2.3205,2.3147,2.2461,2.2615,2.2752,2.2752,2.2964,2.3201,2.3376,2.3769,2.3984,2.4043,0.0,0.0,0.0,0.0,0.0,0.0,0.0,0.0,0.0,0.0,0.0,0.0,3.4837,3.7777,4.2915,4.3139,4.6025,5.008,5.1265,5.2033,5.2494,5.2635,5.1255,4.9163,4.7506,4.7355,0.0,4.846,0.0,0.0,0.0,0.0,6.0177,6.2267,0.0,0.0,6.6244,6.8667,7.1154,7.3785,7.6684,7.9575,8.2326,8.3277,8.3846,8.4423,8.5671,8.6689,8.6838,8.6299,8.606,8.6638,8.5851,8.5551,8.621,8.603,8.5581,8.4923,8.4863,8.4594,8.3936,8.5788,8.6968,8.719,8.9446,9.0963,9.1596,9.271,9.325,9.325,9.4253,9.4755,9.4857,9.4755,9.4755,9.489,9.5195,9.533,9.5432,9.6616,9.7258,9.7495,9.7056,9.736,9.8003,9.7867,9.8651,9.9918,0.0,0.0,0.0,0.0,0.0,0.0,0.0,0.0,0.0,0.0,0.0,0.0,0.0,0.0,0.0,0.0,2.387,2.3809,2.3276,2.3198,0.0,2.3237,2.3198,2.3396,2.3848,2.4633,2.4824,2.4492,0.0,0.0,0.0,0.0,2.8249,0.0,0.0,0.0,0.0,0.0,0.0,3.5463,3.6942,4.0326,4.475,4.7051,5.0316,5.3917,5.5794,5.6489,5.6321,5.5164,5.303,5.0569,4.8837,4.8586,4.9095,4.954,5.2003,0.0,0.0,0.0,0.0,6.3951,6.3022,0.0,6.6273,6.7025,6.7585,6.995,7.3118,7.604,7.7963,7.9351,8.0607,8.1848,8.2619,8.3628,8.5342,8.5013,8.5073,8.6299,8.5372,8.4863,8.5521,8.5043,8.4406,8.3748,8.3628,8.3443,8.3071,8.4375,8.5801,8.727,8.8691,9.003,9.1331,9.2109,9.2477,9.251,9.3916,9.4214,9.3634,9.4282,9.4214,9.3634,9.4282,9.4586,9.462,9.5296,9.6041,9.6781,9.6714,9.7089,9.7834,9.8631,9.9274,10.0113,0.0,0.0,0.0,0.0,0.0,0.0,0.0,0.0,0.0,0.0,0.0,0.0,0.0,0.0,0.0,0.0,0.0,2.4996,0.0,0.0,0.0,2.4118,2.3848,2.3867,2.4254,2.4453,2.4668,2.4965,2.5219,2.5669,2.6269,2.6523,2.75,2.9043,0.0,0.0,0.0,0.0,3.375,3.5073,3.7786,4.235,4.7649,4.9396,5.2818,5.6681,5.6947,5.7633,5.8134,5.646,5.4938,5.3416,5.1297,5.0368,5.0117,5.0218,5.2891,5.5988,5.665,5.9239,6.1861,6.2499,6.2703,0.0,6.2529,6.3258,6.4607,6.695,6.9222,7.1693,7.4714,7.589,7.6621,7.7167,7.822,8.0345,8.4354,8.4325,8.4166,8.5013,8.4376,8.4136,8.4833,8.4803,8.4406,8.3748,8.3247,8.3462,8.4509,8.5396,8.6574,8.8048,8.8917,8.953,8.984,9.1077,9.171,9.171,9.314,9.374,9.3601,9.377,9.374,9.3634,9.374,9.3808,9.3808,9.3943,9.4789,9.5939,9.5364,9.5567,9.6365,9.7438,9.8853,10.0488,0.0,0.0,0.0,0.0,0.0,0.0,0.0,0.0,0.0,0.0,0.0,0.0,0.0,0.0,0.0,0.0,0.0,0.0,0.0,0.0,0.0,2.4391,2.4219,2.4414,2.5035,2.4863,2.5176,2.6035,2.5864,2.6197,2.7057,2.7246,2.791,2.8918,2.9609,0.0,0.0,3.248,3.3594,3.4792,3.9377,4.4254,4.9039,5.1746,5.538,5.9049,5.9441,6.0147,6.0461,5.7901,5.6495,5.5315,5.2553,5.1498,5.1322,5.1565,5.3332,5.5499,5.7163,5.9324,6.1409,6.2722,6.2819,0.0,0.0,6.2506,6.3185,6.4425,6.6048,6.7983,7.0129,7.1295,7.2496,7.4142,7.5228,7.7023,8.0278,8.1594,8.2769,8.4047,8.303,8.2649,8.3636,8.3158,8.2619,8.229,8.1961,8.2124,8.2869,8.3918,8.4855,8.561,8.7373,8.8322,8.8322,9.0474,9.1509,9.1509,9.2938,9.3601,9.3601,9.3601,9.3601,9.3601,9.3601,9.3601,9.3601,9.3601,9.4011,9.4687,9.4721,9.5161,9.592,9.7047,9.8701,10.0589,0.0,0.0,0.0,0.0,0.0,0.0,0.0,0.0,0.0,0.0,0.0,0.0,0.0,0.0,0.0,0.0,0.0,0.0,0.0,0.0,0.0,2.4762,2.4684,2.5054,2.5932,2.5625,2.5957,2.6986,2.668,2.6953,2.7819,2.8151,2.8613,2.9191,3.0469,3.1055,0.0,3.25,3.373,3.5322,4.1033,4.5406,4.8951,5.3147,5.7083,6.0557,6.1958,6.2621,6.233,5.9382,5.7926,5.6784,5.3708,5.2653,5.2653,5.298,5.3724,5.4985,5.7503,5.9368,6.1161,6.3431,6.3516,6.2993,0.0,0.0,0.0,6.2461,6.3552,6.4797,6.5668,6.6917,6.8708,7.1413,7.2591,7.3821,7.5762,7.7921,8.0105,8.2282,8.1063,8.0554,8.1908,8.0913,8.0345,8.0584,8.0494,8.0612,8.0995,8.2347,8.3267,8.3618,8.5982,8.7269,8.73,8.9929,9.1308,9.1308,9.287,9.3601,9.3601,9.3601,9.3601,9.3601,9.3601,9.3601,9.3601,9.3601,9.3601,9.3668,9.4248,9.4972,9.5836,9.708,9.8689,10.0314,1.2763,1.3019,0.0,0.0,0.0,0.0,0.0,0.0,0.0,0.0,0.0,0.0,0.0,0.0,0.0,0.0,0.0,0.0,2.8914,0.0,0.0,0.0,2.5776,2.5971,2.683,2.6816,2.6875,2.6986,2.6947,2.7383,2.8223,2.8262,2.8926,3.0098,3.1035,3.166,3.214,3.341,3.5312,3.7838,4.2047,4.466,4.6582,5.2024,5.6513,6.0263,6.3151,6.3601,6.2505,6.0623,5.9319,5.8089,5.5767,5.4723,5.422,5.3758,5.4543,5.6055,5.8232,6.0645,6.2806,6.3778,6.5199,6.5638,6.2848,0.0,6.2735,6.1602,0.0,6.2568,6.299,0.0,0.0,6.7814,6.9411,7.1098,7.3073,7.3612,7.4958,7.81,7.7736,7.7801,7.9118,7.8579,7.8639,7.9836,7.9357,7.9886,8.1788,8.3142,8.4487,8.5793,8.6783,8.7279,8.7279,8.9417,9.0505,9.0538,9.2601,9.3601,9.3601,9.3601,9.3601,9.3601,9.3601,9.3601,9.3601,9.3601,9.3601,9.3634,9.3673,9.4372,9.5482,9.7339,9.8742,9.999,1.3469,1.3487,0.0,0.0,0.0,0.0,0.0,0.0,0.0,0.0,0.0,0.0,0.0,0.0,0.0,0.0,0.0,2.9911,2.9618,0.0,0.0,0.0,2.6836,2.685,2.7734,2.7266,2.7357,2.8098,2.7871,2.8203,2.907,2.9277,2.9824,3.0644,3.1758,3.2637,3.3371,3.4427,3.5762,3.7434,4.0068,4.2931,4.6349,5.3231,5.8444,6.2249,6.3261,6.3694,6.3475,6.1492,6.0085,5.8905,5.7349,5.5792,5.4622,5.4662,5.4439,5.4543,5.6621,5.8449,6.0375,6.2773,6.3916,6.425,6.3383,6.2848,6.2151,6.0874,0.0,0.0,0.0,0.0,0.0,0.0,6.7254,6.8573,7.0378,7.0649,7.1876,7.5138,7.4958,7.4779,7.5318,7.5826,7.6185,7.6365,7.6844,7.7485,7.8391,8.1258,8.2762,8.2533,8.5634,8.6984,8.6315,8.9038,9.0522,9.0699,9.2655,9.3601,9.3601,9.3601,9.3601,9.3601,9.3601,9.3601,9.3601,9.3601,9.3601,9.3659,9.4283,9.4782,9.5392,9.6861,9.8379,9.9838,1.45,0.0,0.0,0.0,0.0,0.0,0.0,0.0,0.0,0.0,0.0,0.0,3.4959,3.4741,0.0,0.0,3.4135,3.2695,3.1455,2.9883,2.8848,2.8476,2.7754,2.7754,2.866,2.8027,2.8164,2.9101,2.8789,2.9109,2.997,3.0117,3.0566,3.1338,3.2695,3.3789,3.4687,3.5918,3.7207,3.8591,4.0039,4.3618,4.8769,5.5259,6.0067,6.3376,6.3402,6.3677,6.3726,6.1818,6.0638,5.9709,5.8328,5.6897,5.5691,5.5641,5.4863,5.4324,5.5751,5.7207,5.9042,6.1953,6.2942,6.3381,6.3893,6.3457,6.2529,6.1251,6.1513,0.0,0.0,0.0,6.3961,6.575,0.0,6.7311,6.8874,6.8731,6.9542,7.2475,7.2565,7.2355,7.2355,7.3073,7.3492,7.3343,7.424,7.4899,7.5078,7.9155,8.1144,8.0275,8.4645,8.6756,8.6191,8.8779,9.038,9.0938,9.2512,9.3368,9.3601,9.3601,9.3601,9.3601,9.3601,9.3601,9.3601,9.3601,9.3601,9.3718,9.4782,9.5413,9.5785,9.6917,9.8387,9.9859,1.598,1.5498,0.0,0.0,0.0,0.0,0.0,0.0,0.0,0.0,0.0,0.0,0.0,0.0,0.0,0.0,0.0,3.5845,3.5786,3.2676,3.0234,2.8918,2.8476,2.8679,2.954,2.952,2.954,2.9579,2.9559,3.0009,3.084,3.041,3.0879,3.2237,3.3887,3.5137,3.6094,3.8184,4.0547,4.2949,4.3867,4.822,5.4542,5.7864,6.0437,6.2448,6.3928,6.3776,6.2697,6.1567,6.1205,6.0763,5.8579,5.8227,5.824,5.6671,5.6483,5.6875,5.679,5.8455,6.0518,6.1725,6.3346,6.4493,6.4095,6.4473,6.4532,6.3254,6.3484,6.3716,6.314,6.4352,6.5829,0.0,6.7459,0.0,0.0,6.8036,6.7807,6.9903,7.062,7.0949,7.0949,7.047,7.0682,7.1846,7.1996,7.2295,7.2984,7.748,8.0365,8.1028,8.4452,8.6708,8.7607,8.8756,8.9843,9.0904,9.1971,9.2861,9.3601,9.3601,9.3601,9.3601,9.3601,9.3601,9.3601,9.3601,9.3601,9.3718,9.4782,9.5866,9.6969,9.8056,9.9188,10.0207,0.0,0.0,0.0,0.0,0.0,0.0,2.4601,2.6835,2.9218,3.2455,3.4037,3.6459,4.0637,4.0694,4.1314,4.3541,4.1874,4.0098,3.8672,3.6426,3.4687,3.364,3.2109,3.1269,3.1319,3.0771,3.0478,3.0478,3.0478,3.0928,3.1768,3.1612,3.1925,3.2656,3.4394,3.5801,3.7031,3.9473,4.1328,4.2934,4.6174,5.0751,5.5619,5.5956,5.8653,6.2322,6.286,6.3178,6.335,6.2973,6.2094,6.1115,6.0738,5.9734,5.8566,5.8027,5.775,5.7511,5.7041,5.8317,6.0015,6.1086,6.2782,6.426,6.4369,6.5007,6.5225,6.3949,6.3861,6.3803,6.3196,6.3871,6.4724,0.0,0.0,6.6479,0.0,6.7201,6.7238,6.7926,6.8196,6.8495,6.8945,6.8796,6.8856,6.9305,7.05,7.1698,7.2779,7.6135,7.9162,8.1615,8.3942,8.6069,8.802,8.9076,8.9899,9.0451,9.1281,9.1812,9.2083,9.259,9.2556,9.2116,9.3161,9.33,9.2861,9.3368,9.3601,9.3772,9.5603,9.6555,9.702,9.8105,9.9234,10.0215,1.7891,0.0,0.0,0.0,2.0558,2.1746,2.4743,2.7798,3.0896,3.3959,3.653,3.9616,4.3675,4.4132,4.4759,4.6265,4.5469,4.3672,4.0762,3.9805,3.8418,3.6348,3.4922,3.3984,3.3555,3.257,3.1905,3.1562,3.1562,3.1855,3.2413,3.2276,3.2511,3.3086,3.4844,3.6406,3.7949,4.084,4.2734,4.4087,4.7621,5.165,5.5463,5.474,5.7766,6.2303,6.2271,6.2647,6.3168,6.3333,6.2672,6.1793,6.1943,6.104,5.9809,5.9369,5.9182,5.8855,5.7863,5.8641,5.997,6.078,6.2223,6.3592,6.3969,6.5261,6.5803,6.3824,6.4257,6.4691,6.3488,6.4034,6.4737,0.0,0.0,0.0,0.0,6.6876,6.7089,6.7329,6.7148,6.7148,6.7598,6.7658,6.7658,6.7658,6.9035,7.0314,7.1378,7.4467,7.7559,8.049,8.2802,8.5105,8.7396,8.8362,8.9182,8.9816,9.056,9.1034,9.1305,9.1812,9.1744,9.1372,9.2624,9.2725,9.2116,9.3165,9.3666,9.3999,9.609,9.7122,9.7611,9.8694,9.9569,10.0215,1.9122,1.932,1.9778,2.1029,2.2515,2.3871,2.4812,2.8674,3.2203,3.4367,3.8222,4.189,4.4933,4.6025,4.725,4.8906,4.8594,4.6582,4.2461,4.291,4.1523,3.7359,3.7105,3.6797,3.6309,3.4961,3.3899,3.3047,3.2891,3.2851,3.291,3.2472,3.2656,3.3464,3.5273,3.6973,3.8806,4.2226,4.4746,4.6543,4.832,5.1277,5.4565,5.4609,5.7842,6.2361,6.2232,6.2167,6.229,6.2659,6.2781,6.2706,6.222,6.2044,6.1818,6.0713,6.0814,6.0914,5.9307,5.9659,6.0512,6.089,6.1785,6.2658,6.3035,6.5185,6.6203,6.3022,6.4712,6.6087,6.3981,6.4822,6.5795,0.0,0.0,0.0,6.6936,6.6999,6.7238,6.7868,6.7389,6.6999,6.7029,6.6999,6.6999,6.6999,6.7628,6.8348,6.9038,7.267,7.5747,7.8018,8.1156,8.3834,8.5956,8.6716,8.7732,8.9066,8.9748,9.0493,9.1169,9.1237,9.1237,9.1237,9.2015,9.1947,9.1372,9.2861,9.3748,9.4294,9.61,9.7541,9.8694,9.9809,10.0215,10.0215,1.9799,2.0894,2.226,2.323,2.3736,2.4801,2.7105,3.0204,3.3651,3.7446,4.1039,4.4572,4.8244,4.8833,4.9589,5.1143,5.0566,4.9394,4.7656,4.7129,4.5976,4.3926,4.2578,4.1406,4.0332,3.8105,3.6816,3.6567,3.4323,3.3769,3.4707,3.3613,3.3223,3.3484,3.5586,3.709,3.834,4.2109,4.5254,4.7909,5.0091,5.2852,5.575,5.639,5.9057,6.2343,6.1858,6.2084,6.2659,6.2781,6.2781,6.2756,6.2631,6.2581,6.243,6.1768,6.1969,6.222,6.1391,6.1667,6.2099,6.1767,6.2766,6.3776,6.3452,6.4523,6.52,6.3831,6.3895,6.4034,6.3695,6.3935,6.442,6.5126,6.5802,6.631,6.6597,6.6845,6.7059,6.7238,6.7089,6.7178,6.7688,6.7299,6.6999,6.6999,6.7628,6.8722,7.0312,7.2244,7.5204,7.9287,8.0887,8.3079,8.5956,8.641,8.7155,8.826,8.8463,8.8937,8.9681,9.0222,9.0188,8.9715,9.1034,9.1169,9.056,9.1508,9.2759,9.4225,9.5506,9.7548,9.9809,10.0091,10.0215,10.0215,2.1152,2.2823,2.4574,2.5617,2.6784,2.8058,2.9507,3.1799,3.4805,3.869,4.2623,4.6015,4.8519,5.0468,5.1881,5.2587,5.2383,5.1445,4.9601,4.9941,4.918,4.6953,4.6094,4.4902,4.3242,4.045,3.8655,3.7894,3.5273,3.4258,3.4805,3.3867,3.3516,3.3789,3.5586,3.707,3.8496,4.2754,4.5976,4.8424,5.0755,5.3197,0.0,5.6911,5.9314,6.1981,6.1603,6.1944,6.2536,6.2741,6.2781,6.2781,6.2781,6.2781,6.2731,6.2446,6.2531,6.2731,6.2446,6.2556,6.2781,6.2747,6.3387,6.3866,6.3327,6.3971,6.4239,6.2704,6.2822,6.3026,6.2524,6.3052,6.397,6.5022,6.5398,6.5808,6.6384,6.6784,6.7089,6.7419,6.7449,6.7598,6.7958,6.7389,6.6999,6.6999,6.7059,6.7966,6.9975,7.1016,7.3529,7.7968,8.0092,8.205,8.3882,8.5762,8.6578,8.6343,8.7461,8.8226,8.8632,8.9376,8.9478,8.9168,9.0324,9.0391,8.9782,9.0865,9.2316,9.4025,9.6284,9.8401,10.0215,10.0215,10.0215,10.0215,2.2893,2.4812,2.6591,2.761,3.0296,3.2349,3.239,3.4183,3.6625,3.9693,4.4128,4.733,4.8187,5.1696,5.3882,5.3703,5.3926,5.2919,5.0245,5.1855,5.1465,4.8301,4.8457,4.7676,4.5621,4.246,4.0117,3.8557,3.5976,3.459,3.4427,3.3789,3.375,3.4251,3.5469,3.707,3.9121,4.3654,4.6465,4.8189,5.0945,5.3058,5.4719,5.6944,5.9341,6.1482,6.1506,6.1862,6.2331,6.2659,6.2781,6.2781,6.2781,6.2781,6.2781,6.2781,6.2781,6.2781,6.2781,6.2781,6.2907,6.345,6.3576,6.345,6.2907,6.3356,6.3258,6.0888,6.1632,6.2315,6.1127,6.2462,6.4145,6.5394,6.5465,6.5719,6.6622,6.6963,6.7358,6.8047,6.8047,0.0,6.7987,6.7389,6.6999,6.6999,6.646,6.6939,6.8764,6.961,7.1676,7.532,7.8854,8.0877,8.1215,8.4751,8.5851,8.4514,8.6668,8.782,8.8023,8.8632,8.8965,8.8998,8.9647,8.9545,8.9066,9.0595,9.223,9.4115,9.7633,9.9491,10.0215,10.0107,10.0107,10.0215,2.4347,2.6104,2.7536,2.7757,3.1244,3.4862,3.7428,3.9868,4.2248,4.4584,4.8271,5.1233,5.2615,5.3404,5.4131,5.4889,5.4726,5.4199,5.325,5.3543,5.3047,5.1367,5.1016,5.0148,4.8723,4.4726,4.248,4.2168,3.7148,3.5215,3.6206,3.4701,3.418,3.4629,3.5586,3.7523,4.0371,4.3359,4.541,4.7067,5.2001,5.419,5.4895,5.8407,6.0441,6.1506,6.1489,6.2002,6.27,6.2781,6.2781,6.2781,6.2781,6.2781,6.2781,6.2781,6.2781,6.2781,6.2781,6.2781,6.2807,6.2907,6.2932,6.2907,6.2807,6.222,6.1598,6.1144,6.0578,6.0302,6.0825,6.2851,6.483,6.6031,6.6872,6.7548,6.7985,6.7917,6.8077,6.8734,6.8347,6.7987,6.7987,6.7389,6.6999,6.6999,6.6879,6.7208,6.8137,6.9793,7.1565,7.3355,7.7191,7.9889,8.1356,8.2766,8.4314,8.6028,8.6128,8.6805,8.7989,8.8125,8.8192,8.8192,8.8328,8.8294,8.8343,9.0084,9.2742,9.5936,9.8131,9.9491,10.0107,9.9455,9.9636,10.0215,2.7345,2.8512,2.976,3.1223,3.4613,3.8215,4.1346,4.4649,4.6727,4.6437,4.8849,5.0981,5.2169,5.4093,5.5329,5.5572,5.5449,5.5058,5.4414,5.4375,5.3887,5.2843,5.2324,5.1387,4.9902,4.6074,4.3437,4.2129,3.7578,3.5469,3.5625,3.4603,3.4434,3.5117,3.6426,3.8284,4.0645,4.3301,4.5137,4.6796,5.2292,5.4499,5.4939,5.9002,6.0924,6.1548,6.1754,6.2249,6.2781,6.2781,6.2781,6.2781,6.2781,6.2781,6.2781,6.2781,6.2781,6.2781,6.2781,6.2781,6.2857,6.3199,6.3007,6.2857,6.3199,6.2195,6.119,6.119,6.0286,6.0011,6.1757,6.279,6.4134,6.6317,6.6353,6.6552,6.7741,6.751,6.7707,6.9046,6.8819,6.8495,6.8495,6.7928,6.7358,6.7029,6.6999,6.7299,6.7958,6.8907,7.0618,7.3217,7.6615,7.9069,8.0452,8.2544,8.3893,8.4497,8.5606,8.6364,8.6873,8.7651,8.7786,8.7448,8.782,8.7989,8.8161,9.0521,9.3342,9.6347,9.7801,9.9129,10.0215,9.9781,9.96,9.96,3.0334,3.1226,3.2581,3.5265,3.8468,4.1616,4.4415,4.8287,5.024,4.8462,4.9733,5.1075,5.1943,5.4765,5.6445,5.6094,5.6074,5.5723,5.4863,5.4805,5.4375,5.3449,5.2949,5.1992,5.0488,4.707,4.4082,4.1621,3.8027,3.584,3.4961,3.4453,3.4759,3.5723,3.7246,3.8811,4.0566,4.3262,4.5078,4.6658,5.225,5.4499,5.4939,5.919,6.1066,6.1564,6.2043,6.2454,6.2781,6.2781,6.2781,6.2781,6.2781,6.2781,6.2781,6.2781,6.2882,6.2998,6.2998,6.3057,6.3249,6.3601,6.335,6.3099,6.3425,6.2295,6.119,6.119,6.0286,6.0164,6.2305,6.2722,6.3581,6.6194,6.599,6.6057,6.7607,6.7427,6.7753,6.9417,6.923,6.9004,6.9004,6.8495,6.7898,6.7059,6.6999,6.7239,6.7778,6.8077,6.9518,7.2401,7.5759,7.8004,7.906,8.2228,8.3587,8.3172,8.5273,8.6113,8.5824,8.7177,8.738,8.6704,8.7448,8.8225,8.9094,9.1464,9.4065,9.6646,9.747,9.8694,9.9962,9.9962,9.9527,9.8984,3.2026,3.3798,3.5769,3.8045,4.1466,4.4515,4.6379,4.9941,5.2584,5.3166,5.4013,5.4935,5.5943,5.6367,5.6562,5.6523,5.6523,5.6152,5.5312,5.5254,5.4687,5.3468,5.2949,5.2266,5.128,4.7949,4.5098,4.2931,3.9062,3.6738,3.5879,3.5039,3.5332,3.6616,3.7519,3.8672,4.0156,4.3144,4.4922,4.6245,5.2144,5.4499,5.4939,5.919,6.1091,6.1572,6.2043,6.2454,6.2781,6.2781,6.2781,6.2781,6.2781,6.2781,6.2781,6.2781,6.3199,6.3626,6.3626,6.3952,6.427,6.3802,6.3651,6.3475,6.3023,6.2019,6.119,6.119,6.0286,5.9845,6.0899,6.2681,6.4396,6.5458,6.7444,6.8923,6.9099,6.9139,6.9417,7.0189,6.9528,6.9004,6.9004,6.8944,6.8375,6.7089,6.6999,6.7029,6.7089,6.8256,6.88,6.854,7.338,7.6404,7.7242,8.032,8.281,8.4679,8.5492,8.5858,8.5851,8.6636,8.6602,8.5926,8.667,8.8867,9.196,9.2894,9.5001,9.7681,9.7767,9.8332,9.9129,9.9129,9.9056,9.8984,3.6754,3.7839,3.9375,4.202,4.388,4.6036,4.91,5.147,5.3397,5.4578,5.5251,5.5848,5.6543,5.6582,5.6582,5.6582,5.6582,5.6211,5.5371,5.5312,5.4844,5.3808,5.3086,5.2305,5.1397,4.8574,4.5625,4.2695,3.9844,3.748,3.5644,3.5273,3.5801,3.709,3.8203,3.957,4.1211,4.3711,4.541,4.6914,5.2335,5.4499,5.4983,5.9486,6.134,6.1614,6.229,6.2659,6.2781,6.2781,6.2781,6.2781,6.2781,6.2781,6.2781,6.2781,6.2957,6.3249,6.3601,6.3576,6.3525,6.3651,6.3425,6.3023,6.2471,6.1743,6.0989,6.0311,5.9558,5.9427,6.0736,6.2421,6.4125,6.5845,6.7088,6.8128,6.888,6.8723,6.8767,6.9417,6.9191,6.8824,6.8466,6.8407,6.7837,6.649,6.7148,6.7449,6.6999,6.8256,6.9381,7.025,7.3466,7.6266,7.8634,8.0246,8.2143,8.4271,8.5392,8.5633,8.5114,8.6338,8.6501,8.5844,8.6749,8.881,9.1648,9.253,9.458,9.7064,9.7064,9.7282,9.768,9.8622,9.8404,9.7723,4.0773,4.1518,4.2779,4.5697,4.6658,4.8154,5.1432,5.2881,5.4099,5.5338,5.5859,5.625,5.6543,5.6582,5.6582,5.6582,5.6582,5.6269,5.5547,5.5371,5.498,5.4258,5.3379,5.2558,5.1816,4.9531,4.6777,4.3574,4.1269,3.8906,3.6504,3.625,3.6894,3.8281,3.9316,4.082,4.2695,4.459,4.6359,4.8342,5.2703,5.4851,5.5793,5.9907,6.1506,6.1638,6.287,6.3057,6.2832,6.3199,6.3099,6.2781,6.2781,6.2907,6.3073,6.3073,6.3299,6.3651,6.4053,6.3852,6.3601,6.3852,6.35,6.2948,6.237,6.1692,6.0814,5.9533,5.9106,5.9224,6.0165,6.2067,6.4009,6.5589,6.6742,6.7783,6.8649,6.8642,6.8602,6.8867,6.9127,6.9034,6.8377,6.8107,6.7628,6.667,6.7268,6.7508,6.7029,6.8256,6.9624,7.0923,7.3226,7.5779,7.8619,7.9925,8.1647,8.3835,8.5393,8.5731,8.4986,8.6095,8.6298,8.5844,8.6573,8.8348,9.0805,9.1516,9.3417,9.5905,9.6123,9.6253,9.6449,9.8332,9.797,9.6911,4.3173,4.4324,4.5793,4.8819,5.0079,5.1277,5.3094,5.4101,5.498,5.582,5.6308,5.6582,5.6582,5.6582,5.6582,5.6582,5.6582,5.6406,5.5904,5.5527,5.5117,5.4687,5.3879,5.3144,5.2695,5.1016,4.8867,4.625,4.3652,4.125,3.9141,3.8245,3.8791,4.0469,4.0957,4.2344,4.4453,4.5742,4.7838,5.0624,5.336,5.5662,5.7656,6.0441,6.1489,6.1737,6.3761,6.3751,6.2957,6.4078,6.3726,6.2781,6.2781,6.3224,6.3676,6.3676,6.4429,6.5258,6.5258,6.5258,6.5132,6.4622,6.4119,6.3525,6.2907,6.1969,6.0713,5.9056,5.9131,5.9332,5.8805,6.171,6.4183,6.422,6.6797,6.8765,6.8794,6.9437,6.9637,6.8985,6.9543,6.9722,6.9064,6.8407,6.7987,6.7987,6.7389,6.6999,6.6999,6.8256,6.9004,6.9035,7.2111,7.4501,7.593,7.8784,8.1425,8.3835,8.5554,8.6193,8.5784,8.5817,8.5817,8.5817,8.5817,8.7384,8.9925,8.9949,9.1633,9.4291,9.5109,9.5419,9.5709,9.8115,9.797,9.6962,4.6121,4.7713,4.9239,5.0191,5.1601,5.2838,5.366,5.4551,5.5312,5.5806,5.6308,5.6582,5.6582,5.6582,5.6582,5.6582,5.6582,5.6406,5.5904,5.5748,5.543,5.4707,5.4121,5.3476,5.2734,5.1328,4.9609,4.7598,4.5605,4.3379,4.0957,4.041,4.0898,4.2305,4.3047,4.4394,4.6172,4.6875,4.8782,5.1518,5.4029,5.5996,5.7745,6.0851,6.1809,6.1663,6.2895,6.3124,6.2832,6.3224,6.3124,6.2781,6.2781,6.2907,6.3174,6.3576,6.3927,6.4354,6.5082,6.5007,6.4722,6.4547,6.4078,6.345,6.2496,6.1115,5.9784,5.8905,5.8855,5.8905,5.8716,6.171,6.4183,6.4183,6.679,6.8895,6.9131,6.957,6.9733,6.9311,6.9704,6.9722,6.9064,6.8794,6.8286,6.7389,6.7956,6.8166,6.7718,6.8525,6.9393,7.026,7.2567,7.4905,7.7234,7.955,8.1984,8.4545,8.613,8.7043,8.7279,8.6257,8.5817,8.5898,8.7269,8.8356,8.9319,9.1225,9.2559,9.3386,9.366,9.3768,9.3986,9.5869,9.6301,9.6359,4.8618,4.9958,5.1094,5.125,5.2578,5.3769,5.4199,5.5,5.5703,5.6133,5.6406,5.6582,5.6582,5.6582,5.6582,5.6582,5.6582,5.6465,5.6191,5.6015,5.5625,5.4941,5.4512,5.3867,5.2969,5.1855,5.0586,4.918,4.7148,4.5234,4.3476,4.2891,4.3301,4.4551,4.4941,4.5957,4.7486,4.8643,5.0666,5.3287,5.5665,5.7612,5.9296,6.1705,6.2416,6.2229,6.3344,6.35,6.3174,6.3375,6.3299,6.3124,6.2857,6.2973,6.3224,6.3576,6.3977,6.4429,6.5107,6.5074,6.4773,6.4547,6.4078,6.34,6.227,6.104,5.991,5.9156,5.9006,5.8956,5.8755,6.171,6.4183,6.4183,6.679,6.8929,6.9236,6.9637,6.9798,6.9411,6.9978,7.0171,6.9752,6.9512,6.9123,6.8495,6.8794,6.8914,6.8766,6.9363,7.0201,7.1248,7.3209,7.5544,7.8309,8.0066,8.2352,8.5147,8.6577,8.7515,8.7955,8.6771,8.6196,8.6271,8.7304,8.8178,8.8932,9.0774,9.1759,9.2139,9.2428,9.2573,9.2791,9.4695,9.5286,9.5503,5.0471,5.1172,5.1621,5.209,5.3223,5.4219,5.4648,5.541,5.6074,5.6484,5.6543,5.6543,5.6582,5.6582,5.6582,5.6582,5.6582,5.6582,5.6543,5.6152,5.5742,5.5293,5.4883,5.4328,5.3468,5.2608,5.1699,5.0859,4.8372,4.7012,4.6543,4.5723,4.5933,4.7045,4.6699,4.7207,4.8496,5.0726,5.3041,5.5486,5.7757,5.9949,6.1864,6.2788,6.3171,6.3323,6.4736,6.458,6.3827,6.4295,6.417,6.3651,6.3073,6.3249,6.3701,6.3701,6.4429,6.5233,6.5283,6.5308,6.5208,6.4647,6.4094,6.335,6.2245,6.1617,6.0914,5.9784,5.9558,5.9408,5.8892,6.1651,6.4066,6.4201,6.6749,6.8799,6.927,6.967,6.9828,6.9592,7.0366,7.0919,7.0949,7.044,7.032,7.0799,6.9812,6.9423,6.9961,7.0649,7.1308,7.1876,7.3855,7.623,7.8973,8.0364,8.2635,8.5692,8.6992,8.775,8.8057,8.7313,8.6974,8.6894,8.6508,8.7273,8.8733,8.9134,8.9809,9.0654,9.1414,9.174,9.2066,9.4384,9.4803,9.4633,5.0694,5.1406,5.2168,5.298,5.3867,5.4668,5.5098,5.5605,5.5924,5.6074,5.6094,5.6211,5.6543,5.6582,5.6582,5.6582,5.6582,5.6445,5.6113,5.5943,5.5605,5.4863,5.4726,5.4433,5.3887,5.3008,5.2148,5.1289,5.0616,4.998,4.9238,4.8711,4.8613,4.886,4.8762,4.9121,4.9734,4.9946,5.2034,5.5308,5.6373,5.8773,6.185,6.321,6.3686,6.3722,6.4437,6.4547,6.4295,6.3977,6.4094,6.422,6.3651,6.3576,6.3701,6.3701,6.4153,6.4798,6.5183,6.5584,6.5685,6.4748,6.3751,6.2847,6.2169,6.1893,6.1492,6.0362,6.0111,6.0085,5.9921,6.1258,6.2879,6.4551,6.6056,6.7656,6.9504,6.9836,7.0252,7.1171,7.1096,7.1098,7.1607,7.1517,7.1131,7.026,7.0829,7.0859,7.0021,7.1547,7.2265,7.1906,7.3855,7.623,7.8973,8.0871,8.3759,8.7543,8.8112,8.852,8.8829,8.8091,8.7448,8.6982,8.8364,8.8588,8.8053,9.0244,9.0943,9.0618,9.0799,9.1269,9.1958,9.3117,9.401,9.4932,5.1816,5.2187,5.2715,5.3769,5.4407,5.4883,5.5508,5.5781,5.6015,5.6211,5.6002,5.6094,5.6543,5.623,5.6152,5.6543,5.6582,5.6406,5.5904,5.5885,5.5566,5.4726,5.4687,5.4473,5.3992,5.3164,5.2383,5.1719,5.1914,5.1777,5.1328,5.0683,5.0343,5.0323,5.0,4.9961,5.027,5.1088,5.3027,5.5702,5.74,5.9837,6.258,6.3816,6.4371,6.4545,6.4805,6.4898,6.4756,6.4228,6.4446,6.4756,6.4203,6.4094,6.4002,6.3751,6.4053,6.4622,6.5132,6.5685,6.5835,6.4773,6.3827,6.3073,6.2496,6.2195,6.1818,6.1215,6.0688,6.0387,6.0663,6.1886,6.3339,6.4778,6.6558,6.8266,6.9704,7.0301,7.0806,7.1362,7.1398,7.1487,7.1846,7.1607,7.1278,7.0889,7.1218,7.1278,7.0891,7.2176,7.2744,7.2355,7.4569,7.7111,7.9922,8.2965,8.5739,8.8194,8.8367,8.8648,8.9066,8.8328,8.7786,8.7484,8.8847,8.8908,8.8299,9.0405,9.098,9.0581,9.0581,9.0871,9.1342,9.2139,9.3078,9.4192,5.3097,5.3008,5.3144,5.4531,5.4726,5.4941,5.5723,5.5787,5.5957,5.625,5.5976,5.5918,5.6348,5.5742,5.5625,5.6406,5.6426,5.623,5.5859,5.5728,5.539,5.4609,5.459,5.4414,5.3992,5.3301,5.2695,5.2285,5.2695,5.2871,5.2793,5.1992,5.1533,5.1455,5.0723,5.0371,5.0533,5.2835,5.4672,5.6341,5.9136,6.1563,6.3495,6.4473,6.5155,6.5626,6.5682,6.566,6.5559,6.4974,6.5082,6.5434,6.4823,6.4622,6.4547,6.4078,6.4254,6.4722,6.5057,6.5509,6.5634,6.4748,6.4002,6.3425,6.2907,6.2471,6.2094,6.2019,6.1165,6.0588,6.109,6.2652,6.41,6.4888,6.7227,6.9174,6.9803,7.0792,7.1331,7.1096,7.1637,7.2056,7.2056,7.1637,7.1547,7.1996,7.1607,7.1547,7.2026,7.2684,7.3103,7.3223,7.5522,7.83,8.1377,8.5427,8.7715,8.8194,8.8295,8.8611,8.91,8.8429,8.8091,8.8026,8.8579,8.8802,8.8873,9.0097,9.0581,9.0581,9.0581,9.0581,9.069,9.1487,9.236,9.326,5.3214,5.3008,5.3242,5.4922,5.4922,5.4844,5.5332,5.541,5.5312,5.5019,5.4922,5.5039,5.5469,5.539,5.5508,5.5996,5.5703,5.5469,5.541,5.5078,5.4648,5.416,5.4141,5.405,5.3972,5.3855,5.3613,5.3214,5.3613,5.3633,5.3292,5.2754,5.2324,5.1953,5.1465,5.1182,5.1308,5.3053,5.4862,5.6688,5.8932,6.1431,6.3927,6.5021,6.6011,6.6803,6.7223,6.7417,6.7241,6.6212,6.6237,6.6538,6.5484,6.5157,6.5157,6.5057,6.5107,6.5124,6.4748,6.4697,6.4722,6.4547,6.3701,6.2907,6.2807,6.2731,6.2571,6.2094,6.1492,6.109,6.1165,6.1736,6.2784,6.4677,6.6353,6.7936,6.9641,7.0792,7.148,7.1724,7.2325,7.2744,7.2744,7.3163,7.3253,7.2804,7.3163,7.3223,7.2774,7.3373,7.4001,7.454,7.6036,7.8693,8.2671,8.6343,8.815,8.8194,8.886,8.9111,8.91,8.8998,8.8564,8.8026,8.8579,8.8802,8.8873,9.0097,9.0581,9.0581,9.0581,9.0581,9.069,9.1487,9.2562,9.3717,5.3496,5.3359,5.3457,5.4746,5.4805,5.4824,5.5254,5.5312,5.5234,5.5039,5.4824,5.4922,5.5566,5.5234,5.5332,5.6211,5.5469,5.5058,5.5293,5.4922,5.4492,5.3992,5.3972,5.3926,5.3672,5.3906,5.3808,5.341,5.3808,5.3926,5.3711,5.3262,5.2832,5.2402,5.1973,5.166,5.1503,5.3359,5.5069,5.6865,5.9726,6.2288,6.4524,6.5896,6.6846,6.7442,6.7719,6.7618,6.7317,6.7091,6.699,6.694,6.6714,6.6237,6.5685,6.5383,6.5283,6.5233,6.5024,6.4906,6.4823,6.4203,6.3676,6.3199,6.2857,6.2781,6.2706,6.2496,6.2019,6.1617,6.1617,6.2675,6.3834,6.4868,6.7024,6.8876,6.977,7.1221,7.2126,7.1936,7.2804,7.3313,7.2954,7.3193,7.3253,7.2924,7.3193,7.3402,7.3432,7.3732,7.451,7.5886,7.8681,8.1315,8.3556,8.7096,8.8848,8.8797,8.9132,8.9216,8.91,8.91,8.87,8.806,8.8996,8.9165,8.8909,9.0564,9.1233,9.1233,9.1233,9.1233,9.1306,9.1668,9.2486,9.3548,5.3769,5.3672,5.3722,5.4648,5.4824,5.4941,5.5254,5.5312,5.5273,5.5176,5.4883,5.4922,5.5566,5.5156,5.5176,5.6074,5.5254,5.4824,5.5137,5.4765,5.4375,5.4043,5.3972,5.3867,5.3566,5.3848,5.3867,5.3516,5.3867,5.3972,5.3972,5.3574,5.3234,5.2832,5.2422,5.2267,5.2368,5.4395,5.6132,5.7795,6.1208,6.3535,6.5134,6.6685,6.7596,6.7995,6.8145,6.7819,6.7417,6.7693,6.7417,6.7059,6.7317,6.6815,6.6011,6.5459,6.5383,6.5484,6.5484,6.5383,6.5057,6.4103,6.3877,6.3726,6.3149,6.3124,6.3199,6.3199,6.2672,6.2195,6.2195,6.3864,6.5205,6.5143,6.7934,7.008,7.0031,7.1659,7.2714,7.2176,7.3462,7.4151,7.3672,7.3732,7.3788,7.3788,7.3788,7.4031,7.454,7.4569,7.5347,7.6958,8.1271,8.3812,8.4316,8.7878,8.9613,8.9567,8.9705,8.9653,8.9342,8.9342,8.8835,8.806,8.917,8.941,8.919,9.1031,9.1921,9.2102,9.2102,9.1958,9.1813,9.2055,9.2542,9.3197,5.3769,5.3672,5.382,5.5039,5.5254,5.5273,5.5312,5.5312,5.5176,5.4785,5.4707,5.4707,5.4765,5.5058,5.5137,5.4844,5.4726,5.4687,5.4726,5.4316,5.4011,5.3972,5.3972,5.4023,5.3984,5.3953,5.4023,5.3984,5.4023,5.3972,5.3972,5.3574,5.339,5.3351,5.2851,5.3468,5.4966,5.6928,5.866,6.0363,6.3449,6.5051,6.57,6.7251,6.8145,6.8622,6.9105,6.8929,6.8422,6.7945,6.7417,6.689,6.6388,6.6187,6.6011,6.5459,6.566,6.6061,6.6061,6.5685,6.5157,6.4597,6.4446,6.432,6.3751,6.4002,6.4396,6.4396,6.35,6.2731,6.2731,6.4467,6.5805,6.55,6.8415,7.0648,7.042,7.1825,7.2894,7.2834,7.4569,7.5736,7.5677,7.618,7.6509,7.6509,7.6509,7.6509,7.6569,7.6569,7.6928,7.7711,8.2485,8.5045,8.5043,8.8597,9.0377,9.0337,9.1007,9.093,9.0121,9.0121,8.9342,8.8026,8.8614,8.9259,8.9917,9.1246,9.2247,9.2935,9.2935,9.2465,9.1905,9.2852,9.287,9.2701,5.3828,5.4101,5.4258,5.4473,5.4961,5.5137,5.459,5.4746,5.4765,5.4336,5.4277,5.4473,5.5019,5.5215,5.5351,5.5449,5.5215,5.4961,5.4707,5.4277,5.3972,5.3972,5.3972,5.3972,5.3972,5.3972,5.3972,5.3972,5.3972,5.3972,5.3972,5.3848,5.3633,5.341,5.3183,5.3885,5.5247,5.716,5.8913,6.0703,6.4008,6.5626,6.6261,6.7787,6.8644,6.9105,6.9331,6.9055,6.8648,6.8728,6.8221,6.7518,6.7643,6.7191,6.6538,6.5961,6.571,6.576,6.6463,6.6237,6.5584,6.4722,6.4496,6.4446,6.427,6.4371,6.4421,6.4053,6.4178,6.3927,6.2571,6.511,6.7197,6.6284,6.8764,7.1002,7.1581,7.2719,7.3672,7.4091,7.5527,7.645,7.645,7.6659,7.6779,7.6779,7.6779,7.6779,7.6779,7.7167,7.7741,7.84,8.2389,8.4508,8.4474,8.8498,9.0477,9.0404,9.1141,9.1064,9.0222,9.0222,8.941,8.806,8.9065,8.9375,8.9366,9.1606,9.2718,9.3044,9.3531,9.3587,9.3334,9.3706,9.357,9.3268,5.3816,5.4277,5.4473,5.4433,5.4805,5.4902,5.4316,5.4492,5.4629,5.4453,5.4433,5.4648,5.5234,5.5547,5.5605,5.5299,5.5312,5.5078,5.4512,5.4199,5.3972,5.3972,5.3972,5.3972,5.3972,5.3972,5.3972,5.3972,5.3972,5.3972,5.3972,5.3972,5.3867,5.3625,5.4241,5.5166,5.6368,5.8322,6.0018,6.1538,6.4275,6.5793,6.6532,6.7861,6.8814,6.9406,6.9406,6.9055,6.8673,6.9004,6.8447,6.7618,6.7995,6.7467,6.6589,6.6011,6.5835,6.5936,6.6538,6.6689,6.6413,6.5526,6.53,6.53,6.53,6.53,6.525,6.5032,6.5283,6.5082,6.3576,6.6225,6.8301,6.7373,6.9655,7.1914,7.276,7.3656,7.451,7.5377,7.6455,7.7197,7.7442,7.7442,7.7442,7.7442,7.7442,7.7442,7.7442,7.7861,7.831,7.8789,8.2013,8.3747,8.3747,8.8237,9.0677,9.1074,9.1375,9.1165,9.0527,9.0324,8.9275,8.7755,8.9239,8.948,8.9002,9.1591,9.2935,9.3422,9.3965,9.4182,9.4239,9.4555,9.4205,9.3669,5.3797,5.3972,5.4297,5.5156,5.4961,5.4687,5.4668,5.4668,5.4824,5.5254,5.5293,5.5293,5.5312,5.6055,5.5879,5.418,5.4824,5.4941,5.4031,5.3972,5.3972,5.3972,5.3972,5.3972,5.3972,5.3972,5.3972,5.3972,5.3972,5.3972,5.3972,5.3972,5.3972,5.4074,5.6172,5.7697,5.8824,6.0923,6.2381,6.3394,6.4457,6.5526,6.6512,6.7523,6.8545,6.9406,6.9406,6.9055,6.8622,6.8622,6.7894,6.7034,6.7009,6.6589,6.6011,6.5459,6.6086,6.6865,6.6287,6.694,6.7668,6.7116,6.7034,6.7034,6.7034,6.7034,6.7141,6.7693,6.6915,6.6137,6.6112,6.7766,6.9061,6.8744,7.1302,7.3474,7.3877,7.448,7.5377,7.6659,7.7412,7.8071,7.8729,7.8789,7.8789,7.8789,7.8789,7.8789,7.8789,7.8789,7.8789,7.8789,8.1514,8.2987,8.3019,8.7976,9.1206,9.2577,9.1844,9.1434,9.1271,9.0527,8.9004,8.7016,8.9031,8.9469,8.8944,9.098,9.2754,9.4182,9.4182,9.4182,9.4333,9.5322,9.4819,9.3871,5.3457,5.4062,5.4473,5.4414,5.4551,5.459,5.4277,5.4219,5.4375,5.4805,5.4609,5.4648,5.5234,5.5273,5.5039,5.4531,5.4726,5.4629,5.4011,5.3972,5.3972,5.3972,5.3972,5.3972,5.3972,5.3972,5.3972,5.3972,5.3972,5.3972,5.3972,5.3972,5.3972,5.4055,5.5776,5.7332,5.8824,6.0923,6.2568,6.3943,6.4913,6.619,6.7591,6.816,6.929,7.0531,7.0154,6.9903,6.9702,6.928,6.8678,6.7995,6.7216,6.6589,6.6086,6.5911,6.6388,6.7015,6.7241,6.7819,6.8246,6.7693,6.7543,6.7543,6.7543,6.7543,6.7493,6.7267,6.7568,6.7518,6.6338,6.9083,7.1514,7.1394,7.3267,7.517,7.6444,7.6425,7.6574,7.7412,7.81,7.8579,7.8759,7.8789,7.8789,7.8789,7.8789,7.8789,7.8789,7.8789,7.8789,7.8789,8.1514,8.324,8.3779,8.7225,8.9676,9.104,9.0839,9.093,9.1271,8.9985,8.8497,8.6982,8.8475,8.8662,8.817,9.0729,9.2102,9.2646,9.3748,9.4182,9.4312,9.5156,9.5061,9.4545,5.3331,5.3926,5.4394,5.4297,5.4512,5.459,5.4336,5.4433,5.4687,5.5117,5.4805,5.4805,5.5488,5.5332,5.5117,5.4941,5.4941,5.4824,5.4551,5.4531,5.4453,5.4297,5.4453,5.4323,5.3992,5.3972,5.3972,5.3972,5.3972,5.3972,5.3972,5.3972,5.4411,5.5285,5.709,5.8773,6.0392,6.2456,6.3769,6.4473,6.5259,6.6538,6.8059,6.8464,6.9646,7.1033,7.0752,7.0627,7.0577,7.0204,6.9531,6.8753,6.7894,6.7241,6.6739,6.6513,6.6865,6.7417,6.797,6.8371,6.8648,6.8748,6.8447,6.817,6.8396,6.8296,6.8095,6.797,6.8321,6.8277,6.7292,7.0277,7.2783,7.247,7.4588,7.6657,7.7676,7.7197,7.7137,7.81,7.831,7.8519,7.8759,7.8789,7.8789,7.8789,7.8789,7.8789,7.8789,7.8789,7.8789,7.8789,8.1514,8.3208,8.3652,8.6475,8.8878,9.0839,9.0237,9.0426,9.1237,8.9748,8.8294,8.6982,8.8544,8.8627,8.7795,9.0297,9.1704,9.2392,9.337,9.4131,9.4746,9.5238,9.5363,9.5291,5.3331,5.373,5.416,5.4551,5.4629,5.4629,5.4668,5.5,5.541,5.5826,5.5566,5.5469,5.5845,5.5845,5.5723,5.5332,5.5312,5.5312,5.5312,5.5312,5.5137,5.4746,5.5098,5.4922,5.405,5.4031,5.4031,5.4031,5.4031,5.4031,5.4031,5.4031,5.5142,5.7202,5.9294,6.1119,6.2707,6.4826,6.5438,6.5072,6.5638,6.677,6.8183,6.866,6.9814,7.1158,7.1158,7.1158,7.1158,7.1108,7.038,6.9381,6.8829,6.8321,6.7769,6.7216,6.7442,6.7995,6.8547,6.8653,6.8974,7.0099,6.9501,6.8779,6.928,6.9055,6.8899,6.9306,6.9004,6.8653,6.8653,7.1306,7.327,7.2746,7.5641,7.7981,7.7981,7.7382,7.7317,7.8489,7.813,7.8041,7.8639,7.8759,7.8789,7.8789,7.8789,7.8789,7.8789,7.8789,7.8789,7.8789,8.1411,8.2856,8.2987,8.573,8.8523,9.1308,8.9902,8.9855,9.1034,8.9579,8.8125,8.6914,8.8857,8.8908,8.776,8.9758,9.1451,9.2791,9.2863,9.3805,9.5093,9.5166,9.5436,9.5801,5.3331,5.373,5.4011,5.416,5.418,5.4277,5.4629,5.4765,5.5078,5.5787,5.5566,5.5469,5.5845,5.5644,5.541,5.5312,5.5312,5.5312,5.5312,5.5312,5.5273,5.5176,5.5254,5.5058,5.4551,5.4531,5.4531,5.4531,5.4531,5.4531,5.4531,5.4531,5.5441,5.7182,5.8901,6.0737,6.2707,6.4826,6.5859,6.6173,6.6696,6.7788,6.9231,6.9759,7.0665,7.1736,7.1736,7.1736,7.1661,7.1234,7.0631,6.9978,6.9406,6.8854,6.8346,6.7769,6.802,6.8528,6.908,6.923,6.9481,7.0631,7.0079,6.9255,6.9381,6.9677,6.9828,6.9456,6.9306,6.923,6.923,7.2233,7.4827,7.5199,7.7578,7.9387,7.9387,7.834,7.7502,7.7257,7.7592,7.7861,7.8011,7.8489,7.8789,7.8789,7.8789,7.8789,7.8789,7.8789,7.8789,7.8789,8.0475,8.1886,8.2987,8.4696,8.699,8.9797,8.8864,8.8847,8.954,8.8057,8.6873,8.6128,8.7492,8.7913,8.776,8.9758,9.0799,9.1197,9.1813,9.2284,9.2646,9.3298,9.3764,9.4054,5.3371,5.373,5.4101,5.4297,5.4512,5.4785,5.5215,5.5449,5.5742,5.6191,5.5879,5.5762,5.6191,5.5859,5.5683,5.5898,5.5918,5.5918,5.5918,5.5918,5.582,5.5625,5.5801,5.5625,5.5,5.498,5.4785,5.4375,5.4375,5.4375,5.4375,5.4375,5.591,5.8648,5.9518,6.1579,6.453,6.5647,6.634,6.6869,6.7371,6.8365,6.9567,7.0372,7.1184,7.1937,7.2213,7.2288,7.2263,7.1962,7.151,7.1008,7.0706,7.0054,6.93,6.8748,6.8753,6.9105,6.9677,6.9828,7.0104,7.1209,7.1033,7.0556,7.028,7.0029,6.9853,6.9853,6.9582,6.9406,6.9406,7.2097,7.4616,7.5489,7.7524,7.9219,7.9756,7.8669,7.7682,7.7322,7.7592,7.7921,7.825,7.8579,7.8789,7.8789,7.8789,7.8789,7.8789,7.8789,7.8789,7.8789,8.0825,8.2256,8.2987,8.5074,8.7026,8.8763,8.8362,8.8511,8.9066,8.7955,8.6839,8.5891,8.7457,8.7948,8.776,8.9758,9.0835,9.1197,9.1632,9.203,9.2428,9.2843,9.349,9.4183,5.3507,5.3828,5.4258,5.4609,5.5019,5.5449,5.5826,5.625,5.6504,5.6582,5.6269,5.6191,5.6543,5.625,5.6191,5.6562,5.6582,5.6582,5.6582,5.6582,5.6426,5.6055,5.6387,5.6211,5.543,5.5351,5.5,5.4304,5.4219,5.4167,5.4304,5.4167,5.6394,6.0375,6.0337,6.2584,6.6496,6.6496,6.6796,6.7396,6.7809,6.8609,6.9605,7.0594,7.1234,7.1711,7.2364,7.2593,7.2693,7.2693,7.2414,7.2037,7.1937,7.1284,7.0451,6.9777,6.9531,6.9657,7.03,7.0376,7.0602,7.1761,7.1836,7.156,7.1284,7.0455,6.9807,7.0305,6.9978,6.9531,6.9531,7.177,7.3978,7.509,7.6918,7.8564,7.9639,7.8669,7.7771,7.7652,7.7741,7.8071,7.8729,7.8789,7.8789,7.8789,7.8789,7.8789,7.8789,7.8789,7.8789,7.8789,8.1066,8.2491,8.3019,8.5357,8.7134,8.8194,8.8194,8.8443,8.8897,8.8158,8.7076,8.5891,8.777,8.8206,8.776,8.9758,9.098,9.1595,9.1595,9.1994,9.261,9.2795,9.3421,9.4253,5.3867,5.4297,5.4609,5.4668,5.5019,5.5449,5.5826,5.5924,5.6152,5.6543,5.6523,5.6523,5.6582,5.6523,5.6523,5.6582,5.6582,5.6582,5.6582,5.6582,5.6562,5.6504,5.6562,5.6348,5.5806,5.5488,5.543,5.5631,5.4961,5.4961,5.5611,5.4941,5.6812,6.0779,6.0441,6.2584,6.6496,6.6496,6.7052,6.7926,6.7971,6.8569,6.9466,7.0154,7.0451,7.0652,7.1661,7.2339,7.2693,7.2693,7.2643,7.2539,7.2062,7.1811,7.1485,7.0455,7.02,7.0325,7.0832,7.0677,7.0677,7.2213,7.1535,7.0752,7.1585,7.1309,7.0882,7.0958,7.0577,7.02,7.02,7.2367,7.4595,7.5778,7.7242,7.8564,7.9639,7.8669,7.7592,7.6988,7.7472,7.8071,7.8729,7.8789,7.8789,7.8789,7.8789,7.8789,7.8789,7.8789,7.8789,7.8789,7.9154,8.0544,8.2954,8.3412,8.5168,8.8194,8.8194,8.8175,8.8125,8.738,8.6602,8.5857,8.7204,8.7702,8.776,8.9758,9.0654,9.0762,9.0762,9.0835,9.1036,9.1905,9.1977,9.1938,5.4355,5.4746,5.5098,5.5332,5.5527,5.5801,5.623,5.6289,5.6367,5.6562,5.6582,5.6582,5.6582,5.6582,5.6582,5.6582,5.6582,5.6582,5.6582,5.6582,5.6582,5.6582,5.6582,5.6504,5.6308,5.5644,5.5508,5.5885,5.4844,5.4512,5.4863,5.5683,5.7643,6.0621,6.1568,6.3703,6.6496,6.6496,6.7098,6.8017,6.8017,6.8565,6.9456,7.0054,7.03,7.0451,7.151,7.2062,7.2313,7.2568,7.2693,7.2643,7.2439,7.2163,7.1811,7.1309,7.0803,7.0426,7.0932,7.0953,7.0958,7.2012,7.1962,7.1761,7.2263,7.1937,7.1359,7.0803,7.0727,7.0531,6.9928,7.1494,7.3216,7.4453,7.5851,7.7268,7.8683,7.8565,7.825,7.7951,7.7861,7.8071,7.8729,7.8789,7.8789,7.8789,7.8789,7.8789,7.8789,7.843,7.84,7.8789,7.9968,8.1346,8.2987,8.4602,8.6343,8.8194,8.8194,8.8141,8.7989,8.7651,8.711,8.6501,8.7735,8.8276,8.8405,8.9953,9.0581,9.0581,9.0581,9.0328,9.0058,9.0935,9.1263,9.1481]}]]